[[{"header":{"parameterUnit":"m.s-1","parameterCategory":1,"la1":30.6,"la2":29.2853,"lo1":-89.7004,"lo2":-87.6739,"dx":0.0162,"dy":0.0183,"nx":112,"ny":82,"refTime":"2023-01-10T06:00:00:Z","depth":0,"parameterNumber":2,"parameterNumberName":"U-component_of_WINDS"},"data":[0.0,0.0,0.0,0.0,0.0,0.0,0.0,0.0,0.0,0.0,0.0,0.0,0.0,0.0,0.0,0.0,0.0,0.0,0.0,0.0,0.0,0.0,0.0,0.0,0.0,0.0,0.0,0.0,0.0,0.0,0.0,0.0,0.0,0.0,0.0,0.0,0.0,0.0,0.0,0.0,0.0,0.0,0.0,0.0,0.0,0.0,0.0,0.0,0.0,0.0,0.0,0.0,0.0,0.0,0.0,0.0,0.0,0.0,0.0,0.0,0.0,0.0,0.0,0.0,0.0,0.0,0.0,0.0,0.0,0.0,0.0,0.0,0.0,0.0,0.0,0.0,0.0,0.0,0.0,0.0,0.0,0.0,0.0,0.0,0.0,0.0,0.0,0.0,0.0,0.0,6.1213,6.2293,6.3659,6.439,6.4057,6.4206,6.3408,6.1101,0.0,0.0,0.0,0.0,0.0,0.0,0.0,0.0,0.0,0.0,0.0,0.0,0.0,0.0,0.0,0.0,0.0,0.0,0.0,0.0,0.0,0.0,0.0,0.0,0.0,0.0,0.0,0.0,0.0,0.0,0.0,0.0,0.0,0.0,0.0,0.0,0.0,0.0,0.0,0.0,0.0,0.0,0.0,0.0,0.0,0.0,0.0,0.0,0.0,0.0,0.0,0.0,0.0,0.0,0.0,0.0,0.0,0.0,0.0,0.0,0.0,0.0,0.0,0.0,0.0,0.0,0.0,0.0,0.0,0.0,0.0,0.0,0.0,0.0,0.0,0.0,0.0,0.0,0.0,0.0,0.0,0.0,0.0,0.0,0.0,0.0,0.0,0.0,0.0,0.0,0.0,0.0,0.0,0.0,0.0,0.0,0.0,0.0,0.0,0.0,0.0,0.0,0.0,0.0,6.1318,6.4266,6.4657,6.4857,6.4734,6.4272,6.321,6.1748,0.0,0.0,0.0,0.0,0.0,0.0,0.0,0.0,0.0,0.0,0.0,0.0,0.0,0.0,0.0,0.0,0.0,0.0,0.0,0.0,0.0,0.0,0.0,0.0,0.0,0.0,0.0,0.0,0.0,0.0,0.0,0.0,0.0,0.0,0.0,0.0,0.0,0.0,0.0,0.0,0.0,0.0,0.0,0.0,0.0,0.0,0.0,0.0,0.0,0.0,0.0,0.0,0.0,0.0,0.0,0.0,0.0,0.0,0.0,0.0,0.0,0.0,0.0,0.0,0.0,0.0,0.0,0.0,0.0,0.0,0.0,0.0,0.0,0.0,0.0,0.0,0.0,0.0,0.0,0.0,0.0,0.0,0.0,0.0,0.0,0.0,0.0,0.0,0.0,0.0,0.0,0.0,0.0,0.0,0.0,0.0,0.0,0.0,0.0,0.0,0.0,0.0,0.0,6.177,6.2971,6.4779,6.5381,6.5279,6.4395,6.4034,6.3329,6.1902,6.0163,0.0,0.0,0.0,0.0,0.0,0.0,0.0,0.0,0.0,0.0,0.0,0.0,0.0,0.0,0.0,0.0,0.0,0.0,0.0,0.0,0.0,0.0,0.0,0.0,0.0,0.0,0.0,0.0,0.0,0.0,0.0,0.0,0.0,0.0,0.0,0.0,0.0,0.0,0.0,0.0,0.0,0.0,0.0,0.0,0.0,0.0,0.0,0.0,0.0,0.0,0.0,0.0,0.0,0.0,0.0,0.0,0.0,0.0,0.0,0.0,0.0,0.0,0.0,0.0,0.0,0.0,0.0,0.0,0.0,0.0,0.0,0.0,0.0,0.0,0.0,0.0,0.0,0.0,0.0,0.0,0.0,0.0,0.0,0.0,0.0,0.0,0.0,0.0,0.0,0.0,0.0,0.0,0.0,0.0,0.0,0.0,0.0,0.0,0.0,0.0,0.0,0.0,6.3954,6.4736,6.5484,6.6024,6.5841,6.4457,6.4229,6.3556,6.1933,6.0897,0.0,0.0,0.0,0.0,0.0,0.0,0.0,0.0,0.0,0.0,0.0,0.0,0.0,0.0,0.0,0.0,0.0,0.0,0.0,0.0,0.0,0.0,0.0,0.0,0.0,0.0,0.0,0.0,0.0,0.0,0.0,0.0,0.0,0.0,0.0,0.0,0.0,0.0,0.0,0.0,0.0,0.0,0.0,0.0,0.0,0.0,0.0,0.0,0.0,0.0,0.0,0.0,0.0,0.0,0.0,0.0,0.0,0.0,0.0,0.0,0.0,0.0,0.0,0.0,0.0,0.0,0.0,0.0,0.0,0.0,0.0,0.0,0.0,0.0,0.0,0.0,0.0,0.0,0.0,0.0,0.0,0.0,0.0,0.0,0.0,0.0,0.0,0.0,0.0,0.0,0.0,0.0,0.0,0.0,0.0,0.0,0.0,0.0,0.0,0.0,0.0,0.0,6.4516,6.6204,6.7164,6.6766,6.6239,6.5811,6.5226,6.4026,6.1933,6.1748,0.0,0.0,0.0,0.0,0.0,0.0,0.0,0.0,0.0,0.0,0.0,0.0,0.0,0.0,0.0,0.0,0.0,0.0,0.0,0.0,0.0,0.0,0.0,0.0,0.0,0.0,0.0,0.0,0.0,0.0,0.0,0.0,0.0,0.0,0.0,0.0,0.0,0.0,0.0,0.0,0.0,0.0,0.0,0.0,0.0,0.0,0.0,0.0,0.0,0.0,0.0,0.0,0.0,0.0,0.0,0.0,0.0,0.0,0.0,0.0,0.0,0.0,0.0,0.0,0.0,0.0,0.0,0.0,0.0,0.0,0.0,0.0,0.0,0.0,0.0,0.0,0.0,0.0,0.0,0.0,0.0,0.0,0.0,0.0,0.0,0.0,0.0,0.0,0.0,0.0,0.0,0.0,0.0,0.0,0.0,0.0,0.0,0.0,0.0,0.0,0.0,0.0,6.43,6.5574,0.0,6.6844,6.6528,6.5965,6.5801,6.485,6.2579,0.0,0.0,0.0,0.0,0.0,0.0,0.0,0.0,0.0,0.0,0.0,0.0,0.0,0.0,0.0,0.0,0.0,0.0,0.0,0.0,0.0,0.0,0.0,0.0,0.0,0.0,0.0,0.0,0.0,0.0,0.0,0.0,0.0,0.0,0.0,0.0,0.0,0.0,0.0,0.0,0.0,0.0,0.0,0.0,0.0,0.0,0.0,0.0,0.0,0.0,0.0,0.0,0.0,0.0,0.0,0.0,0.0,0.0,0.0,0.0,0.0,0.0,0.0,0.0,0.0,0.0,0.0,0.0,0.0,0.0,0.0,0.0,0.0,0.0,0.0,0.0,0.0,0.0,0.0,0.0,0.0,0.0,0.0,0.0,0.0,0.0,0.0,0.0,0.0,0.0,0.0,0.0,0.0,0.0,0.0,0.0,0.0,0.0,0.0,0.0,0.0,0.0,6.3574,6.4473,6.5543,0.0,6.7235,6.6928,6.6581,6.6506,6.5678,6.3626,0.0,0.0,0.0,0.0,0.0,0.0,0.0,0.0,0.0,0.0,0.0,0.0,0.0,0.0,0.0,0.0,0.0,0.0,0.0,0.0,0.0,0.0,0.0,0.0,0.0,0.0,0.0,0.0,0.0,0.0,0.0,0.0,0.0,0.0,0.0,0.0,0.0,0.0,0.0,0.0,0.0,0.0,0.0,0.0,0.0,0.0,0.0,0.0,0.0,0.0,0.0,0.0,0.0,0.0,0.0,0.0,0.0,0.0,0.0,0.0,0.0,0.0,0.0,0.0,0.0,0.0,0.0,0.0,0.0,0.0,0.0,0.0,0.0,0.0,0.0,0.0,0.0,0.0,0.0,0.0,0.0,0.0,0.0,0.0,0.0,0.0,0.0,0.0,0.0,0.0,0.0,0.0,0.0,0.0,0.0,0.0,0.0,0.0,0.0,0.0,0.0,0.0,6.3893,6.5116,6.6717,6.8766,6.804,6.7525,6.7935,6.7319,6.6365,0.0,0.0,0.0,0.0,0.0,0.0,0.0,0.0,0.0,0.0,0.0,0.0,0.0,0.0,0.0,0.0,0.0,0.0,0.0,0.0,0.0,0.0,0.0,0.0,0.0,0.0,0.0,0.0,0.0,0.0,0.0,0.0,0.0,0.0,0.0,0.0,0.0,0.0,0.0,0.0,0.0,0.0,0.0,0.0,0.0,0.0,0.0,0.0,0.0,0.0,0.0,0.0,0.0,0.0,0.0,0.0,0.0,0.0,0.0,0.0,0.0,0.0,0.0,0.0,0.0,0.0,0.0,0.0,0.0,0.0,0.0,0.0,0.0,0.0,0.0,0.0,0.0,0.0,0.0,0.0,0.0,0.0,0.0,0.0,0.0,0.0,0.0,0.0,0.0,0.0,0.0,0.0,0.0,0.0,0.0,0.0,0.0,0.0,0.0,0.0,0.0,0.0,0.0,6.4432,6.5376,6.6899,6.9413,6.8464,6.7973,6.8551,6.8858,6.8027,6.575,0.0,0.0,0.0,0.0,0.0,0.0,0.0,0.0,0.0,0.0,0.0,0.0,0.0,0.0,0.0,0.0,0.0,0.0,0.0,0.0,0.0,0.0,0.0,0.0,0.0,0.0,0.0,0.0,0.0,0.0,0.0,0.0,0.0,0.0,0.0,0.0,0.0,0.0,0.0,0.0,0.0,0.0,0.0,0.0,0.0,0.0,0.0,0.0,0.0,0.0,0.0,0.0,0.0,0.0,0.0,0.0,0.0,0.0,0.0,0.0,0.0,0.0,0.0,0.0,0.0,0.0,0.0,0.0,0.0,0.0,0.0,0.0,0.0,0.0,0.0,0.0,0.0,0.0,0.0,0.0,0.0,0.0,0.0,0.0,0.0,0.0,0.0,0.0,0.0,0.0,0.0,0.0,0.0,0.0,0.0,0.0,0.0,0.0,0.0,0.0,0.0,0.0,6.4942,6.6246,6.7806,6.972,6.9413,6.9259,6.9659,7.0059,6.9505,6.7627,0.0,0.0,0.0,0.0,0.0,0.0,0.0,0.0,0.0,0.0,0.0,0.0,0.0,0.0,0.0,0.0,0.0,0.0,0.0,0.0,0.0,0.0,0.0,0.0,0.0,0.0,0.0,0.0,0.0,0.0,0.0,0.0,0.0,0.0,0.0,0.0,0.0,0.0,0.0,0.0,0.0,0.0,0.0,0.0,0.0,0.0,0.0,0.0,0.0,0.0,0.0,0.0,0.0,0.0,0.0,0.0,0.0,0.0,0.0,0.0,0.0,0.0,0.0,0.0,0.0,0.0,0.0,0.0,0.0,0.0,0.0,0.0,0.0,0.0,0.0,0.0,0.0,0.0,0.0,0.0,0.0,0.0,0.0,0.0,0.0,0.0,0.0,0.0,0.0,0.0,0.0,0.0,0.0,0.0,0.0,0.0,0.0,0.0,0.0,0.0,0.0,0.0,6.5504,6.7316,6.8903,6.9905,7.0551,7.0921,7.1013,7.1013,7.0705,7.0028,0.0,0.0,0.0,0.0,0.0,0.0,0.0,0.0,0.0,0.0,0.0,0.0,0.0,0.0,0.0,0.0,0.0,0.0,0.0,0.0,0.0,0.0,0.0,0.0,0.0,0.0,0.0,0.0,0.0,0.0,0.0,0.0,0.0,0.0,0.0,0.0,0.0,0.0,0.0,0.0,0.0,0.0,0.0,0.0,0.0,0.0,0.0,0.0,0.0,0.0,0.0,0.0,0.0,0.0,0.0,0.0,0.0,0.0,0.0,0.0,5.9347,0.0,0.0,0.0,0.0,0.0,0.0,0.0,0.0,0.0,0.0,0.0,0.0,0.0,0.0,0.0,0.0,0.0,0.0,0.0,0.0,0.0,0.0,0.0,0.0,0.0,0.0,0.0,0.0,0.0,0.0,0.0,0.0,0.0,0.0,0.0,0.0,0.0,0.0,0.0,0.0,0.0,6.6467,6.7989,6.9366,7.0613,7.0828,7.1136,7.169,7.1752,7.1444,7.0736,6.9936,0.0,0.0,0.0,0.0,0.0,0.0,0.0,0.0,0.0,0.0,0.0,0.0,0.0,0.0,0.0,0.0,0.0,0.0,0.0,0.0,0.0,0.0,0.0,0.0,0.0,0.0,0.0,0.0,0.0,0.0,0.0,0.0,0.0,0.0,0.0,0.0,0.0,0.0,0.0,0.0,0.0,0.0,0.0,0.0,0.0,0.0,0.0,0.0,0.0,0.0,0.0,0.0,0.0,0.0,0.0,0.0,0.0,0.0,0.0,0.0,5.9101,0.0,0.0,0.0,0.0,0.0,0.0,0.0,0.0,0.0,0.0,0.0,0.0,0.0,0.0,0.0,0.0,0.0,0.0,0.0,0.0,0.0,0.0,0.0,0.0,0.0,0.0,0.0,0.0,0.0,0.0,0.0,0.0,0.0,0.0,0.0,0.0,0.0,0.0,0.0,0.0,6.8212,6.9298,7.0434,7.1783,7.2183,7.2552,7.2922,7.2952,7.2645,7.1937,7.0952,0.0,0.0,0.0,0.0,0.0,0.0,0.0,0.0,0.0,0.0,0.0,0.0,0.0,0.0,0.0,0.0,0.0,0.0,0.0,0.0,0.0,0.0,0.0,0.0,0.0,0.0,0.0,0.0,0.0,0.0,0.0,0.0,0.0,0.0,0.0,0.0,0.0,0.0,0.0,0.0,0.0,0.0,0.0,0.0,0.0,0.0,0.0,0.0,0.0,0.0,0.0,0.0,0.0,6.0824,6.144,6.1994,6.2579,6.2825,6.2702,6.0578,5.9839,6.0116,5.9778,0.0,0.0,0.0,0.0,0.0,0.0,0.0,0.0,0.0,0.0,0.0,0.0,0.0,0.0,0.0,0.0,0.0,0.0,0.0,0.0,0.0,0.0,0.0,0.0,6.3779,6.3872,0.0,0.0,0.0,0.0,0.0,0.0,0.0,0.0,0.0,0.0,0.0,0.0,6.9751,7.0705,7.1721,7.286,7.3691,7.4153,7.4153,7.4153,7.3876,7.3199,7.2091,7.129,0.0,0.0,0.0,0.0,0.0,0.0,0.0,0.0,0.0,0.0,0.0,0.0,0.0,0.0,0.0,0.0,0.0,0.0,0.0,0.0,0.0,0.0,0.0,0.0,0.0,0.0,0.0,0.0,0.0,0.0,0.0,0.0,5.6423,5.6607,0.0,0.0,0.0,0.0,0.0,0.0,0.0,0.0,0.0,0.0,0.0,0.0,0.0,5.9839,6.0517,6.1101,6.144,6.1563,6.224,6.261,6.2702,6.2764,6.2825,6.2825,6.3071,0.0,6.1625,6.2702,0.0,0.0,0.0,0.0,0.0,0.0,0.0,0.0,0.0,0.0,0.0,0.0,0.0,0.0,0.0,0.0,0.0,0.0,0.0,0.0,0.0,0.0,6.6334,6.5657,6.5565,6.5565,0.0,6.3964,6.2856,6.3441,6.3564,0.0,0.0,0.0,0.0,0.0,0.0,0.0,6.9874,7.1292,7.2519,7.2952,7.4122,7.4861,7.4861,7.4861,7.4584,7.3907,7.3691,7.2768,7.0982,7.009,0.0,0.0,0.0,0.0,0.0,0.0,0.0,0.0,0.0,0.0,0.0,0.0,0.0,0.0,0.0,0.0,0.0,0.0,0.0,0.0,0.0,0.0,0.0,0.0,0.0,0.0,0.0,0.0,0.0,5.6515,5.7469,5.7839,5.7962,5.8085,0.0,0.0,0.0,0.0,0.0,0.0,0.0,0.0,0.0,6.2025,6.1317,6.1625,6.3102,6.2979,6.3533,6.4672,6.498,6.5503,6.6211,6.5842,6.5688,6.5688,6.5596,6.5442,6.5195,6.4641,6.4087,6.3626,0.0,0.0,0.0,0.0,6.5319,6.5134,6.6211,6.6611,0.0,6.6611,0.0,0.0,0.0,0.0,0.0,0.0,0.0,0.0,0.0,0.0,6.7504,6.7566,6.7596,6.7596,6.7596,6.6858,6.5965,0.0,6.5011,6.5442,6.6888,0.0,0.0,0.0,0.0,7.1199,7.2091,7.2521,7.3289,7.4553,7.5199,7.5569,7.5569,7.5569,7.5292,7.4584,7.4214,7.3568,7.2675,7.1229,6.9997,0.0,0.0,0.0,0.0,0.0,0.0,0.0,0.0,0.0,0.0,0.0,0.0,0.0,0.0,0.0,0.0,0.0,0.0,0.0,0.0,0.0,0.0,0.0,0.0,0.0,0.0,0.0,0.0,5.8054,5.8916,5.9255,6.0055,6.0301,0.0,0.0,0.0,0.0,0.0,0.0,6.2579,6.2271,6.2887,6.4549,6.381,6.418,6.5903,6.538,6.5903,6.7412,6.7412,6.7935,6.8858,6.8397,6.8274,6.8397,6.8089,6.8335,6.8766,6.6396,6.5596,6.5934,6.6088,6.5965,6.5811,6.6981,6.7104,6.6858,6.8212,6.8674,6.8674,6.8674,6.8581,6.8335,6.7843,0.0,0.0,0.0,0.0,6.772,6.7904,6.8304,6.8797,6.9289,6.9536,6.9659,6.9659,6.9813,6.9351,0.0,6.6919,6.7442,6.9105,0.0,0.0,0.0,0.0,7.286,7.3876,7.3845,7.4338,7.5846,7.6154,7.6277,7.6277,7.6277,7.5969,7.5292,7.4799,7.443,7.4245,7.2614,7.1475,7.0952,0.0,0.0,0.0,0.0,0.0,0.0,0.0,0.0,0.0,0.0,0.0,0.0,0.0,0.0,0.0,0.0,0.0,0.0,0.0,0.0,0.0,0.0,0.0,0.0,0.0,0.0,0.0,0.0,0.0,6.0763,6.1871,0.0,0.0,0.0,0.0,6.3626,6.4303,6.4703,6.4734,6.5319,6.5996,6.6735,6.7319,6.7966,6.8674,6.8643,6.8674,6.8797,6.8797,6.8828,6.8889,6.8858,6.9197,6.9813,7.0428,7.1105,7.1506,6.8181,6.7566,6.8551,6.735,6.7227,6.7843,6.8551,6.8766,6.892,7.0274,7.0767,7.0767,7.0767,7.0305,6.9782,6.9751,6.9289,0.0,0.0,6.972,6.9905,7.0521,7.0736,7.0767,7.0798,7.1321,7.1813,7.1813,7.2306,7.2152,0.0,6.969,6.9936,7.0675,0.0,7.1875,7.1998,7.3076,7.3907,7.3968,7.5076,7.5907,7.6,7.6585,7.6954,7.6954,7.6954,7.6677,7.6,7.5938,7.563,7.4984,7.4245,7.3814,7.3783,7.1813,0.0,0.0,0.0,0.0,0.0,0.0,0.0,0.0,0.0,0.0,0.0,0.0,0.0,0.0,0.0,0.0,0.0,0.0,0.0,0.0,0.0,0.0,0.0,0.0,0.0,0.0,0.0,0.0,6.2117,6.3318,0.0,6.381,6.5011,6.5811,6.5811,6.6827,6.7473,6.7473,6.7689,6.815,6.8797,6.8643,6.9289,7.0859,7.0398,7.0859,7.2183,7.2183,7.2398,7.2798,7.2368,7.2306,7.2521,7.2337,7.2645,7.3137,7.1506,7.1105,7.1475,7.1013,7.0952,7.1198,7.1444,7.1813,7.2244,7.2737,7.3168,7.3537,7.3537,7.3076,7.2521,7.2521,7.206,7.1475,7.129,7.1536,7.1937,7.2183,7.2552,7.2983,7.3445,7.3753,7.3907,7.3907,7.4122,7.4061,7.3322,7.2491,7.2244,7.3353,7.3383,7.3568,7.443,7.4615,7.4799,7.523,7.5323,7.5538,7.5969,7.6215,7.6369,7.6369,7.6769,7.6923,7.6677,7.6646,7.6338,7.5692,7.5415,7.4892,7.3999,7.326,7.2675,0.0,0.0,0.0,0.0,0.0,0.0,0.0,0.0,0.0,0.0,0.0,0.0,0.0,0.0,0.0,0.0,0.0,0.0,0.0,0.0,0.0,0.0,0.0,0.0,0.0,0.0,6.3779,6.3533,6.5134,6.6057,6.5626,6.7196,6.8181,6.7935,6.8951,6.9566,6.9566,7.0028,7.0459,7.0921,7.0952,7.1598,7.2983,7.2521,7.2983,7.4338,7.4338,7.4584,7.4984,7.4522,7.4461,7.4645,7.4214,7.4522,7.5292,7.4615,7.4491,7.4584,7.3414,7.3137,7.3322,7.3322,7.3599,7.403,7.4245,7.4615,7.5015,7.5015,7.4707,7.4338,7.4338,7.403,7.3568,7.3137,7.3322,7.366,7.366,7.3999,7.4461,7.4892,7.5169,7.5353,7.5353,7.5538,7.5692,7.5692,7.4584,7.3968,7.4861,7.4645,7.4799,7.6154,7.5784,7.5661,7.6585,7.6092,7.5846,7.6308,7.6338,7.6338,7.6338,7.72,7.7539,7.7046,7.7477,7.7323,7.64,7.6554,7.6277,7.5384,7.5138,7.4584,7.366,0.0,0.0,0.0,0.0,0.0,0.0,0.0,0.0,0.0,0.0,0.0,0.0,0.0,0.0,0.0,0.0,0.0,0.0,0.0,0.0,0.0,0.0,0.0,6.2979,6.4672,6.5719,6.5103,6.7319,6.8427,6.7165,6.9413,7.0675,7.0028,7.0613,7.1013,7.1044,7.2306,7.3045,7.3045,7.4307,7.5015,7.5015,7.5015,7.5015,7.5076,7.5046,7.5046,7.5076,7.5076,7.5415,7.6031,7.6031,7.68,7.7939,7.7293,7.7416,7.7662,7.4368,7.3476,7.4091,7.403,7.403,7.4153,7.483,7.5076,7.5076,7.5076,7.5046,7.5015,7.5015,7.5015,7.5015,7.5015,7.5015,7.5015,7.5015,7.5076,7.5076,7.5076,7.56,7.6092,7.6092,7.6585,7.7046,7.7016,7.5969,7.5076,7.5076,7.5076,7.5507,7.6831,7.6461,0.0,7.7816,7.7416,7.7016,7.7046,7.7046,7.7046,7.7046,7.8308,7.8493,7.7108,7.8278,7.8432,7.7077,7.7662,7.8001,7.797,7.7354,7.6369,7.5046,0.0,0.0,0.0,0.0,0.0,0.0,0.0,0.0,0.0,0.0,0.0,0.0,0.0,0.0,0.0,0.0,0.0,0.0,0.0,0.0,0.0,0.0,6.4549,6.4364,6.6088,6.7473,6.775,6.8858,6.9659,6.9782,7.0952,7.1813,7.2121,7.2768,7.3353,7.3845,7.4245,7.4461,7.4461,7.4799,7.523,7.5723,7.523,7.5507,7.6461,7.5969,7.6,7.6461,7.6461,7.6554,7.6739,7.6739,7.6954,7.7293,7.7108,7.7139,7.7169,7.5723,7.56,7.6061,7.5076,7.5046,7.5569,7.6215,7.6461,7.6461,7.6461,7.6123,7.5723,7.5723,7.5384,7.5015,7.5015,7.5353,7.5723,7.5723,7.6461,7.72,7.72,7.7724,7.8093,7.76,7.7631,7.76,7.7108,7.6708,7.6461,7.6461,7.6461,7.6585,7.6954,7.6862,0.0,7.7262,7.6708,7.6677,7.7662,7.7754,7.7754,7.7754,7.8555,7.8462,7.7108,7.7385,7.7416,7.7046,7.72,7.7077,7.6585,7.6862,7.6585,0.0,0.0,0.0,0.0,0.0,0.0,0.0,0.0,0.0,0.0,0.0,0.0,0.0,0.0,0.0,0.0,0.0,0.0,0.0,0.0,0.0,0.0,6.5934,6.6673,6.695,6.7997,6.8982,6.9659,7.0336,7.1044,7.1721,7.2398,7.3106,7.3783,7.4184,7.4584,7.4984,7.5261,7.5415,7.5415,7.5969,7.6338,7.6431,7.6338,7.6523,7.7016,7.6615,7.6646,7.7016,7.7016,7.7016,7.7016,7.7016,7.7169,7.7416,7.7139,7.72,0.0,0.0,0.0,0.0,0.0,7.6092,7.6492,7.6892,7.7016,7.7016,7.7016,7.6769,7.6431,7.6431,7.6338,7.6277,7.6277,7.6769,7.7293,7.7293,7.7877,7.8493,7.8493,7.8555,7.8524,7.8124,7.7816,7.7477,7.7108,7.7262,0.0,7.7447,7.72,7.7108,7.7416,7.7447,7.7539,7.7847,7.7539,7.76,7.8401,7.8493,7.8493,7.8493,7.9355,0.0,0.0,0.0,7.8462,7.7908,7.8154,0.0,0.0,0.0,0.0,0.0,0.0,0.0,0.0,7.5292,7.5199,0.0,0.0,0.0,0.0,0.0,0.0,0.0,0.0,0.0,0.0,0.0,0.0,0.0,0.0,0.0,0.0,6.8243,6.9289,7.012,7.0244,7.0459,7.1075,7.1752,7.246,7.3137,7.3753,7.4399,7.5076,7.5107,7.5138,7.523,0.0,0.0,0.0,0.0,7.7693,7.7016,7.7539,7.7539,7.7016,7.6954,7.6954,7.7016,7.7016,7.7016,7.7016,7.7016,7.7416,7.797,7.7385,7.7539,7.8062,7.7323,7.7016,7.7016,7.7108,7.7139,7.7139,7.7231,0.0,0.0,7.7262,7.7262,7.7262,7.7262,7.7662,7.8154,7.8154,7.8616,7.9109,7.9109,7.917,7.9201,7.9201,7.877,7.8339,7.8278,7.7785,7.7354,7.7262,7.7724,7.8154,7.8154,7.7662,7.7447,7.8062,7.8154,7.837,7.9016,7.9109,7.917,7.9293,0.0,0.0,7.9324,8.0402,8.0494,7.917,8.0217,8.0309,7.9139,7.9663,7.9417,7.8185,7.877,7.8493,7.7262,7.7262,7.7262,7.7262,7.7077,7.7016,0.0,0.0,0.0,0.0,0.0,0.0,0.0,0.0,0.0,0.0,0.0,0.0,0.0,0.0,0.0,6.9012,6.9536,7.0336,7.2121,7.2398,7.2429,7.2552,7.3199,7.3876,7.4553,7.4738,7.5076,7.5754,7.5815,7.6061,7.6585,7.7262,7.7385,7.6831,7.76,7.7693,7.7016,7.6615,7.6615,7.7016,0.0,0.0,7.7016,7.7016,7.7016,7.7016,7.7016,7.7416,7.8031,7.7877,7.8247,7.877,7.7508,7.7016,7.7077,7.7631,7.7847,7.7908,7.8493,7.8709,7.8709,7.8709,7.8709,7.8709,7.8709,7.877,0.0,7.8893,7.8986,7.9109,7.9109,7.9509,7.9909,7.9909,8.0217,8.034,7.9817,7.9601,7.9355,7.8801,7.8801,7.8893,7.8893,7.877,7.8739,7.8862,7.8893,7.8955,7.9078,7.9109,7.9509,8.0586,8.0679,8.0679,8.0679,8.0925,8.0494,7.917,7.9324,7.9355,7.9109,7.9232,7.917,7.8893,7.9047,7.8986,7.8709,7.8709,7.8709,7.8678,7.7539,7.7016,0.0,0.0,0.0,0.0,0.0,0.0,0.0,0.0,0.0,0.0,0.0,6.6427,0.0,0.0,6.8951,7.0644,7.1229,7.1906,7.3291,7.3783,7.3999,7.3999,7.4307,7.4769,7.5446,7.5507,7.5784,7.6461,7.6831,7.7169,7.7508,7.7847,7.7877,7.7539,7.7847,7.7693,7.7016,7.7016,7.7016,7.7016,7.7016,7.72,7.7539,7.7908,7.8062,7.8062,7.8062,7.8247,7.8555,7.8555,7.877,7.9047,7.8339,7.8062,7.8093,7.8432,7.8555,7.8616,7.8986,7.9109,7.9109,7.9109,7.9109,7.9109,7.9109,7.9324,7.9601,7.9601,7.9847,8.0094,8.0094,8.034,8.0586,8.0586,8.0586,8.0494,8.0186,7.9847,7.9509,7.917,7.9386,7.9601,7.9601,7.9878,7.9847,7.9201,7.9386,7.9601,7.9601,7.9878,8.034,8.1017,8.1079,8.1079,8.1079,8.1079,8.0802,8.0124,8.0094,7.994,7.9601,7.9601,7.9447,7.9109,7.9109,7.9109,7.9109,7.9109,7.9109,7.9078,7.8401,7.8062,0.0,0.0,0.0,0.0,0.0,0.0,0.0,0.0,6.5503,6.7319,6.7689,6.8274,7.0151,7.049,7.0952,7.2337,7.3014,7.3599,7.4276,7.4861,7.523,7.5384,7.5261,7.5476,7.6154,7.6338,7.6615,7.7169,7.7724,7.8031,7.8031,7.8031,7.797,7.7847,7.797,7.7754,7.7231,7.7754,7.7816,7.7416,7.797,7.8247,7.8247,7.8832,7.9109,7.9109,7.9232,7.9293,7.9293,7.9417,7.9478,7.9478,7.9478,7.9478,7.9478,7.9355,7.9293,7.9324,7.9447,7.9478,7.9478,7.9478,7.9478,7.9478,7.9478,7.9878,8.0309,8.0463,8.0863,8.1294,8.1417,8.1448,8.1448,8.1448,8.0956,8.0494,8.0494,7.9971,7.9478,7.9478,7.9909,8.0309,8.0309,8.074,8.0709,7.9632,7.994,8.0309,8.0309,8.074,8.1079,8.1079,8.1079,8.1079,8.1079,8.1079,8.1079,8.1079,8.1079,8.0832,8.0309,8.0309,8.0032,7.9509,7.9478,7.9478,7.9478,7.9478,7.9478,7.9478,7.9478,7.9355,6.3256,0.0,0.0,6.4518,6.5565,6.6796,0.0,0.0,6.9443,7.0274,7.0459,7.089,7.2368,7.2645,7.3076,7.4461,7.4738,7.5015,7.5692,7.5846,7.6123,7.6739,7.6277,7.6154,7.6831,7.7447,7.7847,7.7908,7.8001,7.8031,7.8031,7.8031,7.7754,7.7139,7.7724,7.8001,7.7908,7.8001,7.8308,7.8862,7.8955,7.8986,7.8986,7.9047,7.9109,7.9139,7.9724,8.0001,8.0032,8.0617,8.0863,8.0863,8.0863,8.0863,8.0771,8.0217,8.0001,8.0063,8.0648,8.0863,8.0863,8.0863,8.0863,8.0863,8.0863,8.0894,8.1079,8.1694,8.191,8.2095,8.271,8.2864,8.2864,8.2864,8.2341,8.1848,8.1848,8.1325,8.0863,8.0863,8.0925,8.0956,8.0956,8.1017,8.1017,8.0863,8.0925,8.0956,8.0956,8.1017,8.1079,8.1079,8.1079,8.1079,8.1079,8.1079,8.1079,8.1079,8.1079,8.1048,8.0956,8.0956,8.0925,8.0863,8.0863,8.0863,8.0863,8.0863,8.0863,8.0863,8.0863,8.0217,6.5811,0.0,0.0,0.0,6.8243,6.8797,6.9351,6.969,7.0305,7.1813,7.2121,7.2521,7.3907,7.4153,7.4338,0.0,7.5323,7.5815,7.6492,7.6923,7.7447,7.8154,7.797,7.76,7.7077,7.7631,7.7877,7.7477,7.7816,7.8031,7.8031,7.8031,7.8093,7.8216,7.8093,7.8247,7.8647,7.8647,7.8801,7.9109,7.9509,7.9694,7.9694,8.0094,8.0248,8.0278,8.0555,8.0679,8.0679,8.0956,8.1079,8.1079,8.1079,8.1079,8.1048,8.0771,8.0679,8.0709,8.0986,8.1079,8.114,8.154,8.1664,8.1725,8.2125,8.2248,8.231,8.2587,8.2679,8.2741,8.3018,8.308,8.2987,8.2587,8.2279,8.1971,8.1571,8.1263,8.1079,8.1079,8.1079,8.1079,8.1079,8.1079,8.1079,8.1079,8.1079,8.1079,8.1079,8.1079,8.1233,8.1602,8.1664,8.1817,8.2218,8.2248,8.2248,8.2248,8.2248,8.2248,8.2248,8.2248,8.2248,8.2248,8.2248,8.2248,8.2248,8.2248,8.2248,8.2248,8.2248,8.1941,6.7473,0.0,0.0,6.9474,7.0182,7.0521,7.0705,7.089,7.1567,7.3445,7.366,7.3968,7.5292,7.5415,7.5415,7.5784,7.6246,7.68,7.7508,7.8031,7.8524,7.9047,7.9109,7.8616,7.7416,7.7908,7.8031,7.7354,7.7754,7.8031,7.8031,7.8031,7.8278,7.8801,7.8493,7.8678,7.9386,7.9386,7.9478,7.9663,8.0124,8.0371,8.0402,8.0863,8.1079,8.1079,8.1079,8.1079,8.1079,8.1263,8.1356,8.1356,8.154,8.1633,8.1633,8.1633,8.151,8.1387,8.1571,8.1633,8.1694,8.2187,8.2372,8.2464,8.2926,8.308,8.3141,8.3326,8.3357,8.3418,8.3603,8.3634,8.351,8.3018,8.2618,8.2218,8.1725,8.1325,8.1079,8.1079,8.1233,8.1356,8.1356,8.151,8.1633,8.1633,8.1633,8.1571,8.1387,8.151,8.1817,8.231,8.2372,8.2556,8.3049,8.308,8.308,8.308,8.308,8.308,8.308,8.308,8.308,8.308,8.308,8.308,8.308,8.308,8.308,8.308,8.308,8.308,0.0,0.0,6.9012,6.972,7.0921,7.2091,7.2737,7.3383,7.4245,7.563,7.5384,7.5353,7.6708,7.6431,7.64,7.7724,7.797,7.8216,7.8924,7.9047,7.9078,7.9109,7.9109,7.8801,0.0,7.8647,7.877,7.8062,7.8031,7.8031,7.8031,7.8031,7.8031,7.8062,7.8709,7.9386,8.0063,8.0094,8.0402,8.1017,8.1017,8.1048,8.1048,8.1048,8.1079,8.1079,8.1079,8.1079,8.111,8.1787,8.2064,8.2125,8.2772,8.3018,8.3018,8.3018,8.2618,8.2125,8.2803,8.3018,8.3018,8.3049,8.3049,8.3049,8.308,8.308,8.3233,8.388,8.4065,8.4218,8.4865,8.505,8.505,8.5019,8.4003,8.3049,8.3018,8.2002,8.1079,8.1079,8.1602,8.2064,8.2064,8.2587,8.3018,8.3018,8.3018,8.2772,8.2125,8.2618,8.3049,8.3049,8.3049,8.308,8.308,8.308,8.308,8.308,8.308,8.308,8.308,8.308,8.308,8.308,8.308,8.308,8.308,8.308,8.308,8.308,8.308,8.308,0.0,0.0,7.0613,7.2214,7.2952,7.3476,7.4153,7.4491,7.4922,7.5815,7.5846,7.5938,7.6862,7.72,7.7508,7.797,7.8432,7.8986,7.9663,7.9755,7.9755,7.9755,7.9755,0.0,0.0,0.0,0.0,7.7416,7.7785,7.8031,7.8031,7.8493,7.8955,7.9386,7.9632,8.0094,8.074,8.074,8.0863,8.1079,8.1079,8.1079,8.1079,8.1079,8.1325,8.1725,8.1725,8.2002,8.2433,8.2649,8.2741,8.2772,8.2987,8.308,8.3141,8.3603,8.3603,8.3387,8.3172,8.308,8.3172,8.3603,8.3757,8.3849,8.428,8.4434,8.4465,8.4711,8.4773,8.4834,8.505,8.5111,8.4896,8.3972,8.3418,8.2833,8.1941,8.1756,8.1725,8.1725,8.2279,8.2895,8.3326,8.3603,8.4065,8.4957,8.4342,8.351,8.2833,8.3326,8.3757,8.3757,8.3757,8.3941,8.4403,8.4434,8.4434,8.4434,8.4434,8.4434,8.4434,8.4434,8.4434,8.4434,8.4434,8.4434,8.4434,8.4434,8.4434,8.4434,8.4434,8.4434,0.0,7.1475,7.2029,7.3599,7.4184,7.4522,7.5199,7.5353,7.563,7.6554,7.6523,7.6585,7.7262,7.7724,7.8124,7.837,7.9016,7.9601,8.0032,8.0094,8.0032,7.9786,7.9509,7.9109,0.0,0.0,0.0,7.7416,7.8031,7.8401,7.8401,7.9078,7.9663,8.0094,8.034,8.0648,8.1079,8.1079,8.1079,8.1079,8.1079,8.1079,8.1079,8.1325,8.1664,8.2095,8.2341,8.2679,8.311,8.3357,8.3449,8.348,8.3726,8.3818,8.3849,8.4311,8.4465,8.4403,8.3941,8.3818,8.388,8.4311,8.4465,8.4526,8.4988,8.5111,8.5111,8.5111,8.5111,8.5111,8.5111,8.5111,8.4896,8.4003,8.3634,8.3203,8.2341,8.2495,8.2803,8.2803,8.3541,8.4311,8.4742,8.5019,8.548,8.6373,8.5973,8.5327,8.4649,8.4926,8.5111,8.4834,8.4803,8.4896,8.508,8.5111,8.5111,8.5111,8.5111,8.5111,8.5111,8.5111,8.5111,8.5111,8.5111,8.5111,8.5111,8.5111,8.5111,8.5111,8.5111,8.5111,7.1721,7.2552,7.3199,7.3907,7.4584,7.523,7.5907,7.6061,7.6431,7.7724,7.7477,7.7231,0.0,0.0,7.8308,7.9047,7.9724,8.0155,8.0094,8.0094,7.9847,0.0,0.0,0.0,0.0,0.0,0.0,7.8124,0.0,7.9139,7.9139,7.9786,8.0155,8.0155,8.074,8.1079,8.1079,8.1079,8.1079,8.1079,8.1079,8.1079,8.114,8.1787,8.2125,8.2218,8.2864,8.3172,8.3233,8.388,8.4157,8.4218,8.4865,8.5111,8.5111,8.5111,8.5111,8.5111,8.5111,8.5111,8.5111,8.5111,8.5111,8.5111,8.5111,8.5111,8.5111,8.5111,8.508,8.505,8.505,8.505,8.505,8.505,8.4588,8.4157,8.4157,8.4188,8.4188,8.4188,8.5296,8.6219,8.6219,8.6804,8.7297,8.7297,8.7851,8.8005,8.7266,8.7204,8.6958,8.625,8.6158,8.5881,8.5203,8.5142,8.5142,8.5111,8.5111,8.5111,8.5111,8.5111,8.5111,8.5111,8.5111,8.5111,8.5111,8.5111,8.5111,8.5111,8.5142,8.5142,7.326,7.3599,7.403,7.5199,7.563,7.5938,7.6615,7.6769,7.6862,7.72,7.7139,7.7231,0.0,0.0,0.0,7.9724,8.0402,0.0,8.0186,8.0094,0.0,0.0,0.0,7.8893,7.9078,7.9386,0.0,0.0,7.9755,7.9847,7.9847,8.0463,8.0832,8.0832,8.0986,8.1079,8.1079,8.1079,8.1079,8.1079,8.1079,8.1325,8.1817,8.2002,8.2649,8.3603,8.3757,8.4126,8.4588,8.4773,8.4865,8.4865,8.505,8.5111,8.5111,8.5111,8.5111,8.5111,8.5111,8.5111,8.5111,8.5111,8.5111,8.5111,8.5111,8.5111,8.5111,8.5111,8.4742,8.4342,8.4342,8.4342,8.4342,8.4342,8.4619,8.4865,8.4865,8.5234,8.5604,8.5604,8.6712,8.7666,8.7666,8.822,8.8682,8.8682,8.8836,8.8528,8.7327,8.7635,8.7666,8.6989,8.6927,8.6619,8.5911,8.585,8.5634,8.5142,8.5111,8.5111,8.5111,8.5111,8.5111,8.5111,8.5111,8.5111,8.5111,8.5111,8.5111,8.5111,8.5634,8.585,7.3907,7.443,7.5076,7.5815,7.6246,7.6554,7.6923,7.7016,7.7016,7.7016,7.7016,0.0,0.0,0.0,0.0,0.0,0.0,0.0,8.0186,7.9847,7.954,0.0,7.8832,0.0,7.9478,7.9878,8.0217,0.0,8.0525,8.0525,8.0525,8.0863,8.1079,8.1079,8.1079,8.1079,8.1079,8.1079,8.1079,8.1079,8.1387,8.1725,8.2095,8.271,8.3387,8.4126,0.0,8.4742,8.5111,8.5111,8.5111,8.5111,8.5111,8.5111,8.5111,8.5111,8.5111,8.508,8.4773,8.4649,8.4711,8.5019,8.4896,8.4649,8.4649,8.4465,8.4218,8.4218,8.4157,8.4157,8.4465,8.4773,8.505,8.5388,8.5758,8.6004,8.6004,8.6558,8.7112,8.742,8.8097,8.8651,8.8651,8.8959,8.9205,8.9205,8.9205,8.8928,8.8159,8.8405,8.8374,8.7697,8.7635,8.7327,8.665,8.6589,8.6435,8.6035,8.6004,8.5881,8.5573,8.5542,8.5542,8.5542,8.5265,8.5419,8.6004,8.5696,8.5727,8.6035,8.6404,8.6589,7.4214,7.5107,7.6031,7.6123,7.6585,7.7016,7.7016,7.7016,7.7016,7.7016,0.0,7.7262,7.8031,0.0,7.9324,8.0001,0.0,8.0679,7.994,7.9324,7.8986,7.9078,7.8555,7.8709,8.0094,8.0248,8.0463,8.1017,8.1079,8.1079,8.1079,8.1079,8.1079,8.1079,8.1079,8.1079,8.1079,8.1171,8.1202,8.1202,8.1879,8.2248,8.2372,8.3572,8.4157,8.428,8.4865,8.5111,8.5111,8.5111,8.5111,8.5111,8.5111,8.5111,8.508,8.5019,8.4957,8.4865,8.4188,8.3972,8.4065,8.4649,8.4434,8.3972,8.4065,8.3757,8.3387,8.3449,8.3911,8.4495,8.508,8.5665,8.6312,8.702,8.7266,8.7358,8.7451,8.7912,8.8497,8.9082,8.9205,8.9205,8.9205,8.9205,8.9205,8.9205,8.9205,8.9205,8.9205,8.9205,8.899,8.8405,8.8343,8.8066,8.7389,8.7327,8.7266,8.7204,8.7173,8.6896,8.6281,8.625,8.625,8.625,8.5665,8.5973,8.7173,8.6558,8.6589,8.7173,8.7266,8.7327,7.5353,7.5846,7.6154,7.6708,7.6923,7.7016,7.7016,7.7016,0.0,0.0,0.0,7.7416,7.8678,7.9016,0.0,8.0001,0.0,0.0,0.0,0.0,7.8432,0.0,0.0,0.0,0.0,0.0,0.0,0.0,0.0,8.1079,8.1079,8.1079,8.1079,8.1079,8.1079,8.1079,8.1079,8.1633,8.191,8.191,8.2587,8.3203,8.3757,8.4003,8.4403,8.4926,8.505,0.0,8.5111,8.5111,8.5111,8.5111,8.5111,8.5111,8.505,8.4465,8.428,8.4188,8.351,8.3264,8.3264,8.3387,8.3357,8.3357,8.3941,8.4403,8.4865,8.5419,8.5665,8.5788,8.5911,8.6035,8.6312,8.702,8.7604,8.8159,8.8743,8.8959,8.9051,8.9174,8.9205,8.9205,8.9205,8.9205,8.9205,8.9205,8.9205,8.9205,8.9205,8.9205,8.9174,8.9051,8.902,8.8743,8.8066,8.8035,8.7789,8.7235,8.7173,8.7143,8.702,8.6989,8.6989,8.6989,8.6896,8.6958,8.7173,8.705,8.705,8.7204,8.7758,8.8035,7.5846,7.6277,7.6615,7.6954,7.7016,7.7016,7.7016,0.0,0.0,0.0,0.0,7.7323,7.837,0.0,0.0,0.0,0.0,0.0,0.0,0.0,0.0,0.0,0.0,0.0,0.0,0.0,0.0,0.0,0.0,8.1079,8.1079,8.1079,8.1079,8.1079,8.1079,8.1233,8.1602,8.191,8.2248,8.2618,8.3295,8.3788,8.4095,8.4465,8.4803,8.5111,8.5111,0.0,8.5111,8.5111,8.5111,8.508,8.4711,8.4588,8.4495,8.3818,8.4003,8.4526,8.3849,8.4065,8.4588,8.4249,8.388,8.3818,8.4834,8.5142,8.5173,8.5511,8.585,8.6188,8.6558,8.6927,8.7389,8.8066,8.8497,8.8805,8.9144,8.9205,8.9205,8.9205,8.9205,8.9205,8.9205,8.9205,8.9205,8.9205,8.9205,8.9205,8.9205,8.9513,8.9605,8.9236,8.9513,8.9605,8.9267,8.9574,8.9636,8.9297,8.9297,8.9144,8.8774,8.8774,8.8589,8.8251,8.7881,8.7881,8.822,8.7881,8.7881,8.8251,8.8559,8.8713,7.6154,7.6615,7.7016,7.7016,7.7016,7.7016,7.7016,7.7016,0.0,0.0,7.7016,7.7231,7.7908,0.0,0.0,0.0,0.0,0.0,0.0,0.0,0.0,0.0,0.0,0.0,0.0,0.0,0.0,0.0,0.0,0.0,8.1079,8.1079,8.1079,8.1079,8.1202,8.154,8.2064,8.2372,8.2772,8.3326,8.4003,8.4311,8.4342,8.4865,8.5111,8.5111,8.5111,8.5111,0.0,8.4957,8.4896,8.4834,8.4157,8.4065,8.4218,8.3541,8.4157,8.5234,8.4557,8.5019,8.585,8.5634,8.4988,8.4526,8.5758,8.585,8.5573,8.5727,8.625,8.6896,8.7481,8.8005,8.8559,8.9082,8.9205,8.9205,8.9205,8.9205,8.9205,8.9205,8.9205,8.9205,8.9205,8.9205,8.9205,8.9205,8.9328,8.9421,8.9421,9.0005,9.0221,8.9698,9.0098,9.0436,9.0436,9.0929,9.1237,9.1237,9.1237,9.099,9.0467,9.0436,9.019,8.9636,8.9113,8.9113,8.9636,8.9113,8.9113,8.9636,8.9636,8.9636,7.6585,7.6954,7.7016,7.7016,7.7016,7.7016,7.7016,0.0,0.0,7.7016,7.7016,7.7231,7.7908,0.0,0.0,0.0,0.0,7.9201,0.0,0.0,0.0,0.0,0.0,0.0,0.0,0.0,0.0,0.0,0.0,0.0,8.1079,8.1079,8.1079,8.1079,8.1664,8.2002,8.2064,8.3295,8.3941,8.4003,8.468,8.5019,8.5019,8.508,8.5111,8.5111,8.5111,8.5111,0.0,8.4434,8.4188,8.4126,8.3449,8.3941,8.4926,8.4249,8.4865,8.5911,8.5234,8.508,8.5388,8.6589,8.6096,8.5142,8.5881,8.6527,8.7112,8.7728,8.8405,8.8928,8.899,8.9051,8.9113,8.9205,8.9205,8.9205,8.9205,8.9205,8.9205,8.9205,8.9205,8.9205,8.9205,8.9205,8.9205,8.9205,8.9728,9.0129,9.0129,9.0713,9.1114,9.1052,9.1083,9.1144,9.1144,9.1175,9.1237,9.1237,9.1237,9.1206,9.1144,9.1144,9.1114,9.1052,9.099,9.096,9.1052,9.096,9.099,9.1052,9.1052,9.1052,7.6769,7.7016,7.7016,7.7016,7.7016,7.7016,7.7016,0.0,0.0,7.7016,7.7016,7.7108,7.7385,0.0,0.0,0.0,0.0,0.0,0.0,0.0,0.0,0.0,0.0,0.0,0.0,0.0,0.0,0.0,0.0,0.0,8.1664,8.1664,8.1664,8.1664,8.2341,8.2895,8.3295,8.3818,8.4311,8.4711,8.4988,8.5111,8.5111,8.5111,8.5111,8.508,8.468,8.4495,0.0,8.3757,8.3726,8.4065,8.3788,8.428,8.508,8.4803,8.5573,8.6712,8.6466,8.6896,8.7666,8.822,8.8035,8.7635,8.7881,8.8159,8.8466,8.8743,8.899,8.9205,8.9205,8.9205,8.9205,8.9205,8.9205,8.9205,8.9205,8.9205,8.9205,8.9205,8.9205,8.9205,8.9205,8.9544,8.9821,8.9821,9.0375,9.0806,9.0806,9.1421,9.1822,9.1822,9.1822,9.1822,9.1822,9.2191,9.2406,9.2406,9.2406,9.2406,9.2406,9.2406,9.2222,9.1852,9.1822,9.1637,9.1237,9.1237,9.1237,9.1237,9.1237,9.1237,7.6769,7.7016,7.7016,7.7016,7.6862,7.6769,0.0,0.0,0.0,7.6985,7.7016,7.7016,7.7016,7.8154,7.9109,0.0,0.0,7.9417,7.9417,0.0,0.0,0.0,0.0,0.0,0.0,0.0,0.0,0.0,0.0,0.0,8.2372,8.2556,8.2587,8.2372,8.3049,8.3603,8.4095,8.4311,8.4649,8.5111,8.5111,8.5111,8.5111,8.5111,8.4988,8.4773,8.4311,8.3972,0.0,8.3295,8.348,8.4095,8.4095,8.4773,8.5727,8.5727,8.6589,8.7789,8.7789,8.8405,8.9205,8.9205,8.9205,8.9205,8.9205,8.9205,8.9205,8.9205,8.9205,8.9205,8.9205,8.9205,8.9205,8.9205,8.9205,8.9205,8.9205,8.9205,8.9205,8.9205,8.9359,8.9513,8.9513,9.0067,9.0529,9.0529,9.1083,9.1514,9.1514,9.2099,9.2529,9.2529,9.2529,9.2529,9.2529,9.293,9.3207,9.3207,9.3207,9.3207,9.3207,9.3207,9.2991,9.2529,9.2529,9.2283,9.1791,9.1791,9.1791,9.1791,9.1791,9.1791,7.6646,7.7016,7.7016,7.7016,7.6523,7.6184,0.0,0.0,0.0,7.6892,7.7016,7.7016,7.7016,7.8154,7.9109,7.9109,7.9663,0.0,8.0094,0.0,0.0,0.0,0.0,0.0,0.0,0.0,0.0,0.0,0.0,0.0,8.3049,8.3695,8.3757,8.311,8.3726,8.4095,8.4095,8.4773,8.508,8.5111,8.5111,8.5111,8.5111,8.5111,8.4742,8.4095,8.4095,8.3726,0.0,8.308,8.348,8.4095,8.4095,8.5357,8.7173,8.7173,8.8035,8.9174,8.9174,8.9205,8.9205,8.9205,8.9205,8.9205,8.9205,8.9205,8.9205,8.9205,8.9205,8.9205,8.9205,8.9205,8.9205,8.9205,8.9205,8.9205,8.9205,8.9205,8.9205,8.9205,8.9759,9.019,9.019,9.0775,9.1206,9.1206,9.1791,9.2222,9.2222,9.2776,9.3176,9.3176,9.3176,9.3176,9.3176,9.3207,9.3207,9.3207,9.3207,9.3207,9.3207,9.3207,9.3207,9.3176,9.3176,9.3176,9.3176,9.3176,9.3176,9.3176,9.3176,9.3176,7.6646,7.7016,7.6892,7.6431,7.6523,7.6646,7.64,0.0,0.0,7.6892,7.6646,7.6461,7.6923,7.8154,7.9109,7.9109,7.9293,0.0,0.0,0.0,0.0,0.0,0.0,0.0,0.0,0.0,0.0,0.0,0.0,0.0,8.3757,8.4434,8.4465,8.3788,8.4434,8.4773,8.4773,8.4988,8.5111,8.5111,8.5111,8.5111,8.508,8.4619,8.4311,8.4065,8.3603,8.3541,8.3788,8.3788,8.4465,8.5542,8.6004,8.6896,8.7943,8.8405,8.8836,8.9205,8.9205,8.9205,8.9205,8.9205,8.9205,8.9205,8.9205,8.9205,8.9205,8.9205,8.9205,8.9205,8.9205,8.9205,8.9205,8.9205,8.9205,8.9205,8.9205,8.9574,8.9882,8.9882,9.0436,9.0898,9.0898,9.1452,9.1914,9.1914,9.2468,9.2899,9.2899,9.3053,9.3207,9.3207,9.3207,9.3207,9.3207,9.3207,9.3207,9.3207,9.3207,9.3207,9.3207,9.3207,9.3207,9.3207,9.3207,9.3207,9.3207,9.3207,9.3207,9.3207,9.3207,9.3207,7.6277,7.6831,7.6923,7.6492,7.6523,7.6585,0.0,0.0,0.0,0.0,0.0,7.6308,7.7231,7.8308,7.917,7.9447,7.9694,0.0,0.0,0.0,0.0,0.0,0.0,0.0,0.0,0.0,0.0,0.0,0.0,0.0,8.4465,8.4865,8.4926,8.4495,8.4896,8.5111,8.5111,8.5111,8.5111,8.5111,8.5111,8.4957,8.4711,8.428,8.3941,8.3695,8.3541,8.3695,0.0,8.4649,8.5511,8.6589,8.7297,8.7974,8.862,8.9051,8.9205,8.9205,8.9205,8.9205,8.9205,8.9205,8.9205,8.9205,8.9205,8.9205,8.9205,8.9205,8.9205,8.9205,8.9205,8.9205,8.9205,8.9205,8.939,8.9574,8.9574,9.0098,9.059,9.059,9.1144,9.1606,9.1606,9.216,9.2591,9.2591,9.293,9.3207,9.3207,9.3207,9.3207,9.3207,9.3207,9.3207,9.3207,9.3207,9.3207,9.3207,9.3207,9.3207,9.3207,9.3207,9.3207,9.3207,9.3207,9.3207,9.3207,9.3207,9.3207,9.3207,9.3207,9.3207,0.0,7.6369,7.7016,7.6954,7.6523,7.6246,7.6831,0.0,0.0,0.0,0.0,0.0,7.7785,7.8616,7.9324,8.0001,8.0617,0.0,0.0,0.0,0.0,0.0,0.0,0.0,0.0,0.0,0.0,0.0,0.0,0.0,8.508,8.5111,8.5111,8.5111,8.5111,8.5111,8.5111,8.5111,8.5111,8.5111,8.505,8.4711,8.4095,8.4034,8.3695,0.0,8.388,8.4218,0.0,8.5727,8.6681,8.7389,8.8035,8.8651,8.9205,8.9205,8.9205,8.9205,8.9205,8.9205,8.9205,8.9205,8.9205,8.9205,8.9205,8.9205,8.9205,8.9205,8.9205,8.9205,8.9205,8.9205,8.9205,8.9267,8.9759,9.0221,9.0282,9.0806,9.1298,9.1298,9.1852,9.2314,9.2314,9.2807,9.3176,9.3145,9.3114,9.3114,9.3114,9.3084,9.3084,9.3176,9.3145,9.3145,9.3207,9.3207,9.3207,9.3207,9.3207,9.3207,9.3207,9.3207,9.3207,9.3207,9.3207,9.3207,9.3207,9.3207,9.3207,9.3207,9.3207,9.3207,7.2983,0.0,7.6892,7.6369,7.6523,7.6677,0.0,0.0,0.0,0.0,0.0,0.0,0.0,7.9016,7.9909,8.0094,8.0248,0.0,0.0,0.0,0.0,0.0,0.0,0.0,0.0,0.0,0.0,0.0,0.0,8.4926,8.508,8.5111,8.5111,8.5111,8.5111,8.5111,8.5111,8.5111,8.5111,8.5111,8.4588,8.4249,8.4065,8.3572,8.351,8.388,8.4588,8.548,8.6527,8.7358,8.8097,8.8743,8.8897,8.9051,8.9205,8.9205,8.9205,8.9205,8.9205,8.9205,8.9205,8.9205,8.9205,8.9205,8.9205,8.9205,8.9205,8.9205,8.9205,8.9205,8.9205,8.9205,8.9328,8.9851,9.0098,9.0344,9.0867,9.1514,9.1975,9.1975,9.2529,9.296,9.296,9.3084,9.3022,9.2529,9.2468,9.2468,9.2468,9.2006,9.2068,9.3084,9.2745,9.2653,9.3145,9.3207,9.3207,9.3207,9.3207,9.3207,9.3207,9.3207,9.3207,9.3207,9.3207,9.3207,9.3207,9.3207,9.3207,9.3207,9.3207,9.3207,7.1998,7.3999,7.6,7.563,7.6061,7.6461,7.6092,0.0,0.0,0.0,0.0,0.0,0.0,0.0,0.0,0.0,8.0309,0.0,0.0,0.0,0.0,0.0,0.0,0.0,0.0,0.0,0.0,0.0,0.0,8.5111,8.5111,8.5111,8.5111,8.5111,8.5111,8.5111,8.5111,8.5111,8.4957,8.4649,8.428,8.3941,8.3634,8.3572,8.3911,8.4619,8.5634,8.665,8.7697,8.8374,8.8866,8.9205,8.9205,8.9205,8.9205,8.9205,8.9205,8.9205,8.9205,8.9205,8.9205,8.9205,8.9205,8.9205,8.9205,8.9205,8.9205,8.9205,8.9205,8.9267,8.9574,8.9667,8.9851,9.0529,9.0929,9.1237,9.1606,9.2191,9.2683,9.2683,9.296,9.3084,9.2807,9.2991,9.296,9.2314,9.2222,9.2222,9.2222,9.1637,9.1483,9.2222,9.2252,9.2252,9.2283,9.2837,9.3207,9.3207,9.3207,9.3207,9.3207,9.3207,9.3207,9.3207,9.3207,9.3207,9.3207,9.3207,9.3207,9.3207,9.3207,9.3207,7.1352,7.3076,7.4707,7.483,7.5353,7.5877,7.6,0.0,0.0,0.0,0.0,0.0,0.0,0.0,0.0,0.0,0.0,0.0,0.0,0.0,0.0,0.0,0.0,0.0,0.0,0.0,0.0,0.0,0.0,8.5111,8.5111,8.5111,8.5111,8.5111,8.5111,8.5111,8.5111,8.5019,8.4649,8.4095,8.4003,8.3695,8.3264,8.3941,8.468,8.548,0.0,0.0,8.8405,8.8959,8.9205,8.9205,8.9205,8.9205,8.9205,8.9205,8.9205,8.9205,8.9205,8.9205,8.9205,8.9205,8.9205,8.9205,8.9205,8.9205,8.9236,8.9328,8.9359,8.9482,9.0067,9.0282,9.0529,9.1206,9.1822,9.2252,9.2345,9.2807,9.3207,9.3207,9.3114,9.2868,9.2314,9.2591,9.2683,9.2037,9.2006,9.2068,9.2068,9.1483,9.1175,9.1483,9.1852,9.1914,9.1544,9.256,9.3207,9.3207,9.3207,9.3207,9.3207,9.3207,9.3207,9.3207,9.3207,9.3145,9.3053,9.3145,9.3207,9.3207,9.3299,9.3422,6.9474,7.129,7.3414,7.3999,7.4645,7.5292,0.0,0.0,0.0,0.0,0.0,0.0,0.0,0.0,0.0,0.0,0.0,0.0,0.0,0.0,0.0,0.0,0.0,0.0,0.0,0.0,0.0,0.0,0.0,8.5111,8.5111,8.5111,8.5111,8.5111,8.5111,8.5111,8.5111,8.4526,8.4188,8.4095,8.351,8.348,8.3972,8.4649,8.5665,8.6896,0.0,8.8436,8.9051,8.9174,8.9205,8.9205,8.9205,8.9205,8.9205,8.9205,8.9205,8.9205,8.9205,8.9205,8.9205,8.9205,8.9205,8.9205,8.9205,8.9205,8.9328,8.9913,9.0067,9.0098,9.019,9.0652,9.1237,9.1914,9.216,9.2376,9.293,9.3114,9.3207,9.3207,9.2745,9.2345,9.2252,9.1822,9.1298,9.0621,9.1021,9.136,9.136,9.0775,9.1021,9.2714,9.1975,9.1791,9.2807,9.3084,9.3207,9.3207,9.3207,9.3207,9.3207,9.3207,9.3207,9.3207,9.3207,9.293,9.2376,9.293,9.3207,9.3207,9.3822,9.4407,6.8982,7.0613,7.2614,7.326,7.4522,0.0,0.0,0.0,0.0,0.0,0.0,0.0,0.0,0.0,0.0,0.0,0.0,0.0,0.0,0.0,0.0,0.0,0.0,0.0,0.0,0.0,0.0,0.0,0.0,0.0,8.5111,8.5111,8.5111,8.5111,8.5111,8.4926,8.4557,8.4249,8.4095,8.4095,8.3788,8.3972,8.468,8.5758,8.6773,8.7758,0.0,8.8928,8.9205,8.9205,8.9205,8.9205,8.9205,8.9205,8.9205,8.9205,8.9205,8.9205,8.9205,8.9205,8.9205,8.9205,8.9205,8.9205,8.9205,8.9451,8.9821,9.0129,9.0221,9.0375,9.1114,9.1544,9.1945,9.2591,9.2745,9.2837,9.3114,9.293,9.2683,9.2683,9.2129,9.1575,9.1206,9.1483,9.1544,9.0867,9.1021,9.1237,9.1237,9.0313,9.0005,9.0929,9.0806,9.0775,9.1021,9.2037,9.2807,9.3176,9.3207,9.3207,9.3207,9.3207,9.3207,9.3207,9.3576,9.3422,9.2745,9.3792,9.413,9.3792,9.4469,9.4961,6.9043,7.0644,7.246,7.3445,0.0,0.0,0.0,0.0,0.0,0.0,0.0,0.0,0.0,0.0,0.0,0.0,0.0,0.0,0.0,0.0,0.0,0.0,0.0,0.0,0.0,0.0,0.0,0.0,0.0,0.0,8.5111,8.5111,8.5111,8.5111,8.4957,8.4619,8.4095,8.4095,8.4095,8.4095,8.4249,8.4773,8.5634,8.6866,8.7789,8.8466,8.899,8.9205,8.9205,8.9205,8.9205,8.9205,8.9205,8.9205,8.9205,8.9205,8.9205,8.9205,8.9205,8.9205,8.9205,8.9205,8.9205,8.9236,8.939,8.979,9.0282,9.059,9.0683,9.0929,9.1975,9.2345,9.2591,9.3084,9.3084,9.296,9.296,9.2591,9.2191,9.2037,9.1575,9.1021,9.0344,9.0929,9.136,9.0837,9.0898,9.099,9.099,9.0098,8.9513,8.9667,9.0005,9.0067,8.9698,9.1237,9.2437,9.293,9.3114,9.3207,9.3207,9.3207,9.3268,9.3422,9.3976,9.4007,9.3453,9.4684,9.5023,9.453,9.5207,9.5608,6.9474,7.1352,7.3383,7.5323,0.0,0.0,0.0,0.0,0.0,0.0,0.0,0.0,0.0,0.0,0.0,0.0,0.0,0.0,0.0,0.0,0.0,0.0,0.0,0.0,0.0,0.0,0.0,0.0,0.0,0.0,8.5111,8.5111,8.5111,8.5111,8.4495,8.4157,8.4095,8.4095,8.4095,8.4095,8.4742,8.5727,8.705,8.7789,8.8497,8.9144,8.9174,8.9205,8.9205,8.9205,8.9205,8.9205,8.9205,8.9205,8.9205,8.9205,8.9205,8.9205,8.9205,8.9205,8.9205,8.9205,8.9205,8.9328,8.9944,9.0159,9.0467,9.1729,9.2099,9.2099,9.2191,9.2683,9.3145,9.3176,9.2745,9.2314,9.2314,9.2252,9.2037,9.1421,9.1267,9.1021,9.0344,8.9759,8.9421,8.9359,8.9882,9.0282,9.0282,9.019,9.0375,9.1021,9.0559,9.0436,9.1021,9.1791,9.2252,9.2314,9.2868,9.3207,9.3207,9.3207,9.3515,9.4161,9.4222,9.4222,9.4192,9.493,9.5238,9.5207,9.5885,9.6531,7.0151,7.2029,0.0,0.0,0.0,0.0,0.0,0.0,0.0,0.0,0.0,0.0,0.0,0.0,0.0,0.0,0.0,0.0,0.0,0.0,0.0,0.0,0.0,0.0,0.0,0.0,0.0,0.0,0.0,0.0,8.5111,8.5111,8.5111,8.5111,8.4465,8.4311,8.4711,8.4711,8.5173,8.6004,8.6281,8.6896,8.7851,8.8528,8.8959,8.9205,8.9205,8.9205,8.9205,8.9205,8.9205,8.9205,8.9205,8.9205,8.9205,8.9205,8.9205,8.9205,8.9205,8.9482,8.9821,8.9821,9.0098,9.0498,9.0775,9.1144,9.1575,9.2099,9.2529,9.2837,9.2837,9.3022,9.3084,9.2683,9.2406,9.2129,9.1698,9.1267,9.0898,9.0652,9.0252,8.9882,8.9636,8.9728,8.9821,8.9821,9.0036,9.0375,9.0775,9.0098,8.9851,9.0529,8.9975,9.0036,9.1144,9.1452,9.1945,9.2776,9.3053,9.3207,9.3207,9.3607,9.3976,9.4253,9.5084,9.53,9.49,9.5977,9.6316,9.5915,9.6593,9.7054,7.0828,7.2737,0.0,0.0,0.0,0.0,0.0,0.0,0.0,0.0,0.0,0.0,0.0,0.0,0.0,0.0,0.0,0.0,0.0,0.0,0.0,0.0,0.0,0.0,0.0,0.0,0.0,0.0,0.0,0.0,0.0,8.5111,8.5111,8.5111,8.4465,8.4434,8.508,8.5327,8.6035,8.7204,8.7604,8.8066,8.8528,8.899,8.9205,8.9205,8.9205,8.9205,8.9205,8.9205,8.9205,8.9205,8.9205,8.9205,8.9205,8.9205,8.9205,8.9205,8.9205,8.9636,9.0221,9.0221,9.0683,9.1267,9.1483,9.1852,9.2283,9.2468,9.2868,9.3145,9.293,9.2899,9.2776,9.2345,9.1914,9.1452,9.099,9.0529,9.0159,8.9944,8.9698,8.9451,8.9236,8.9759,9.0221,9.0221,9.0406,9.0621,9.0867,9.0098,8.9698,9.0159,8.979,8.9975,9.1114,9.1421,9.2006,9.3114,9.3391,9.3545,9.3545,9.4222,9.4684,9.49,9.5823,9.6162,9.5915,9.6839,9.7054,9.6623,9.7085,9.7301,7.1444,0.0,0.0,0.0,0.0,0.0,0.0,0.0,0.0,0.0,0.0,0.0,0.0,0.0,0.0,0.0,0.0,0.0,0.0,0.0,0.0,0.0,0.0,0.0,0.0,0.0,0.0,0.0,0.0,0.0,0.0,8.5111,8.5111,8.5111,8.4465,8.4434,8.5111,8.5788,8.6496,8.7235,8.8559,8.9205,8.9205,8.9205,8.9205,8.9205,8.9205,8.9205,8.9205,8.9205,8.9205,8.9205,8.9205,8.9205,8.9205,8.9205,8.9205,8.9205,8.9205,8.9667,9.0221,9.0221,9.0683,9.136,9.2037,9.2252,9.2376,9.3022,9.3207,9.3053,9.2406,9.2222,9.2222,9.2222,9.1175,9.0221,9.0221,9.0221,9.0005,8.9359,8.9759,9.0005,8.9328,8.9759,9.0221,9.0221,9.0806,9.099,9.0313,9.0221,9.0221,9.0221,9.0221,9.0498,9.1175,9.1852,9.2529,9.3176,9.3884,9.4284,9.4284,9.493,9.5608,9.6285,9.6285,9.6623,9.7301,9.7301,9.7301,9.7301,9.7301,9.7301,7.2706,0.0,0.0,0.0,0.0,0.0,0.0,0.0,0.0,0.0,0.0,0.0,0.0,0.0,0.0,0.0,0.0,0.0,0.0,0.0,0.0,0.0,0.0,0.0,0.0,0.0,0.0,0.0,0.0,0.0,0.0,8.5111,8.5111,8.5111,8.4465,8.4896,8.6558,8.6281,8.6958,8.862,8.902,8.9205,8.9205,8.9205,8.9205,8.9205,8.9205,8.9205,8.9205,8.9205,8.9205,8.9205,8.9205,8.9205,8.9205,8.9205,8.9205,8.9267,8.9759,9.0344,9.099,9.1483,9.2068,9.2653,9.2837,9.2899,9.293,9.3145,9.3207,9.3145,9.296,9.256,9.1975,9.1052,9.0498,9.0221,9.0221,9.0221,9.0282,9.0559,9.0406,9.0313,9.059,9.0406,9.0375,9.0867,9.1083,9.099,9.0313,9.0621,9.0929,9.0929,9.136,9.1883,9.256,9.3268,9.373,9.3945,9.5023,9.5485,9.4992,9.5638,9.6069,9.6285,9.6747,9.7085,9.7301,9.7301,9.7301,9.7301,9.7301,9.7301,0.0,0.0,0.0,0.0,0.0,0.0,0.0,0.0,0.0,0.0,0.0,0.0,0.0,0.0,0.0,0.0,0.0,0.0,0.0,0.0,0.0,0.0,0.0,0.0,0.0,0.0,0.0,0.0,0.0,0.0,0.0,8.5111,8.5111,8.5111,8.4957,8.5634,8.7173,8.702,8.7697,8.9205,8.9205,8.9205,8.9205,8.9205,8.9205,8.9205,8.9205,8.9205,8.9205,8.9205,8.9205,8.9205,8.9205,8.9205,8.9205,8.9205,8.9359,8.9667,9.0067,9.0837,9.1698,9.2099,9.2653,9.3207,9.3207,9.3207,9.3207,9.3207,9.3207,9.3145,9.2868,9.2529,9.1945,9.0867,9.0621,9.0529,9.0282,9.0221,9.0344,9.0744,9.0498,9.0344,9.0744,9.0929,9.1144,9.1575,9.1637,9.1483,9.1083,9.136,9.1822,9.2376,9.2807,9.3299,9.3976,9.4407,9.4777,9.5054,9.5823,9.6223,9.6069,9.647,9.6685,9.6685,9.7085,9.7301,9.7301,9.7301,9.7301,9.7301,9.7301,9.7301,0.0,0.0,0.0,0.0,0.0,0.0,0.0,0.0,0.0,0.0,0.0,0.0,0.0,0.0,0.0,0.0,0.0,0.0,0.0,0.0,0.0,0.0,0.0,0.0,0.0,0.0,0.0,0.0,0.0,0.0,0.0,8.5111,8.5111,8.5111,8.5758,8.6466,8.7173,8.7851,8.8528,8.9205,8.9205,8.9205,8.9205,8.9205,8.9205,8.9205,8.9205,8.9205,8.9205,8.9205,8.9205,8.9205,8.9205,8.9205,8.9205,8.9205,8.9636,9.0221,9.0282,9.1144,9.2252,9.2314,9.2714,9.3207,9.3207,9.3207,9.3207,9.3207,9.3207,9.3053,9.2468,9.2314,9.216,9.1483,9.1267,9.1052,9.0436,9.0313,9.0313,9.0375,9.0344,9.0344,9.0467,9.1452,9.2283,9.2406,9.2376,9.2345,9.2406,9.2406,9.2899,9.4222,9.4407,9.4684,9.53,9.5423,9.57,9.6254,9.6346,9.6654,9.727,9.7301,9.7301,9.7301,9.7301,9.7301,9.7301,9.7301,9.7301,9.7301,9.7301,9.7301,0.0,0.0,0.0,0.0,0.0,0.0,0.0,0.0,0.0,0.0,0.0,0.0,0.0,0.0,0.0,0.0,0.0,0.0,0.0,0.0,0.0,0.0,0.0,0.0,0.0,0.0,0.0,0.0,0.0,0.0,8.5111,8.5111,8.5111,8.5111,8.5758,8.6466,8.7173,8.7851,8.8528,0.0,8.9205,8.9205,8.9205,8.9205,8.9205,8.9205,8.9205,8.9205,8.9205,8.9205,8.9205,8.9205,8.9205,8.9205,8.9205,8.9205,8.9636,9.0282,9.0806,9.1544,9.2314,9.2807,9.3084,9.3207,9.3207,9.3207,9.3207,9.3207,9.3207,9.3176,9.3022,9.2991,9.2837,9.216,9.1606,9.1175,9.1052,9.099,9.1175,9.1698,9.136,9.1329,9.2376,9.2376,9.2591,9.3668,9.3361,9.3176,9.3761,9.3822,9.413,9.4961,9.5546,9.5915,9.6039,9.6562,9.6685,9.6316,9.6777,9.7147,9.727,9.7301,9.7301,9.7301,9.7301,9.7301,9.7301,9.7301,9.7301,9.7301,9.7301,9.7301,0.0,0.0,0.0,0.0,0.0,0.0,0.0,0.0,0.0,0.0,0.0,0.0,0.0,0.0,0.0,0.0,0.0,0.0,0.0,0.0,0.0,0.0,0.0,0.0,0.0,0.0,0.0,0.0,0.0,8.5111,8.5111,8.5111,8.5111,8.5111,8.6096,8.6804,8.7173,8.8189,8.8866,8.9205,8.9205,8.9205,8.9205,8.9205,8.9205,8.9205,8.9205,8.9205,8.9205,8.9205,8.9205,8.9205,8.9205,8.9205,8.9236,8.9574,9.0098,9.0806,9.1483,9.2129,9.2745,9.3084,9.3207,9.3207,9.3207,9.3207,9.3207,9.3207,9.3207,9.3207,9.3207,9.3207,9.3114,9.2776,9.2406,9.2068,9.176,9.1698,9.1822,9.216,9.1945,9.1914,9.2622,9.2991,9.333,9.3699,9.4007,9.4315,9.4715,9.5023,9.5485,9.6162,9.6562,9.6777,9.6777,9.7085,9.7147,9.6777,9.7085,9.7301,9.7301,9.7301,9.7301,9.7301,9.7301,9.7301,9.7301,9.7301,9.7301,9.7301,9.7301,9.7301,0.0,0.0,0.0,0.0,0.0,0.0,0.0,0.0,0.0,0.0,0.0,0.0,0.0,0.0,0.0,0.0,0.0,0.0,0.0,0.0,0.0,0.0,0.0,0.0,0.0,0.0,0.0,0.0,0.0,8.5111,8.5111,8.5111,8.5111,8.5111,8.6466,8.7173,8.7173,8.8528,8.9205,8.9205,8.9205,8.9205,8.9205,8.9205,8.9205,8.9205,8.9205,8.9205,8.9205,8.9205,8.9205,8.9205,8.9205,8.9205,8.9297,8.9975,9.0652,9.1329,9.2006,9.2653,9.3207,9.3207,9.3207,9.3207,9.3207,9.3207,9.3207,9.3207,9.3207,9.3207,9.3207,9.3207,9.3207,9.3207,9.3207,9.3022,9.2376,9.2222,9.2222,9.2222,9.2314,9.2437,9.256,9.3515,9.413,9.3792,9.4715,9.5485,9.5608,9.61,9.6685,9.7239,9.7301,9.7301,9.7301,9.7301,9.7301,9.7301,9.7301,9.7301,9.7301,9.7301,9.7301,9.7301,9.7301,9.7301,9.7301,9.7301,9.7301,9.7301,9.7301,9.7362,0.0,0.0,0.0,0.0,0.0,0.0,0.0,0.0,0.0,0.0,0.0,0.0,0.0,0.0,0.0,0.0,0.0,0.0,0.0,0.0,0.0,0.0,0.0,0.0,0.0,0.0,0.0,0.0,8.5111,8.5111,8.5111,8.5111,8.5111,8.5111,8.6466,8.7173,8.7173,8.8528,8.9205,8.9205,8.9205,8.9205,8.9205,8.9205,8.9205,8.9205,8.9205,8.9205,8.9205,8.9205,8.9205,8.9205,8.9205,8.9205,8.9297,8.9975,9.0652,9.1329,9.2006,9.2653,9.3207,9.3207,9.3207,9.3207,9.3207,9.3207,9.3207,9.3207,9.3207,9.3207,9.3207,9.3207,9.3207,9.3207,9.3207,9.3022,9.2376,9.2222,9.2222,9.2222,9.2683,9.3268,9.3884,9.413,9.4623,9.57,9.6039,9.6346,9.6962,9.7085,9.7178,9.727,9.7301,9.7301,9.7301,9.7301,9.7301,9.7301,9.7301,9.7301,9.7301,9.7301,9.7301,9.7301,9.7301,9.7301,9.7301,9.7301,9.7301,9.7301,9.7301,9.7608,0.0,0.0,0.0,0.0,0.0,0.0,0.0,0.0,0.0,0.0,0.0,0.0,0.0,0.0,0.0,0.0,0.0,0.0,0.0,0.0,0.0,0.0,0.0,0.0,0.0,0.0,0.0,0.0,8.5111,8.5111,8.5111,8.5111,8.5111,8.5111,8.6466,8.7173,8.7173,8.8528,8.9205,8.9205,8.9205,8.9205,8.9205,8.9205,8.9205,8.9205,8.9205,8.9205,8.9205,8.9205,8.9205,8.9205,8.9205,8.9421,8.9851,9.0529,9.1206,9.1883,9.2529,9.296,9.3207,9.3207,9.3207,9.3207,9.3207,9.3207,9.3207,9.3207,9.3207,9.3207,9.3207,9.3207,9.3207,9.3207,9.3207,9.3114,9.2837,9.2776,9.2776,9.2776,9.333,9.3884,9.4192,9.49,9.5608,9.6192,9.6593,9.6962,9.7239,9.7301,9.7301,9.7301,9.7301,9.7301,9.7301,9.7301,9.7301,9.7301,9.7301,9.7301,9.7301,9.7301,9.7301,9.7301,9.7301,9.7301,9.7301,9.7301,9.7301,9.7301,9.767,9.8009,0.0,0.0,0.0,0.0,0.0,0.0,0.0,0.0,0.0,0.0,0.0,0.0,0.0,0.0,0.0,0.0,0.0,0.0,0.0,0.0,0.0,0.0,0.0,0.0,0.0,0.0,0.0,0.0,8.5111,8.5111,8.5111,8.5111,8.5111,8.5111,8.6466,8.7173,8.7173,8.8528,8.9205,8.9205,8.9205,8.9205,8.9205,8.9205,8.9205,8.9205,8.9205,8.9205,8.9205,8.9205,8.9205,8.9236,8.939,8.9759,9.0313,9.1175,9.1791,9.2314,9.296,9.3207,9.3207,9.3207,9.3207,9.3207,9.3207,9.3207,9.3207,9.3207,9.3207,9.3207,9.3207,9.3207,9.3207,9.3207,9.3207,9.3207,9.3207,9.3207,9.3237,9.3422,9.3884,9.4376,9.4715,9.5608,9.6346,9.65,9.6962,9.7301,9.7301,9.7301,9.7301,9.7301,9.7301,9.7301,9.7301,9.7301,9.7301,9.7301,9.7301,9.7301,9.7301,9.7301,9.7301,9.7301,9.7301,9.7301,9.7301,9.7301,9.7301,9.7301,9.7978,9.8378,0.0,0.0,0.0,0.0,0.0,0.0,0.0,0.0,0.0,0.0,0.0,0.0,0.0,0.0,0.0,0.0,0.0,0.0,0.0,0.0,0.0,0.0,0.0,0.0,0.0,0.0,0.0,0.0,8.5111,8.5111,8.5111,8.5111,8.5111,8.5111,8.6466,8.7173,8.7173,8.8528,8.9205,8.9205,8.9205,8.9205,8.9205,8.9205,8.9205,8.9205,8.9205,8.9205,8.9205,8.9205,8.9205,8.9267,8.9913,9.019,9.0375,9.1698,9.2191,9.2314,9.296,9.3207,9.3207,9.3207,9.3207,9.3207,9.3207,9.3207,9.3207,9.3207,9.3207,9.3207,9.3207,9.3207,9.3207,9.3207,9.3207,9.3207,9.3207,9.3207,9.3391,9.4069,9.4222,9.4653,9.5946,9.6223,9.65,9.7147,9.727,9.7301,9.7301,9.7301,9.7301,9.7301,9.7301,9.7301,9.7301,9.7301,9.7301,9.7301,9.7301,9.7301,9.7301,9.7301,9.7301,9.7301,9.7301,9.7301,9.7301,9.7301,9.7301,9.7301,9.7978,9.8655,0.0,0.0,0.0,8.4031,8.506,0.0,0.0,0.0,0.0,0.0,0.0,0.0,0.0,0.0,0.0,0.0,0.0,0.0,0.0,0.0,0.0,0.0,0.0,0.0,0.0,0.0,0.0,0.0,0.0,8.5111,8.5111,8.5111,8.5111,8.5111,8.6466,8.7604,8.8466,8.8959,8.9205,8.9205,8.9205,8.9205,8.9205,8.9205,8.9205,8.9205,8.9205,8.9205,8.9205,8.9205,8.9451,8.9882,9.0129,9.0744,9.1575,9.2037,9.2499,9.2868,9.3114,9.3207,9.3207,9.3207,9.3207,9.3207,9.3207,9.3207,9.3207,9.3207,9.3207,9.3207,9.3207,9.3207,9.3207,9.3207,9.3207,9.333,9.3792,9.3884,9.3945,9.4222,9.4961,9.5731,9.6192,9.6654,9.7024,9.7239,9.7301,9.7301,9.7301,9.7301,9.7301,9.7301,9.7301,9.7301,9.7301,9.7301,9.7301,9.7301,9.7301,9.7301,9.7301,9.7301,9.7301,9.7301,9.7301,9.7301,9.7301,9.7301,9.7301,9.7331,9.844,9.9086,7.801,0.0,0.0,0.0,0.0,8.5723,0.0,0.0,0.0,0.0,0.0,0.0,0.0,0.0,0.0,0.0,0.0,0.0,0.0,0.0,0.0,0.0,0.0,0.0,0.0,0.0,0.0,0.0,0.0,0.0,8.5111,8.5514,8.5843,8.5788,8.7091,8.8384,8.9174,8.9205,8.9205,8.9205,8.9205,8.9205,8.9205,8.9205,8.9205,8.9205,8.9205,8.9205,8.9236,8.9451,8.9821,9.0252,9.0713,9.1452,9.2252,9.2468,9.2837,9.3207,9.3207,9.3207,9.3207,9.3207,9.3207,9.3207,9.3207,9.3207,9.3207,9.3207,9.3207,9.3207,9.3207,9.3207,9.3207,9.3207,9.3207,9.3391,9.4099,9.4253,9.4407,9.4838,9.5669,9.6346,9.6593,9.6993,9.7301,9.7301,9.7301,9.7301,9.7301,9.7301,9.7301,9.7301,9.7301,9.7301,9.7301,9.7301,9.7301,9.7301,9.7301,9.7301,9.7301,9.7301,9.7301,9.7301,9.7301,9.7178,9.6962,9.7178,9.7424,9.767,9.8778,9.9548,0.0,0.0,0.0,0.0,0.0,0.0,0.0,0.0,0.0,0.0,0.0,0.0,0.0,0.0,0.0,0.0,0.0,0.0,0.0,0.0,0.0,0.0,0.0,0.0,0.0,0.0,0.0,0.0,8.6448,8.6588,8.5256,8.6416,8.7215,8.7291,8.8545,8.9347,8.9326,8.9205,8.9205,8.9205,8.9205,8.9205,8.9205,8.9205,8.9205,8.9205,8.9205,8.9205,8.9297,8.9944,9.0221,9.0406,9.1729,9.2252,9.2345,9.296,9.3207,9.3207,9.3207,9.3207,9.3207,9.3207,9.3207,9.3207,9.3207,9.3207,9.3207,9.3207,9.3207,9.3207,9.3207,9.3207,9.3207,9.3207,9.3207,9.3422,9.413,9.4315,9.4715,9.6039,9.6285,9.6531,9.7178,9.7301,9.7301,9.7301,9.7301,9.7301,9.7301,9.7301,9.7301,9.7301,9.7301,9.7301,9.7301,9.7301,9.7301,9.7301,9.7301,9.7301,9.7301,9.7301,9.7301,9.7301,9.727,9.6962,9.6316,9.6962,9.7639,9.8286,9.8994,10.004,7.669,0.0,0.0,0.0,0.0,0.0,0.0,0.0,0.0,0.0,0.0,0.0,0.0,0.0,0.0,0.0,0.0,0.0,0.0,0.0,0.0,0.0,0.0,0.0,0.0,0.0,0.0,0.0,8.7449,8.7121,8.5256,8.6416,8.7746,8.8738,8.9087,8.9748,9.0842,8.9748,8.9205,8.9205,8.9205,8.9205,8.9205,8.9205,8.9205,8.9205,8.9205,8.9482,8.9944,9.0129,9.0806,9.1698,9.2099,9.2529,9.296,9.3114,9.3207,9.3207,9.3207,9.3207,9.3207,9.3207,9.3207,9.3207,9.3207,9.3207,9.3207,9.3207,9.3207,9.3207,9.3207,9.3207,9.3207,9.3207,9.3607,9.4161,9.4838,9.5361,9.5823,9.6223,9.6685,9.7085,9.727,9.7301,9.7301,9.7301,9.7301,9.7301,9.7301,9.7301,9.7301,9.7301,9.7301,9.7301,9.7301,9.7301,9.7301,9.7301,9.7301,9.7301,9.7301,9.7301,9.7301,9.7301,9.6808,9.6716,9.7024,9.7208,9.7393,9.7608,9.9271,10.0502,7.6284,0.0,0.0,0.0,0.0,0.0,0.0,0.0,0.0,0.0,0.0,0.0,0.0,0.0,0.0,0.0,0.0,0.0,0.0,0.0,0.0,0.0,0.0,0.0,0.0,8.7466,8.7498,8.8012,8.8427,8.8068,8.649,8.8067,8.9218,8.9861,9.0725,9.1237,9.1393,9.0579,8.9748,8.9205,8.9205,8.9205,8.9205,8.9205,8.9205,8.9236,8.9513,9.0005,9.0652,9.0929,9.1514,9.2252,9.2529,9.2868,9.3207,9.3207,9.3207,9.3207,9.3207,9.3207,9.3207,9.3207,9.3207,9.3207,9.3207,9.3207,9.3207,9.3207,9.3207,9.3207,9.3207,9.3207,9.3207,9.3207,9.373,9.4438,9.5115,9.5792,9.6377,9.6654,9.7024,9.7301,9.7301,9.7301,9.7301,9.7301,9.7301,9.7301,9.7301,9.7301,9.7301,9.7301,9.7301,9.7301,9.7301,9.7301,9.7301,9.7301,9.7301,9.7301,9.7301,9.7301,9.7147,9.687,9.6747,9.7024,9.7701,9.7424,9.7732,9.8593,10.004,10.0933,7.5709,7.6217,7.6961,0.0,0.0,0.0,0.0,0.0,0.0,0.0,0.0,8.897,8.897,8.9038,0.0,0.0,0.0,0.0,0.0,0.0,0.0,0.0,0.0,0.0,8.9184,8.8283,8.8148,8.9184,8.9316,8.9141,8.8544,9.0424,9.1207,9.0602,9.2579,9.2939,9.181,9.1506,9.0842,8.9748,8.9477,8.9477,8.9597,8.9385,8.9416,8.9508,9.0126,9.0683,9.1267,9.2101,9.2409,9.2406,9.296,9.3207,9.3207,9.3207,9.3207,9.3207,9.3207,9.3207,9.3207,9.3207,9.3207,9.3207,9.3207,9.3207,9.3207,9.3207,9.3207,9.3207,9.3207,9.3207,9.3207,9.3299,9.3853,9.4561,9.5238,9.5915,9.6562,9.7178,9.7301,9.7301,9.7301,9.7301,9.7301,9.7301,9.7301,9.7301,9.7301,9.7301,9.7301,9.7301,9.7301,9.7301,9.7301,9.7301,9.7301,9.7301,9.7301,9.7301,9.7301,9.7208,9.6931,9.6408,9.7054,9.7732,9.8409,9.7793,9.847,10.0317,10.1025,10.1333,0.0,0.0,0.0,0.0,0.0,0.0,0.0,0.0,0.0,0.0,8.6839,8.8192,8.8192,8.87,8.9072,8.9072,0.0,0.0,0.0,0.0,0.0,0.0,0.0,0.0,8.9283,9.0129,9.0258,8.9348,8.9316,8.954,9.0016,9.0941,9.1675,9.2153,9.3162,9.379,9.4091,9.2359,9.1794,9.2756,9.1538,9.1538,9.2756,9.0937,9.0454,9.0988,9.1146,9.1219,9.1423,9.3212,9.3652,9.3022,9.3145,9.3207,9.3207,9.3207,9.3207,9.3207,9.3207,9.3207,9.3207,9.3207,9.3207,9.3207,9.3207,9.3207,9.3207,9.3207,9.3207,9.3207,9.3207,9.3207,9.333,9.3915,9.4592,9.5269,9.5946,9.6623,9.7116,9.727,9.7301,9.7301,9.7301,9.7301,9.7301,9.7301,9.7301,9.7301,9.7301,9.7301,9.7301,9.7301,9.7301,9.7301,9.7301,9.7301,9.7301,9.7301,9.7301,9.7301,9.7301,9.6777,9.6685,9.7085,9.7762,9.844,9.9117,9.8963,9.9394,10.0317,10.1025,10.1333,0.0,0.0,0.0,7.6792,0.0,0.0,0.0,0.0,0.0,0.0,0.0,0.0,8.7854,0.0,8.8666,8.9038,0.0,0.0,0.0,0.0,0.0,0.0,0.0,0.0,9.0304,9.0668,9.0783,9.0386,9.1054,9.113,9.0417,9.1735,9.2938,9.3583,9.4316,9.4849,9.524,9.411,9.359,9.359,9.2896,9.2735,9.3072,9.1571,9.1477,9.2538,9.2556,9.3005,9.4048,9.4712,9.4762,9.4214,9.3493,9.3207,9.3207,9.3207,9.3207,9.3207,9.3207,9.3207,9.3207,9.3207,9.3207,9.3207,9.3207,9.3207,9.3207,9.3207,9.3207,9.3207,9.3207,9.3207,9.3391,9.4099,9.4777,9.5454,9.6131,9.6808,9.7301,9.7301,9.7301,9.7301,9.7301,9.7301,9.7301,9.7301,9.7301,9.7301,9.7301,9.7301,9.7301,9.7301,9.7301,9.7301,9.7301,9.7301,9.7301,9.7301,9.7301,9.7147,9.6808,9.6777,9.7085,9.7793,9.847,9.9148,9.9825,10.0133,10.0502,10.0841,10.1148,10.1518,0.0,0.0,0.0,0.0,0.0,7.8517,0.0,0.0,0.0,0.0,0.0,0.0,0.0,0.0,0.0,0.0,0.0,0.0,0.0,0.0,0.0,0.0,0.0,0.0,0.0,9.0814,9.1024,9.1636,9.3111,9.3083,9.1174,9.2604,9.387,9.443,9.5296,9.5822,9.5793,9.58,9.5376,9.4409,9.4138,9.3845,9.3592,9.2382,9.2735,9.4262,9.4008,9.5003,9.6829,9.6231,9.5804,9.5382,9.3777,9.3207,9.3207,9.3207,9.3207,9.3207,9.3207,9.3207,9.3207,9.3207,9.3207,9.3207,9.3207,9.3207,9.3207,9.3207,9.3207,9.3207,9.3207,9.3207,9.3391,9.4253,9.4869,9.5485,9.6316,9.69,9.7301,9.7301,9.7301,9.7301,9.7301,9.7301,9.7301,9.7301,9.7301,9.7301,9.7301,9.7301,9.7301,9.7301,9.7301,9.7301,9.7301,9.7301,9.7301,9.7301,9.7301,9.7054,9.65,9.7116,9.7793,9.847,9.9148,9.9825,10.0533,10.1025,10.1333,10.1333,10.1456,10.1826,0.0,0.0,0.0,0.0,7.8416,0.0,0.0,0.0,0.0,0.0,0.0,0.0,0.0,0.0,0.0,0.0,0.0,0.0,0.0,0.0,0.0,0.0,0.0,0.0,0.0,9.1256,9.2325,9.2272,9.4298,9.4872,9.3384,9.3487,9.3706,9.3672,9.5007,9.5751,9.5764,9.585,9.6355,9.7438,9.6226,9.6192,9.7303,9.4701,9.4518,9.6433,9.5838,9.6054,9.6796,9.743,9.6846,9.5382,9.3777,9.3207,9.3207,9.3207,9.3207,9.3207,9.3207,9.3207,9.3207,9.3207,9.3207,9.3207,9.3207,9.3207,9.3207,9.3207,9.3207,9.3207,9.3207,9.3207,9.3515,9.4838,9.5207,9.5638,9.69,9.7239,9.7301,9.7301,9.7301,9.7301,9.7301,9.7301,9.7301,9.7301,9.7301,9.7301,9.7301,9.7301,9.7301,9.7301,9.7301,9.7301,9.7301,9.7301,9.7301,9.7301,9.7301,9.727,9.7178,9.7824,9.8501,9.9178,9.9856,10.0533,10.121,10.1302,10.1333,10.1333,10.201,10.2318,0.0,0.0,0.0,0.0,0.0,0.0,0.0,0.0,8.1663,0.0,0.0,0.0,0.0,0.0,0.0,0.0,0.0,0.0,0.0,0.0,0.0,0.0,0.0,0.0,0.0,0.0,0.0,0.0,9.4383,9.4687,9.3639,9.3571,9.3774,9.4214,9.5263,9.6007,9.6413,9.6808,9.7346,9.8003,9.7312,9.7,9.6717,9.5483,9.5955,9.753,9.7224,9.8189,10.0049,9.9494,9.8894,9.8009,9.5502,9.3902,9.3207,9.3207,9.3207,9.3207,9.3207,9.3207,9.3207,9.3207,9.3207,9.3207,9.3207,9.3207,9.3207,9.3207,9.3207,9.3207,9.3207,9.3515,9.4069,9.5054,9.5577,9.6131,9.7085,9.7301,9.7301,9.7301,9.7301,9.7301,9.7301,9.7301,9.7301,9.7301,9.7301,9.7301,9.7301,9.7301,9.7301,9.7301,9.7301,9.7301,9.7301,9.7301,9.7301,9.7301,9.7301,9.7455,9.7855,9.8532,9.9209,9.9886,10.0533,10.1025,10.1333,10.1733,10.1918,10.1918,10.2287,10.2811,8.2408,0.0,0.0,0.0,0.0,0.0,0.0,0.0,0.0,0.0,0.0,0.0,0.0,0.0,0.0,0.0,0.0,0.0,0.0,0.0,0.0,0.0,0.0,0.0,0.0,0.0,0.0,0.0,0.0,9.4586,9.3639,9.3571,9.3842,9.4383,9.5127,9.5838,9.6582,9.7326,9.78,9.8003,9.8003,9.7461,9.6447,9.6197,9.706,9.8521,9.8407,9.9876,10.2373,10.0751,10.0209,9.9901,9.6666,9.5077,9.437,9.3493,9.3207,9.3207,9.3207,9.3207,9.3207,9.3207,9.3207,9.3207,9.3207,9.3207,9.3207,9.3207,9.3207,9.3207,9.3207,9.373,9.4438,9.5115,9.5792,9.647,9.7147,9.7301,9.7301,9.7301,9.7301,9.7301,9.7301,9.7301,9.7301,9.7301,9.7301,9.7301,9.7301,9.7301,9.7301,9.7301,9.7116,9.7024,9.7024,9.7024,9.7178,9.7547,9.7578,9.7947,9.8809,9.9332,9.9917,10.0594,10.1118,10.1425,10.161,10.2133,10.2595,10.2934,10.2934,10.3488,0.0,0.0,0.0,8.3389,0.0,0.0,0.0,0.0,8.3219,0.0,0.0,0.0,0.0,0.0,0.0,0.0,0.0,0.0,0.0,0.0,0.0,0.0,0.0,0.0,0.0,0.0,0.0,0.0,0.0,0.0,9.3673,9.3571,9.3605,9.3605,9.4349,9.5093,9.5838,9.6548,9.7292,9.8003,9.8003,9.8003,9.7935,9.7225,9.8104,10.0134,9.9424,10.0438,10.2373,10.0751,10.0209,9.9901,9.6666,9.6402,9.7431,9.437,9.3207,9.3207,9.3207,9.3207,9.3207,9.3207,9.3207,9.3207,9.3207,9.3207,9.3207,9.3207,9.3207,9.3207,9.3207,9.373,9.4438,9.5115,9.5792,9.647,9.7147,9.7301,9.7301,9.7301,9.7301,9.7301,9.7301,9.7301,9.7301,9.7301,9.7301,9.7301,9.7301,9.7301,9.7301,9.7301,9.6716,9.6316,9.6316,9.6316,9.687,9.8193,9.8255,9.887,10.0225,10.0317,10.0625,10.1302,10.1333,10.1702,10.238,10.238,10.3088,10.4319,10.4319,10.4411,0.0,0.0,8.5621,8.5148,0.0,0.0,0.0,0.0,0.0,0.0,0.0,0.0,0.0,0.0,0.0,0.0,0.0,0.0,0.0,0.0,0.0,0.0,0.0,0.0,0.0,0.0,0.0,0.0,0.0,0.0,0.0,9.3774,9.4112,9.3605,9.4789,9.5533,9.5804,9.6514,9.7258,9.8003,9.8003,9.7732,9.7258,9.7529,9.8307,9.9491,9.9728,10.0811,10.2536,10.1914,10.175,10.1486,9.9454,9.8894,9.9035,9.5804,9.5382,9.6135,9.5077,9.4802,9.4802,9.4802,9.4802,9.4802,9.4802,9.4802,9.4493,9.3493,9.3207,9.3207,9.3207,9.4069,9.4992,9.5207,9.6131,9.7024,9.7239,9.7301,9.7301,9.7301,9.7301,9.7301,9.7301,9.7301,9.7301,9.7301,9.7301,9.7301,9.7301,9.7301,9.7116,9.6685,9.6408,9.61,9.5669,9.6439,9.7331,9.8224,9.9148,9.9856,10.0317,10.0717,10.1118,10.1333,10.1795,10.2195,10.241,10.3303,10.4011,10.4411,10.4873,10.5088,8.7279,8.711,0.0,8.6636,8.6366,0.0,8.6196,0.0,0.0,0.0,0.0,0.0,0.0,0.0,0.0,0.0,0.0,0.0,0.0,0.0,0.0,0.0,0.0,0.0,0.0,0.0,0.0,0.0,0.0,0.0,0.0,0.0,9.4214,9.3977,9.4654,9.5398,9.6176,9.6379,9.6988,9.8003,9.8003,9.7766,9.7292,9.7766,9.8544,9.9525,9.9999,10.1115,10.2502,10.2502,10.2502,10.2339,10.0785,10.0448,10.0583,9.7576,9.6993,9.7721,9.6698,9.6402,9.6402,9.6402,9.6402,9.6402,9.6402,9.6402,9.6017,9.4806,9.4276,9.3964,9.3643,9.4407,9.5269,9.5269,9.6316,9.7301,9.7301,9.7301,9.7301,9.7301,9.7301,9.7301,9.7301,9.7301,9.7301,9.7301,9.7301,9.7301,9.7301,9.7301,9.7024,9.6346,9.6069,9.5854,9.5638,9.6654,9.7793,9.8932,9.9825,10.041,10.0625,10.1118,10.121,10.0933,10.1918,10.241,10.241,10.3734,10.4534,10.4781,10.5181,10.5365]},{"header":{"parameterUnit":"m.s-1","parameterCategory":1,"la1":30.6,"la2":29.2853,"lo1":-89.7004,"lo2":-87.6739,"dx":0.0162,"dy":0.0183,"nx":112,"ny":82,"refTime":"2023-01-10T06:00:00:Z","depth":0,"parameterNumber":3,"parameterNumberName":"V-component_of_WINDS"},"data":[0.0,0.0,0.0,0.0,0.0,0.0,0.0,0.0,0.0,0.0,0.0,0.0,0.0,0.0,0.0,0.0,0.0,0.0,0.0,0.0,0.0,0.0,0.0,0.0,0.0,0.0,0.0,0.0,0.0,0.0,0.0,0.0,0.0,0.0,0.0,0.0,0.0,0.0,0.0,0.0,0.0,0.0,0.0,0.0,0.0,0.0,0.0,0.0,0.0,0.0,0.0,0.0,0.0,0.0,0.0,0.0,0.0,0.0,0.0,0.0,0.0,0.0,0.0,0.0,0.0,0.0,0.0,0.0,0.0,0.0,0.0,0.0,0.0,0.0,0.0,0.0,0.0,0.0,0.0,0.0,0.0,0.0,0.0,0.0,0.0,0.0,0.0,0.0,0.0,0.0,-4.9791,-5.0444,-5.0864,-5.0761,-5.0046,-5.0616,-4.9987,-4.7738,0.0,0.0,0.0,0.0,0.0,0.0,0.0,0.0,0.0,0.0,0.0,0.0,0.0,0.0,0.0,0.0,0.0,0.0,0.0,0.0,0.0,0.0,0.0,0.0,0.0,0.0,0.0,0.0,0.0,0.0,0.0,0.0,0.0,0.0,0.0,0.0,0.0,0.0,0.0,0.0,0.0,0.0,0.0,0.0,0.0,0.0,0.0,0.0,0.0,0.0,0.0,0.0,0.0,0.0,0.0,0.0,0.0,0.0,0.0,0.0,0.0,0.0,0.0,0.0,0.0,0.0,0.0,0.0,0.0,0.0,0.0,0.0,0.0,0.0,0.0,0.0,0.0,0.0,0.0,0.0,0.0,0.0,0.0,0.0,0.0,0.0,0.0,0.0,0.0,0.0,0.0,0.0,0.0,0.0,0.0,0.0,0.0,0.0,0.0,0.0,0.0,0.0,0.0,0.0,-5.0772,-5.2042,-5.143,-5.0672,-5.0576,-5.0215,-4.9607,-4.8243,0.0,0.0,0.0,0.0,0.0,0.0,0.0,0.0,0.0,0.0,0.0,0.0,0.0,0.0,0.0,0.0,0.0,0.0,0.0,0.0,0.0,0.0,0.0,0.0,0.0,0.0,0.0,0.0,0.0,0.0,0.0,0.0,0.0,0.0,0.0,0.0,0.0,0.0,0.0,0.0,0.0,0.0,0.0,0.0,0.0,0.0,0.0,0.0,0.0,0.0,0.0,0.0,0.0,0.0,0.0,0.0,0.0,0.0,0.0,0.0,0.0,0.0,0.0,0.0,0.0,0.0,0.0,0.0,0.0,0.0,0.0,0.0,0.0,0.0,0.0,0.0,0.0,0.0,0.0,0.0,0.0,0.0,0.0,0.0,0.0,0.0,0.0,0.0,0.0,0.0,0.0,0.0,0.0,0.0,0.0,0.0,0.0,0.0,0.0,0.0,0.0,0.0,0.0,-5.0468,-5.122,-5.1528,-5.1774,-5.1462,-5.0311,-5.0707,-5.0149,-4.8363,-4.7856,0.0,0.0,0.0,0.0,0.0,0.0,0.0,0.0,0.0,0.0,0.0,0.0,0.0,0.0,0.0,0.0,0.0,0.0,0.0,0.0,0.0,0.0,0.0,0.0,0.0,0.0,0.0,0.0,0.0,0.0,0.0,0.0,0.0,0.0,0.0,0.0,0.0,0.0,0.0,0.0,0.0,0.0,0.0,0.0,0.0,0.0,0.0,0.0,0.0,0.0,0.0,0.0,0.0,0.0,0.0,0.0,0.0,0.0,0.0,0.0,0.0,0.0,0.0,0.0,0.0,0.0,0.0,0.0,0.0,0.0,0.0,0.0,0.0,0.0,0.0,0.0,0.0,0.0,0.0,0.0,0.0,0.0,0.0,0.0,0.0,0.0,0.0,0.0,0.0,0.0,0.0,0.0,0.0,0.0,0.0,0.0,0.0,0.0,0.0,0.0,0.0,0.0,-5.1558,-5.1956,-5.1392,-5.2283,-5.2138,-5.0359,-5.109,-5.0555,-4.8387,-4.8439,0.0,0.0,0.0,0.0,0.0,0.0,0.0,0.0,0.0,0.0,0.0,0.0,0.0,0.0,0.0,0.0,0.0,0.0,0.0,0.0,0.0,0.0,0.0,0.0,0.0,0.0,0.0,0.0,0.0,0.0,0.0,0.0,0.0,0.0,0.0,0.0,0.0,0.0,0.0,0.0,0.0,0.0,0.0,0.0,0.0,0.0,0.0,0.0,0.0,0.0,0.0,0.0,0.0,0.0,0.0,0.0,0.0,0.0,0.0,0.0,0.0,0.0,0.0,0.0,0.0,0.0,0.0,0.0,0.0,0.0,0.0,0.0,0.0,0.0,0.0,0.0,0.0,0.0,0.0,0.0,0.0,0.0,0.0,0.0,0.0,0.0,0.0,0.0,0.0,0.0,0.0,0.0,0.0,0.0,0.0,0.0,0.0,0.0,0.0,0.0,0.0,0.0,-5.2478,-5.3372,-5.3424,-5.3108,-5.2453,-5.1417,-5.096,-5.0022,-4.8387,-4.8243,0.0,0.0,0.0,0.0,0.0,0.0,0.0,0.0,0.0,0.0,0.0,0.0,0.0,0.0,0.0,0.0,0.0,0.0,0.0,0.0,0.0,0.0,0.0,0.0,0.0,0.0,0.0,0.0,0.0,0.0,0.0,0.0,0.0,0.0,0.0,0.0,0.0,0.0,0.0,0.0,0.0,0.0,0.0,0.0,0.0,0.0,0.0,0.0,0.0,0.0,0.0,0.0,0.0,0.0,0.0,0.0,0.0,0.0,0.0,0.0,0.0,0.0,0.0,0.0,0.0,0.0,0.0,0.0,0.0,0.0,0.0,0.0,0.0,0.0,0.0,0.0,0.0,0.0,0.0,0.0,0.0,0.0,0.0,0.0,0.0,0.0,0.0,0.0,0.0,0.0,0.0,0.0,0.0,0.0,0.0,0.0,0.0,0.0,0.0,0.0,0.0,0.0,-5.1376,-5.216,0.0,-5.2695,-5.2212,-5.1537,-5.1873,-5.1124,-4.8892,0.0,0.0,0.0,0.0,0.0,0.0,0.0,0.0,0.0,0.0,0.0,0.0,0.0,0.0,0.0,0.0,0.0,0.0,0.0,0.0,0.0,0.0,0.0,0.0,0.0,0.0,0.0,0.0,0.0,0.0,0.0,0.0,0.0,0.0,0.0,0.0,0.0,0.0,0.0,0.0,0.0,0.0,0.0,0.0,0.0,0.0,0.0,0.0,0.0,0.0,0.0,0.0,0.0,0.0,0.0,0.0,0.0,0.0,0.0,0.0,0.0,0.0,0.0,0.0,0.0,0.0,0.0,0.0,0.0,0.0,0.0,0.0,0.0,0.0,0.0,0.0,0.0,0.0,0.0,0.0,0.0,0.0,0.0,0.0,0.0,0.0,0.0,0.0,0.0,0.0,0.0,0.0,0.0,0.0,0.0,0.0,0.0,0.0,0.0,0.0,0.0,0.0,-5.0343,-5.1284,-5.2135,0.0,-5.2767,-5.2525,-5.2018,-5.2429,-5.1776,-4.971,0.0,0.0,0.0,0.0,0.0,0.0,0.0,0.0,0.0,0.0,0.0,0.0,0.0,0.0,0.0,0.0,0.0,0.0,0.0,0.0,0.0,0.0,0.0,0.0,0.0,0.0,0.0,0.0,0.0,0.0,0.0,0.0,0.0,0.0,0.0,0.0,0.0,0.0,0.0,0.0,0.0,0.0,0.0,0.0,0.0,0.0,0.0,0.0,0.0,0.0,0.0,0.0,0.0,0.0,0.0,0.0,0.0,0.0,0.0,0.0,0.0,0.0,0.0,0.0,0.0,0.0,0.0,0.0,0.0,0.0,0.0,0.0,0.0,0.0,0.0,0.0,0.0,0.0,0.0,0.0,0.0,0.0,0.0,0.0,0.0,0.0,0.0,0.0,0.0,0.0,0.0,0.0,0.0,0.0,0.0,0.0,0.0,0.0,0.0,0.0,0.0,0.0,-5.1509,-5.273,-5.3546,-5.3726,-5.3639,-5.3472,-5.3077,-5.2596,-5.185,0.0,0.0,0.0,0.0,0.0,0.0,0.0,0.0,0.0,0.0,0.0,0.0,0.0,0.0,0.0,0.0,0.0,0.0,0.0,0.0,0.0,0.0,0.0,0.0,0.0,0.0,0.0,0.0,0.0,0.0,0.0,0.0,0.0,0.0,0.0,0.0,0.0,0.0,0.0,0.0,0.0,0.0,0.0,0.0,0.0,0.0,0.0,0.0,0.0,0.0,0.0,0.0,0.0,0.0,0.0,0.0,0.0,0.0,0.0,0.0,0.0,0.0,0.0,0.0,0.0,0.0,0.0,0.0,0.0,0.0,0.0,0.0,0.0,0.0,0.0,0.0,0.0,0.0,0.0,0.0,0.0,0.0,0.0,0.0,0.0,0.0,0.0,0.0,0.0,0.0,0.0,0.0,0.0,0.0,0.0,0.0,0.0,0.0,0.0,0.0,0.0,0.0,0.0,-5.1022,-5.247,-5.3692,-5.4231,-5.3731,-5.3345,-5.3558,-5.3798,-5.3149,-5.1369,0.0,0.0,0.0,0.0,0.0,0.0,0.0,0.0,0.0,0.0,0.0,0.0,0.0,0.0,0.0,0.0,0.0,0.0,0.0,0.0,0.0,0.0,0.0,0.0,0.0,0.0,0.0,0.0,0.0,0.0,0.0,0.0,0.0,0.0,0.0,0.0,0.0,0.0,0.0,0.0,0.0,0.0,0.0,0.0,0.0,0.0,0.0,0.0,0.0,0.0,0.0,0.0,0.0,0.0,0.0,0.0,0.0,0.0,0.0,0.0,0.0,0.0,0.0,0.0,0.0,0.0,0.0,0.0,0.0,0.0,0.0,0.0,0.0,0.0,0.0,0.0,0.0,0.0,0.0,0.0,0.0,0.0,0.0,0.0,0.0,0.0,0.0,0.0,0.0,0.0,0.0,0.0,0.0,0.0,0.0,0.0,0.0,0.0,0.0,0.0,0.0,0.0,-5.1196,-5.2695,-5.3935,-5.4471,-5.4231,-5.4111,-5.4423,-5.4736,-5.4303,-5.2836,0.0,0.0,0.0,0.0,0.0,0.0,0.0,0.0,0.0,0.0,0.0,0.0,0.0,0.0,0.0,0.0,0.0,0.0,0.0,0.0,0.0,0.0,0.0,0.0,0.0,0.0,0.0,0.0,0.0,0.0,0.0,0.0,0.0,0.0,0.0,0.0,0.0,0.0,0.0,0.0,0.0,0.0,0.0,0.0,0.0,0.0,0.0,0.0,0.0,0.0,0.0,0.0,0.0,0.0,0.0,0.0,0.0,0.0,0.0,0.0,0.0,0.0,0.0,0.0,0.0,0.0,0.0,0.0,0.0,0.0,0.0,0.0,0.0,0.0,0.0,0.0,0.0,0.0,0.0,0.0,0.0,0.0,0.0,0.0,0.0,0.0,0.0,0.0,0.0,0.0,0.0,0.0,0.0,0.0,0.0,0.0,0.0,0.0,0.0,0.0,0.0,0.0,-5.1871,-5.3546,-5.4563,-5.4616,-5.5121,-5.5409,-5.5482,-5.5482,-5.5241,-5.4712,0.0,0.0,0.0,0.0,0.0,0.0,0.0,0.0,0.0,0.0,0.0,0.0,0.0,0.0,0.0,0.0,0.0,0.0,0.0,0.0,0.0,0.0,0.0,0.0,0.0,0.0,0.0,0.0,0.0,0.0,0.0,0.0,0.0,0.0,0.0,0.0,0.0,0.0,0.0,0.0,0.0,0.0,0.0,0.0,0.0,0.0,0.0,0.0,0.0,0.0,0.0,0.0,0.0,0.0,0.0,0.0,0.0,0.0,0.0,0.0,-4.6367,0.0,0.0,0.0,0.0,0.0,0.0,0.0,0.0,0.0,0.0,0.0,0.0,0.0,0.0,0.0,0.0,0.0,0.0,0.0,0.0,0.0,0.0,0.0,0.0,0.0,0.0,0.0,0.0,0.0,0.0,0.0,0.0,0.0,0.0,0.0,0.0,0.0,0.0,0.0,0.0,0.0,-5.2164,-5.4081,-5.5424,-5.5169,-5.5337,-5.5578,-5.6011,-5.6059,-5.5818,-5.5265,-5.464,0.0,0.0,0.0,0.0,0.0,0.0,0.0,0.0,0.0,0.0,0.0,0.0,0.0,0.0,0.0,0.0,0.0,0.0,0.0,0.0,0.0,0.0,0.0,0.0,0.0,0.0,0.0,0.0,0.0,0.0,0.0,0.0,0.0,0.0,0.0,0.0,0.0,0.0,0.0,0.0,0.0,0.0,0.0,0.0,0.0,0.0,0.0,0.0,0.0,0.0,0.0,0.0,0.0,0.0,0.0,0.0,0.0,0.0,0.0,0.0,-4.6175,0.0,0.0,0.0,0.0,0.0,0.0,0.0,0.0,0.0,0.0,0.0,0.0,0.0,0.0,0.0,0.0,0.0,0.0,0.0,0.0,0.0,0.0,0.0,0.0,0.0,0.0,0.0,0.0,0.0,0.0,0.0,0.0,0.0,0.0,0.0,0.0,0.0,0.0,0.0,0.0,-5.3293,-5.463,-5.5775,-5.6083,-5.6395,-5.6684,-5.6973,-5.6997,-5.6756,-5.6203,-5.5433,0.0,0.0,0.0,0.0,0.0,0.0,0.0,0.0,0.0,0.0,0.0,0.0,0.0,0.0,0.0,0.0,0.0,0.0,0.0,0.0,0.0,0.0,0.0,0.0,0.0,0.0,0.0,0.0,0.0,0.0,0.0,0.0,0.0,0.0,0.0,0.0,0.0,0.0,0.0,0.0,0.0,0.0,0.0,0.0,0.0,0.0,0.0,0.0,0.0,0.0,0.0,0.0,0.0,-4.7521,-4.8002,-4.8435,-4.8892,-4.9084,-4.8988,-4.7329,-4.6752,-4.6968,-4.6704,0.0,0.0,0.0,0.0,0.0,0.0,0.0,0.0,0.0,0.0,0.0,0.0,0.0,0.0,0.0,0.0,0.0,0.0,0.0,0.0,0.0,0.0,0.0,0.0,-4.983,-4.9902,0.0,0.0,0.0,0.0,0.0,0.0,0.0,0.0,0.0,0.0,0.0,0.0,-5.4496,-5.5241,-5.6035,-5.6925,-5.7574,-5.7935,-5.7935,-5.7935,-5.7718,-5.7189,-5.6323,-5.5698,0.0,0.0,0.0,0.0,0.0,0.0,0.0,0.0,0.0,0.0,0.0,0.0,0.0,0.0,0.0,0.0,0.0,0.0,0.0,0.0,0.0,0.0,0.0,0.0,0.0,0.0,0.0,0.0,0.0,0.0,0.0,0.0,-4.4082,-4.4227,0.0,0.0,0.0,0.0,0.0,0.0,0.0,0.0,0.0,0.0,0.0,0.0,0.0,-4.6752,-4.7281,-4.7738,-4.8002,-4.8098,-4.8628,-4.8916,-4.8988,-4.9036,-4.9084,-4.9084,-4.9277,0.0,-4.8147,-4.8988,0.0,0.0,0.0,0.0,0.0,0.0,0.0,0.0,0.0,0.0,0.0,0.0,0.0,0.0,0.0,0.0,0.0,0.0,0.0,0.0,0.0,0.0,-5.1826,-5.1297,-5.1225,-5.1225,0.0,-4.9974,-4.9109,-4.9565,-4.9662,0.0,0.0,0.0,0.0,0.0,0.0,0.0,-5.4592,-5.6202,-5.7169,-5.6997,-5.7911,-5.8488,-5.8488,-5.8488,-5.8271,-5.7742,-5.7574,-5.6852,-5.5458,-5.476,0.0,0.0,0.0,0.0,0.0,0.0,0.0,0.0,0.0,0.0,0.0,0.0,0.0,0.0,0.0,0.0,0.0,0.0,0.0,0.0,0.0,0.0,0.0,0.0,0.0,0.0,0.0,0.0,0.0,-4.4154,-4.49,-4.5188,-4.5285,-4.5381,0.0,0.0,0.0,0.0,0.0,0.0,0.0,0.0,0.0,-4.8459,-4.7906,-4.8147,-4.9301,-4.9205,-4.9638,-5.0527,-5.0768,-5.1177,-5.173,-5.1441,-5.1321,-5.1321,-5.1249,-5.1129,-5.0936,-5.0503,-5.007,-4.971,0.0,0.0,0.0,0.0,-5.1032,-5.0888,-5.173,-5.2043,0.0,-5.2043,0.0,0.0,0.0,0.0,0.0,0.0,0.0,0.0,0.0,0.0,-5.274,-5.2788,-5.2812,-5.2812,-5.2812,-5.2235,-5.1537,0.0,-5.0792,-5.1129,-5.2259,0.0,0.0,0.0,0.0,-5.5878,-5.6323,-5.6915,-5.7517,-5.8247,-5.8752,-5.9041,-5.9041,-5.9041,-5.8824,-5.8271,-5.7983,-5.7478,-5.678,-5.565,-5.4688,0.0,0.0,0.0,0.0,0.0,0.0,0.0,0.0,0.0,0.0,0.0,0.0,0.0,0.0,0.0,0.0,0.0,0.0,0.0,0.0,0.0,0.0,0.0,0.0,0.0,0.0,0.0,0.0,-4.5357,-4.603,-4.6295,-4.692,-4.7112,0.0,0.0,0.0,0.0,0.0,0.0,-4.8892,-4.8652,-4.9133,-5.0431,-4.9854,-5.0143,-5.1489,-5.1081,-5.1489,-5.2668,-5.2668,-5.3077,-5.3798,-5.3437,-5.3341,-5.3437,-5.3197,-5.3389,-5.3726,-5.1874,-5.1249,-5.1513,-5.1634,-5.1537,-5.1417,-5.2331,-5.2427,-5.2235,-5.3293,-5.3654,-5.3654,-5.3654,-5.3582,-5.3389,-5.3004,0.0,0.0,0.0,0.0,-5.2908,-5.3053,-5.3365,-5.375,-5.4135,-5.4327,-5.4423,-5.4423,-5.4544,-5.4183,0.0,-5.2283,-5.2692,-5.3991,0.0,0.0,0.0,0.0,-5.6925,-5.7718,-5.7694,-5.8079,-5.9257,-5.9498,-5.9594,-5.9594,-5.9594,-5.9353,-5.8824,-5.844,-5.8151,-5.8007,-5.6732,-5.5842,-5.5433,0.0,0.0,0.0,0.0,0.0,0.0,0.0,0.0,0.0,0.0,0.0,0.0,0.0,0.0,0.0,0.0,0.0,0.0,0.0,0.0,0.0,0.0,0.0,0.0,0.0,0.0,0.0,0.0,0.0,-4.7473,-4.8339,0.0,0.0,0.0,0.0,-4.971,-5.0239,-5.0551,-5.0576,-5.1032,-5.1562,-5.2139,-5.2596,-5.3101,-5.3654,-5.363,-5.3654,-5.375,-5.375,-5.3774,-5.3822,-5.3798,-5.4063,-5.4544,-5.5025,-5.5554,-5.5866,-5.3269,-5.2788,-5.3558,-5.262,-5.2524,-5.3004,-5.3558,-5.3726,-5.3846,-5.4904,-5.5289,-5.5289,-5.5289,-5.4928,-5.452,-5.4496,-5.4135,0.0,0.0,-5.4471,-5.4616,-5.5097,-5.5265,-5.5289,-5.5313,-5.5722,-5.6107,-5.6107,-5.6492,-5.6371,0.0,-5.4447,-5.464,-5.5217,0.0,-5.6155,-5.6251,-5.7093,-5.7742,-5.779,-5.8656,-5.9305,-5.9378,-5.9834,-6.0123,-6.0123,-6.0123,-5.9907,-5.9378,-5.9329,-5.9089,-5.8584,-5.8007,-5.767,-5.7646,-5.6107,0.0,0.0,0.0,0.0,0.0,0.0,0.0,0.0,0.0,0.0,0.0,0.0,0.0,0.0,0.0,0.0,0.0,0.0,0.0,0.0,0.0,0.0,0.0,0.0,0.0,0.0,0.0,0.0,-4.8531,-4.9469,0.0,-4.9854,-5.0792,-5.1417,-5.1417,-5.2211,-5.2716,-5.2716,-5.2884,-5.3245,-5.375,-5.363,-5.4135,-5.5361,-5.5001,-5.5361,-5.6395,-5.6395,-5.6564,-5.6876,-5.654,-5.6492,-5.666,-5.6516,-5.6756,-5.7141,-5.5866,-5.5554,-5.5842,-5.5482,-5.5433,-5.5626,-5.5818,-5.6107,-5.6444,-5.6828,-5.7165,-5.7454,-5.7454,-5.7093,-5.666,-5.666,-5.6299,-5.5842,-5.5698,-5.589,-5.6203,-5.6395,-5.6684,-5.7021,-5.7381,-5.7622,-5.7742,-5.7742,-5.7911,-5.7862,-5.7285,-5.6636,-5.6444,-5.7309,-5.7333,-5.7478,-5.8151,-5.8295,-5.844,-5.8776,-5.8848,-5.9017,-5.9353,-5.9546,-5.9666,-5.9666,-5.9979,-6.0099,-5.9907,-5.9883,-5.9642,-5.9137,-5.8921,-5.8512,-5.7814,-5.7237,-5.678,0.0,0.0,0.0,0.0,0.0,0.0,0.0,0.0,0.0,0.0,0.0,0.0,0.0,0.0,0.0,0.0,0.0,0.0,0.0,0.0,0.0,0.0,0.0,0.0,0.0,0.0,-4.983,-4.9638,-5.0888,-5.161,-5.1273,-5.2499,-5.3269,-5.3077,-5.387,-5.4351,-5.4351,-5.4712,-5.5049,-5.5409,-5.5433,-5.5938,-5.7021,-5.666,-5.7021,-5.8079,-5.8079,-5.8271,-5.8584,-5.8223,-5.8175,-5.8319,-5.7983,-5.8223,-5.8824,-5.8295,-5.8199,-5.8271,-5.7357,-5.7141,-5.7285,-5.7285,-5.7502,-5.7838,-5.8007,-5.8295,-5.8608,-5.8608,-5.8367,-5.8079,-5.8079,-5.7838,-5.7478,-5.7141,-5.7285,-5.755,-5.755,-5.7814,-5.8175,-5.8512,-5.8728,-5.8872,-5.8872,-5.9017,-5.9137,-5.9137,-5.8271,-5.779,-5.8488,-5.8319,-5.844,-5.9498,-5.9209,-5.9113,-5.9834,-5.945,-5.9257,-5.9618,-5.9642,-5.9642,-5.9642,-6.0315,-6.058,-6.0195,-6.0532,-6.0412,-5.969,-5.981,-5.9594,-5.8897,-5.8704,-5.8271,-5.755,0.0,0.0,0.0,0.0,0.0,0.0,0.0,0.0,0.0,0.0,0.0,0.0,0.0,0.0,0.0,0.0,0.0,0.0,0.0,0.0,0.0,0.0,0.0,-4.9205,-5.0527,-5.1345,-5.0864,-5.2596,-5.3461,-5.2475,-5.4231,-5.5217,-5.4712,-5.5169,-5.5482,-5.5506,-5.6492,-5.7069,-5.7069,-5.8055,-5.8608,-5.8608,-5.8608,-5.8608,-5.8656,-5.8632,-5.8632,-5.8656,-5.8656,-5.8921,-5.9402,-5.9402,-6.0003,-6.0893,-6.0388,-6.0484,-6.0676,-5.8103,-5.7405,-5.7886,-5.7838,-5.7838,-5.7935,-5.8464,-5.8656,-5.8656,-5.8656,-5.8632,-5.8608,-5.8608,-5.8608,-5.8608,-5.8608,-5.8608,-5.8608,-5.8608,-5.8656,-5.8656,-5.8656,-5.9065,-5.945,-5.945,-5.9834,-6.0195,-6.0171,-5.9353,-5.8656,-5.8656,-5.8656,-5.8993,-6.0027,-5.9738,0.0,-6.0796,-6.0484,-6.0171,-6.0195,-6.0195,-6.0195,-6.0195,-6.1181,-6.1326,-6.0243,-6.1157,-6.1277,-6.0219,-6.0676,-6.0941,-6.0917,-6.0436,-5.9666,-5.8632,0.0,0.0,0.0,0.0,0.0,0.0,0.0,0.0,0.0,0.0,0.0,0.0,0.0,0.0,0.0,0.0,0.0,0.0,0.0,0.0,0.0,0.0,-5.0431,-5.0287,-5.1634,-5.2716,-5.2932,-5.3798,-5.4423,-5.452,-5.5433,-5.6107,-5.6347,-5.6852,-5.7309,-5.7694,-5.8007,-5.8175,-5.8175,-5.844,-5.8776,-5.9161,-5.8776,-5.8993,-5.9738,-5.9353,-5.9378,-5.9738,-5.9738,-5.981,-5.9955,-5.9955,-6.0123,-6.0388,-6.0243,-6.0267,-6.0291,-5.9161,-5.9065,-5.9426,-5.8656,-5.8632,-5.9041,-5.9546,-5.9738,-5.9738,-5.9738,-5.9474,-5.9161,-5.9161,-5.8897,-5.8608,-5.8608,-5.8872,-5.9161,-5.9161,-5.9738,-6.0315,-6.0315,-6.0724,-6.1013,-6.0628,-6.0652,-6.0628,-6.0243,-5.9931,-5.9738,-5.9738,-5.9738,-5.9834,-6.0123,-6.0051,0.0,-6.0364,-5.9931,-5.9907,-6.0676,-6.0748,-6.0748,-6.0748,-6.1374,-6.1301,-6.0243,-6.046,-6.0484,-6.0195,-6.0315,-6.0219,-5.9834,-6.0051,-5.9834,0.0,0.0,0.0,0.0,0.0,0.0,0.0,0.0,0.0,0.0,0.0,0.0,0.0,0.0,0.0,0.0,0.0,0.0,0.0,0.0,0.0,0.0,-5.1513,-5.2091,-5.2307,-5.3125,-5.3894,-5.4423,-5.4952,-5.5506,-5.6035,-5.6564,-5.7117,-5.7646,-5.7959,-5.8271,-5.8584,-5.88,-5.8921,-5.8921,-5.9353,-5.9642,-5.9714,-5.9642,-5.9786,-6.0171,-5.9859,-5.9883,-6.0171,-6.0171,-6.0171,-6.0171,-6.0171,-6.0291,-6.0484,-6.0267,-6.0315,0.0,0.0,0.0,0.0,0.0,-5.945,-5.9762,-6.0075,-6.0171,-6.0171,-6.0171,-5.9979,-5.9714,-5.9714,-5.9642,-5.9594,-5.9594,-5.9979,-6.0388,-6.0388,-6.0845,-6.1326,-6.1326,-6.1374,-6.135,-6.1037,-6.0796,-6.0532,-6.0243,-6.0364,0.0,-6.0508,-6.0315,-6.0243,-6.0484,-6.0508,-6.058,-6.082,-6.058,-6.0628,-6.1253,-6.1326,-6.1326,-6.1326,-6.1999,0.0,0.0,0.0,-6.1301,-6.0869,-6.1061,0.0,0.0,0.0,0.0,0.0,0.0,0.0,0.0,-5.8824,-5.8752,0.0,0.0,0.0,0.0,0.0,0.0,0.0,0.0,0.0,0.0,0.0,0.0,0.0,0.0,0.0,0.0,-5.3317,-5.4135,-5.4784,-5.488,-5.5049,-5.553,-5.6059,-5.6612,-5.7141,-5.7622,-5.8127,-5.8656,-5.868,-5.8704,-5.8776,0.0,0.0,0.0,0.0,-6.07,-6.0171,-6.058,-6.058,-6.0171,-6.0123,-6.0123,-6.0171,-6.0171,-6.0171,-6.0171,-6.0171,-6.0484,-6.0917,-6.046,-6.058,-6.0989,-6.0412,-6.0171,-6.0171,-6.0243,-6.0267,-6.0267,-6.0339,0.0,0.0,-6.0364,-6.0364,-6.0364,-6.0364,-6.0676,-6.1061,-6.1061,-6.1422,-6.1807,-6.1807,-6.1855,-6.1879,-6.1879,-6.1542,-6.1205,-6.1157,-6.0772,-6.0436,-6.0364,-6.0724,-6.1061,-6.1061,-6.0676,-6.0508,-6.0989,-6.1061,-6.1229,-6.1734,-6.1807,-6.1855,-6.1951,0.0,0.0,-6.1975,-6.2817,-6.2889,-6.1855,-6.2672,-6.2744,-6.1831,-6.2239,-6.2047,-6.1085,-6.1542,-6.1326,-6.0364,-6.0364,-6.0364,-6.0364,-6.0219,-6.0171,0.0,0.0,0.0,0.0,0.0,0.0,0.0,0.0,0.0,0.0,0.0,0.0,0.0,0.0,0.0,-5.3918,-5.4327,-5.4952,-5.6347,-5.6564,-5.6588,-5.6684,-5.7189,-5.7718,-5.8247,-5.8392,-5.8656,-5.9185,-5.9233,-5.9426,-5.9834,-6.0364,-6.046,-6.0027,-6.0628,-6.07,-6.0171,-5.9859,-5.9859,-6.0171,0.0,0.0,-6.0171,-6.0171,-6.0171,-6.0171,-6.0171,-6.0484,-6.0965,-6.0845,-6.1133,-6.1542,-6.0556,-6.0171,-6.0219,-6.0652,-6.082,-6.0869,-6.1326,-6.1494,-6.1494,-6.1494,-6.1494,-6.1494,-6.1494,-6.1542,0.0,-6.1638,-6.171,-6.1807,-6.1807,-6.2119,-6.2432,-6.2432,-6.2672,-6.2768,-6.236,-6.2191,-6.1999,-6.1566,-6.1566,-6.1638,-6.1638,-6.1542,-6.1518,-6.1614,-6.1638,-6.1686,-6.1782,-6.1807,-6.2119,-6.2961,-6.3033,-6.3033,-6.3033,-6.3225,-6.2889,-6.1855,-6.1975,-6.1999,-6.1807,-6.1903,-6.1855,-6.1638,-6.1758,-6.171,-6.1494,-6.1494,-6.1494,-6.147,-6.058,-6.0171,0.0,0.0,0.0,0.0,0.0,0.0,0.0,0.0,0.0,0.0,0.0,-5.1898,0.0,0.0,-5.387,-5.5193,-5.565,-5.6179,-5.7261,-5.7646,-5.7814,-5.7814,-5.8055,-5.8416,-5.8945,-5.8993,-5.9209,-5.9738,-6.0027,-6.0291,-6.0556,-6.082,-6.0845,-6.058,-6.082,-6.07,-6.0171,-6.0171,-6.0171,-6.0171,-6.0171,-6.0315,-6.058,-6.0869,-6.0989,-6.0989,-6.0989,-6.1133,-6.1374,-6.1374,-6.1542,-6.1758,-6.1205,-6.0989,-6.1013,-6.1277,-6.1374,-6.1422,-6.171,-6.1807,-6.1807,-6.1807,-6.1807,-6.1807,-6.1807,-6.1975,-6.2191,-6.2191,-6.2384,-6.2576,-6.2576,-6.2768,-6.2961,-6.2961,-6.2961,-6.2889,-6.2648,-6.2384,-6.2119,-6.1855,-6.2023,-6.2191,-6.2191,-6.2408,-6.2384,-6.1879,-6.2023,-6.2191,-6.2191,-6.2408,-6.2768,-6.3298,-6.3346,-6.3346,-6.3346,-6.3346,-6.3129,-6.26,-6.2576,-6.2456,-6.2191,-6.2191,-6.2071,-6.1807,-6.1807,-6.1807,-6.1807,-6.1807,-6.1807,-6.1782,-6.1253,-6.0989,0.0,0.0,0.0,0.0,0.0,0.0,0.0,0.0,-5.1177,-5.2596,-5.2884,-5.3341,-5.4808,-5.5073,-5.5433,-5.6516,-5.7045,-5.7502,-5.8031,-5.8488,-5.8776,-5.8897,-5.88,-5.8969,-5.9498,-5.9642,-5.9859,-6.0291,-6.0724,-6.0965,-6.0965,-6.0965,-6.0917,-6.082,-6.0917,-6.0748,-6.0339,-6.0748,-6.0796,-6.0484,-6.0917,-6.1133,-6.1133,-6.159,-6.1807,-6.1807,-6.1903,-6.1951,-6.1951,-6.2047,-6.2095,-6.2095,-6.2095,-6.2095,-6.2095,-6.1999,-6.1951,-6.1975,-6.2071,-6.2095,-6.2095,-6.2095,-6.2095,-6.2095,-6.2095,-6.2408,-6.2744,-6.2865,-6.3177,-6.3514,-6.361,-6.3634,-6.3634,-6.3634,-6.3249,-6.2889,-6.2889,-6.248,-6.2095,-6.2095,-6.2432,-6.2744,-6.2744,-6.3081,-6.3057,-6.2215,-6.2456,-6.2744,-6.2744,-6.3081,-6.3346,-6.3346,-6.3346,-6.3346,-6.3346,-6.3346,-6.3346,-6.3346,-6.3346,-6.3153,-6.2744,-6.2744,-6.2528,-6.2119,-6.2095,-6.2095,-6.2095,-6.2095,-6.2095,-6.2095,-6.2095,-6.1999,-4.9421,0.0,0.0,-5.0407,-5.1225,-5.2187,0.0,0.0,-5.4255,-5.4904,-5.5049,-5.5385,-5.654,-5.6756,-5.7093,-5.8175,-5.8392,-5.8608,-5.9137,-5.9257,-5.9474,-5.9955,-5.9594,-5.9498,-6.0027,-6.0508,-6.082,-6.0869,-6.0941,-6.0965,-6.0965,-6.0965,-6.0748,-6.0267,-6.0724,-6.0941,-6.0869,-6.0941,-6.1181,-6.1614,-6.1686,-6.171,-6.171,-6.1758,-6.1807,-6.1831,-6.2287,-6.2504,-6.2528,-6.2985,-6.3177,-6.3177,-6.3177,-6.3177,-6.3105,-6.2672,-6.2504,-6.2552,-6.3009,-6.3177,-6.3177,-6.3177,-6.3177,-6.3177,-6.3177,-6.3201,-6.3346,-6.3827,-6.3995,-6.4139,-6.462,-6.4741,-6.4741,-6.4741,-6.4332,-6.3947,-6.3947,-6.3538,-6.3177,-6.3177,-6.3225,-6.3249,-6.3249,-6.3298,-6.3298,-6.3177,-6.3225,-6.3249,-6.3249,-6.3298,-6.3346,-6.3346,-6.3346,-6.3346,-6.3346,-6.3346,-6.3346,-6.3346,-6.3346,-6.3322,-6.3249,-6.3249,-6.3225,-6.3177,-6.3177,-6.3177,-6.3177,-6.3177,-6.3177,-6.3177,-6.3177,-6.2672,-5.1417,0.0,0.0,0.0,-5.3317,-5.375,-5.4183,-5.4447,-5.4928,-5.6107,-5.6347,-5.666,-5.7742,-5.7935,-5.8079,0.0,-5.8848,-5.9233,-5.9762,-6.0099,-6.0508,-6.1061,-6.0917,-6.0628,-6.0219,-6.0652,-6.0845,-6.0532,-6.0796,-6.0965,-6.0965,-6.0965,-6.1013,-6.1109,-6.1013,-6.1133,-6.1446,-6.1446,-6.1566,-6.1807,-6.2119,-6.2263,-6.2263,-6.2576,-6.2696,-6.272,-6.2937,-6.3033,-6.3033,-6.3249,-6.3346,-6.3346,-6.3346,-6.3346,-6.3322,-6.3105,-6.3033,-6.3057,-6.3274,-6.3346,-6.3394,-6.3706,-6.3803,-6.3851,-6.4163,-6.426,-6.4308,-6.4524,-6.4596,-6.4644,-6.4861,-6.4909,-6.4837,-6.4524,-6.4284,-6.4043,-6.373,-6.349,-6.3346,-6.3346,-6.3346,-6.3346,-6.3346,-6.3346,-6.3346,-6.3346,-6.3346,-6.3346,-6.3346,-6.3346,-6.3466,-6.3754,-6.3803,-6.3923,-6.4235,-6.426,-6.426,-6.426,-6.426,-6.426,-6.426,-6.426,-6.426,-6.426,-6.426,-6.426,-6.426,-6.426,-6.426,-6.426,-6.426,-6.4019,-5.2716,0.0,0.0,-5.4279,-5.4832,-5.5097,-5.5241,-5.5385,-5.5914,-5.7381,-5.755,-5.779,-5.8824,-5.8921,-5.8921,-5.9209,-5.957,-6.0003,-6.0556,-6.0965,-6.135,-6.1758,-6.1807,-6.1422,-6.0484,-6.0869,-6.0965,-6.0436,-6.0748,-6.0965,-6.0965,-6.0965,-6.1157,-6.1566,-6.1326,-6.147,-6.2023,-6.2023,-6.2095,-6.2239,-6.26,-6.2793,-6.2817,-6.3177,-6.3346,-6.3346,-6.3346,-6.3346,-6.3346,-6.349,-6.3562,-6.3562,-6.3706,-6.3779,-6.3779,-6.3779,-6.3682,-6.3586,-6.373,-6.3779,-6.3827,-6.4211,-6.4356,-6.4428,-6.4789,-6.4909,-6.4957,-6.5101,-6.5125,-6.5173,-6.5318,-6.5342,-6.5246,-6.4861,-6.4548,-6.4235,-6.3851,-6.3538,-6.3346,-6.3346,-6.3466,-6.3562,-6.3562,-6.3682,-6.3779,-6.3779,-6.3779,-6.373,-6.3586,-6.3682,-6.3923,-6.4308,-6.4356,-6.45,-6.4885,-6.4909,-6.4909,-6.4909,-6.4909,-6.4909,-6.4909,-6.4909,-6.4909,-6.4909,-6.4909,-6.4909,-6.4909,-6.4909,-6.4909,-6.4909,-6.4909,-6.4909,0.0,0.0,-5.3918,-5.4471,-5.5409,-5.6323,-5.6828,-5.7333,-5.8007,-5.9089,-5.8897,-5.8872,-5.9931,-5.9714,-5.969,-6.0724,-6.0917,-6.1109,-6.1662,-6.1758,-6.1782,-6.1807,-6.1807,-6.1566,0.0,-6.1446,-6.1542,-6.0989,-6.0965,-6.0965,-6.0965,-6.0965,-6.0965,-6.0989,-6.1494,-6.2023,-6.2552,-6.2576,-6.2817,-6.3298,-6.3298,-6.3322,-6.3322,-6.3322,-6.3346,-6.3346,-6.3346,-6.3346,-6.337,-6.3899,-6.4115,-6.4163,-6.4668,-6.4861,-6.4861,-6.4861,-6.4548,-6.4163,-6.4692,-6.4861,-6.4861,-6.4885,-6.4885,-6.4885,-6.4909,-6.4909,-6.5029,-6.5534,-6.5678,-6.5799,-6.6304,-6.6448,-6.6448,-6.6424,-6.563,-6.4885,-6.4861,-6.4067,-6.3346,-6.3346,-6.3754,-6.4115,-6.4115,-6.4524,-6.4861,-6.4861,-6.4861,-6.4668,-6.4163,-6.4548,-6.4885,-6.4885,-6.4885,-6.4909,-6.4909,-6.4909,-6.4909,-6.4909,-6.4909,-6.4909,-6.4909,-6.4909,-6.4909,-6.4909,-6.4909,-6.4909,-6.4909,-6.4909,-6.4909,-6.4909,-6.4909,-6.4909,0.0,0.0,-5.5169,-5.6419,-5.6997,-5.7405,-5.7935,-5.8199,-5.8536,-5.9233,-5.9257,-5.9329,-6.0051,-6.0315,-6.0556,-6.0917,-6.1277,-6.171,-6.2239,-6.2312,-6.2312,-6.2312,-6.2312,0.0,0.0,0.0,0.0,-6.0484,-6.0772,-6.0965,-6.0965,-6.1326,-6.1686,-6.2023,-6.2215,-6.2576,-6.3081,-6.3081,-6.3177,-6.3346,-6.3346,-6.3346,-6.3346,-6.3346,-6.3538,-6.3851,-6.3851,-6.4067,-6.4404,-6.4572,-6.4644,-6.4668,-6.4837,-6.4909,-6.4957,-6.5318,-6.5318,-6.5149,-6.4981,-6.4909,-6.4981,-6.5318,-6.5438,-6.551,-6.5847,-6.5967,-6.5991,-6.6183,-6.6232,-6.628,-6.6448,-6.6496,-6.6328,-6.5606,-6.5173,-6.4716,-6.4019,-6.3875,-6.3851,-6.3851,-6.4284,-6.4765,-6.5101,-6.5318,-6.5678,-6.6376,-6.5895,-6.5246,-6.4716,-6.5101,-6.5438,-6.5438,-6.5438,-6.5582,-6.5943,-6.5967,-6.5967,-6.5967,-6.5967,-6.5967,-6.5967,-6.5967,-6.5967,-6.5967,-6.5967,-6.5967,-6.5967,-6.5967,-6.5967,-6.5967,-6.5967,-6.5967,0.0,-5.5842,-5.6275,-5.7502,-5.7959,-5.8223,-5.8752,-5.8872,-5.9089,-5.981,-5.9786,-5.9834,-6.0364,-6.0724,-6.1037,-6.1229,-6.1734,-6.2191,-6.2528,-6.2576,-6.2528,-6.2336,-6.2119,-6.1807,0.0,0.0,0.0,-6.0484,-6.0965,-6.1253,-6.1253,-6.1782,-6.2239,-6.2576,-6.2768,-6.3009,-6.3346,-6.3346,-6.3346,-6.3346,-6.3346,-6.3346,-6.3346,-6.3538,-6.3803,-6.4139,-6.4332,-6.4596,-6.4933,-6.5125,-6.5197,-6.5221,-6.5414,-6.5486,-6.551,-6.5871,-6.5991,-6.5943,-6.5582,-6.5486,-6.5534,-6.5871,-6.5991,-6.6039,-6.64,-6.6496,-6.6496,-6.6496,-6.6496,-6.6496,-6.6496,-6.6496,-6.6328,-6.563,-6.5342,-6.5005,-6.4332,-6.4452,-6.4692,-6.4692,-6.527,-6.5871,-6.6208,-6.6424,-6.6785,-6.7482,-6.7169,-6.6664,-6.6135,-6.6352,-6.6496,-6.628,-6.6256,-6.6328,-6.6472,-6.6496,-6.6496,-6.6496,-6.6496,-6.6496,-6.6496,-6.6496,-6.6496,-6.6496,-6.6496,-6.6496,-6.6496,-6.6496,-6.6496,-6.6496,-6.6496,-6.6496,-5.6035,-5.6684,-5.7189,-5.7742,-5.8271,-5.8776,-5.9305,-5.9426,-5.9714,-6.0724,-6.0532,-6.0339,0.0,0.0,-6.1181,-6.1758,-6.2287,-6.2624,-6.2576,-6.2576,-6.2384,0.0,0.0,0.0,0.0,0.0,0.0,-6.1037,0.0,-6.1831,-6.1831,-6.2336,-6.2624,-6.2624,-6.3081,-6.3346,-6.3346,-6.3346,-6.3346,-6.3346,-6.3346,-6.3346,-6.3394,-6.3899,-6.4163,-6.4235,-6.4741,-6.4981,-6.5029,-6.5534,-6.5751,-6.5799,-6.6304,-6.6496,-6.6496,-6.6496,-6.6496,-6.6496,-6.6496,-6.6496,-6.6496,-6.6496,-6.6496,-6.6496,-6.6496,-6.6496,-6.6496,-6.6496,-6.6472,-6.6448,-6.6448,-6.6448,-6.6448,-6.6448,-6.6087,-6.5751,-6.5751,-6.5775,-6.5775,-6.5775,-6.664,-6.7362,-6.7362,-6.7819,-6.8204,-6.8204,-6.8636,-6.8757,-6.818,-6.8131,-6.7939,-6.7386,-6.7314,-6.7097,-6.6568,-6.652,-6.652,-6.6496,-6.6496,-6.6496,-6.6496,-6.6496,-6.6496,-6.6496,-6.6496,-6.6496,-6.6496,-6.6496,-6.6496,-6.6496,-6.652,-6.652,-5.7237,-5.7502,-5.7838,-5.8752,-5.9089,-5.9329,-5.9859,-5.9979,-6.0051,-6.0315,-6.0267,-6.0339,0.0,0.0,0.0,-6.2287,-6.2817,0.0,-6.2648,-6.2576,0.0,0.0,0.0,-6.1638,-6.1782,-6.2023,0.0,0.0,-6.2312,-6.2384,-6.2384,-6.2865,-6.3153,-6.3153,-6.3274,-6.3346,-6.3346,-6.3346,-6.3346,-6.3346,-6.3346,-6.3538,-6.3923,-6.4067,-6.4572,-6.5318,-6.5438,-6.5727,-6.6087,-6.6232,-6.6304,-6.6304,-6.6448,-6.6496,-6.6496,-6.6496,-6.6496,-6.6496,-6.6496,-6.6496,-6.6496,-6.6496,-6.6496,-6.6496,-6.6496,-6.6496,-6.6496,-6.6496,-6.6208,-6.5895,-6.5895,-6.5895,-6.5895,-6.5895,-6.6111,-6.6304,-6.6304,-6.6592,-6.6881,-6.6881,-6.7747,-6.8492,-6.8492,-6.8925,-6.9286,-6.9286,-6.9406,-6.9166,-6.8228,-6.8468,-6.8492,-6.7963,-6.7915,-6.7675,-6.7121,-6.7073,-6.6905,-6.652,-6.6496,-6.6496,-6.6496,-6.6496,-6.6496,-6.6496,-6.6496,-6.6496,-6.6496,-6.6496,-6.6496,-6.6496,-6.6905,-6.7073,-5.7742,-5.8151,-5.8656,-5.9233,-5.957,-5.981,-6.0099,-6.0171,-6.0171,-6.0171,-6.0171,0.0,0.0,0.0,0.0,0.0,0.0,0.0,-6.2648,-6.2384,-6.2143,0.0,-6.159,0.0,-6.2095,-6.2408,-6.2672,0.0,-6.2913,-6.2913,-6.2913,-6.3177,-6.3346,-6.3346,-6.3346,-6.3346,-6.3346,-6.3346,-6.3346,-6.3346,-6.3586,-6.3851,-6.4139,-6.462,-6.5149,-6.5727,0.0,-6.6208,-6.6496,-6.6496,-6.6496,-6.6496,-6.6496,-6.6496,-6.6496,-6.6496,-6.6496,-6.6472,-6.6232,-6.6135,-6.6183,-6.6424,-6.6328,-6.6135,-6.6135,-6.5991,-6.5799,-6.5799,-6.5751,-6.5751,-6.5991,-6.6232,-6.6448,-6.6713,-6.7001,-6.7194,-6.7194,-6.7626,-6.8059,-6.83,-6.8829,-6.9262,-6.9262,-6.9502,-6.9695,-6.9695,-6.9695,-6.9478,-6.8877,-6.9069,-6.9045,-6.8516,-6.8468,-6.8228,-6.7699,-6.765,-6.753,-6.7218,-6.7194,-6.7097,-6.6857,-6.6833,-6.6833,-6.6833,-6.6616,-6.6737,-6.7194,-6.6953,-6.6977,-6.7218,-6.7506,-6.765,-5.7983,-5.868,-5.9402,-5.9474,-5.9834,-6.0171,-6.0171,-6.0171,-6.0171,-6.0171,0.0,-6.0364,-6.0965,0.0,-6.1975,-6.2504,0.0,-6.3033,-6.2456,-6.1975,-6.171,-6.1782,-6.1374,-6.1494,-6.2576,-6.2696,-6.2865,-6.3298,-6.3346,-6.3346,-6.3346,-6.3346,-6.3346,-6.3346,-6.3346,-6.3346,-6.3346,-6.3418,-6.3442,-6.3442,-6.3971,-6.426,-6.4356,-6.5294,-6.5751,-6.5847,-6.6304,-6.6496,-6.6496,-6.6496,-6.6496,-6.6496,-6.6496,-6.6496,-6.6472,-6.6424,-6.6376,-6.6304,-6.5775,-6.5606,-6.5678,-6.6135,-6.5967,-6.5606,-6.5678,-6.5438,-6.5149,-6.5197,-6.5558,-6.6015,-6.6472,-6.6929,-6.7434,-6.7987,-6.818,-6.8252,-6.8324,-6.8685,-6.9142,-6.9598,-6.9695,-6.9695,-6.9695,-6.9695,-6.9695,-6.9695,-6.9695,-6.9695,-6.9695,-6.9695,-6.9526,-6.9069,-6.9021,-6.8805,-6.8276,-6.8228,-6.818,-6.8131,-6.8107,-6.7891,-6.741,-6.7386,-6.7386,-6.7386,-6.6929,-6.7169,-6.8107,-6.7626,-6.765,-6.8107,-6.818,-6.8228,-5.8872,-5.9257,-5.9498,-5.9931,-6.0099,-6.0171,-6.0171,-6.0171,0.0,0.0,0.0,-6.0484,-6.147,-6.1734,0.0,-6.2504,0.0,0.0,0.0,0.0,-6.1277,0.0,0.0,0.0,0.0,0.0,0.0,0.0,0.0,-6.3346,-6.3346,-6.3346,-6.3346,-6.3346,-6.3346,-6.3346,-6.3346,-6.3779,-6.3995,-6.3995,-6.4524,-6.5005,-6.5438,-6.563,-6.5943,-6.6352,-6.6448,0.0,-6.6496,-6.6496,-6.6496,-6.6496,-6.6496,-6.6496,-6.6448,-6.5991,-6.5847,-6.5775,-6.5246,-6.5053,-6.5053,-6.5149,-6.5125,-6.5125,-6.5582,-6.5943,-6.6304,-6.6737,-6.6929,-6.7025,-6.7121,-6.7218,-6.7434,-6.7987,-6.8444,-6.8877,-6.9334,-6.9502,-6.9574,-6.9671,-6.9695,-6.9695,-6.9695,-6.9695,-6.9695,-6.9695,-6.9695,-6.9695,-6.9695,-6.9695,-6.9671,-6.9574,-6.955,-6.9334,-6.8805,-6.8781,-6.8588,-6.8155,-6.8107,-6.8083,-6.7987,-6.7963,-6.7963,-6.7963,-6.7891,-6.7939,-6.8107,-6.8011,-6.8011,-6.8131,-6.8564,-6.8781,-5.9257,-5.9594,-5.9859,-6.0123,-6.0171,-6.0171,-6.0171,0.0,0.0,0.0,0.0,-6.0412,-6.1229,0.0,0.0,0.0,0.0,0.0,0.0,0.0,0.0,0.0,0.0,0.0,0.0,0.0,0.0,0.0,0.0,-6.3346,-6.3346,-6.3346,-6.3346,-6.3346,-6.3346,-6.3466,-6.3754,-6.3995,-6.426,-6.4548,-6.5077,-6.5462,-6.5702,-6.5991,-6.6256,-6.6496,-6.6496,0.0,-6.6496,-6.6496,-6.6496,-6.6472,-6.6183,-6.6087,-6.6015,-6.5486,-6.563,-6.6039,-6.551,-6.5678,-6.6087,-6.5823,-6.5534,-6.5486,-6.628,-6.652,-6.6544,-6.6809,-6.7073,-6.7338,-6.7626,-6.7915,-6.8276,-6.8805,-6.9142,-6.9382,-6.9647,-6.9695,-6.9695,-6.9695,-6.9695,-6.9695,-6.9695,-6.9695,-6.9695,-6.9695,-6.9695,-6.9695,-6.9695,-6.9935,-7.0007,-6.9719,-6.9935,-7.0007,-6.9743,-6.9983,-7.0031,-6.9767,-6.9767,-6.9647,-6.9358,-6.9358,-6.9214,-6.8949,-6.8661,-6.8661,-6.8925,-6.8661,-6.8661,-6.8949,-6.919,-6.931,-5.9498,-5.9859,-6.0171,-6.0171,-6.0171,-6.0171,-6.0171,-6.0171,0.0,0.0,-6.0171,-6.0339,-6.0869,0.0,0.0,0.0,0.0,0.0,0.0,0.0,0.0,0.0,0.0,0.0,0.0,0.0,0.0,0.0,0.0,0.0,-6.3346,-6.3346,-6.3346,-6.3346,-6.3442,-6.3706,-6.4115,-6.4356,-6.4668,-6.5101,-6.563,-6.5871,-6.5895,-6.6304,-6.6496,-6.6496,-6.6496,-6.6496,0.0,-6.6376,-6.6328,-6.628,-6.5751,-6.5678,-6.5799,-6.527,-6.5751,-6.6592,-6.6063,-6.6424,-6.7073,-6.6905,-6.64,-6.6039,-6.7001,-6.7073,-6.6857,-6.6977,-6.7386,-6.7891,-6.8348,-6.8757,-6.919,-6.9598,-6.9695,-6.9695,-6.9695,-6.9695,-6.9695,-6.9695,-6.9695,-6.9695,-6.9695,-6.9695,-6.9695,-6.9695,-6.9791,-6.9863,-6.9863,-7.032,-7.0488,-7.0079,-7.0392,-7.0657,-7.0657,-7.1041,-7.1282,-7.1282,-7.1282,-7.109,-7.0681,-7.0657,-7.0464,-7.0031,-6.9622,-6.9622,-7.0031,-6.9622,-6.9622,-7.0031,-7.0031,-7.0031,-5.9834,-6.0123,-6.0171,-6.0171,-6.0171,-6.0171,-6.0171,0.0,0.0,-6.0171,-6.0171,-6.0339,-6.0869,0.0,0.0,0.0,0.0,-6.1879,0.0,0.0,0.0,0.0,0.0,0.0,0.0,0.0,0.0,0.0,0.0,0.0,-6.3346,-6.3346,-6.3346,-6.3346,-6.3803,-6.4067,-6.4115,-6.5077,-6.5582,-6.563,-6.6159,-6.6424,-6.6424,-6.6472,-6.6496,-6.6496,-6.6496,-6.6496,0.0,-6.5967,-6.5775,-6.5727,-6.5197,-6.5582,-6.6352,-6.5823,-6.6304,-6.7121,-6.6592,-6.6472,-6.6713,-6.765,-6.7266,-6.652,-6.7097,-6.7602,-6.8059,-6.854,-6.9069,-6.9478,-6.9526,-6.9574,-6.9622,-6.9695,-6.9695,-6.9695,-6.9695,-6.9695,-6.9695,-6.9695,-6.9695,-6.9695,-6.9695,-6.9695,-6.9695,-6.9695,-7.0103,-7.0416,-7.0416,-7.0873,-7.1186,-7.1138,-7.1162,-7.121,-7.121,-7.1234,-7.1282,-7.1282,-7.1282,-7.1258,-7.121,-7.121,-7.1186,-7.1138,-7.109,-7.1065,-7.1138,-7.1065,-7.109,-7.1138,-7.1138,-7.1138,-5.9979,-6.0171,-6.0171,-6.0171,-6.0171,-6.0171,-6.0171,0.0,0.0,-6.0171,-6.0171,-6.0243,-6.046,0.0,0.0,0.0,0.0,0.0,0.0,0.0,0.0,0.0,0.0,0.0,0.0,0.0,0.0,0.0,0.0,0.0,-6.3803,-6.3803,-6.3803,-6.3803,-6.4332,-6.4765,-6.5077,-6.5486,-6.5871,-6.6183,-6.64,-6.6496,-6.6496,-6.6496,-6.6496,-6.6472,-6.6159,-6.6015,0.0,-6.5438,-6.5414,-6.5678,-6.5462,-6.5847,-6.6472,-6.6256,-6.6857,-6.7747,-6.7554,-6.7891,-6.8492,-6.8925,-6.8781,-6.8468,-6.8661,-6.8877,-6.9117,-6.9334,-6.9526,-6.9695,-6.9695,-6.9695,-6.9695,-6.9695,-6.9695,-6.9695,-6.9695,-6.9695,-6.9695,-6.9695,-6.9695,-6.9695,-6.9695,-6.9959,-7.0176,-7.0176,-7.0609,-7.0945,-7.0945,-7.1426,-7.1739,-7.1739,-7.1739,-7.1739,-7.1739,-7.2027,-7.2196,-7.2196,-7.2196,-7.2196,-7.2196,-7.2196,-7.2051,-7.1763,-7.1739,-7.1595,-7.1282,-7.1282,-7.1282,-7.1282,-7.1282,-7.1282,-5.9979,-6.0171,-6.0171,-6.0171,-6.0051,-5.9979,0.0,0.0,0.0,-6.0147,-6.0171,-6.0171,-6.0171,-6.1061,-6.1807,0.0,0.0,-6.2047,-6.2047,0.0,0.0,0.0,0.0,0.0,0.0,0.0,0.0,0.0,0.0,0.0,-6.4356,-6.45,-6.4524,-6.4356,-6.4885,-6.5318,-6.5702,-6.5871,-6.6135,-6.6496,-6.6496,-6.6496,-6.6496,-6.6496,-6.64,-6.6232,-6.5871,-6.5606,0.0,-6.5077,-6.5221,-6.5702,-6.5702,-6.6232,-6.6977,-6.6977,-6.765,-6.8588,-6.8588,-6.9069,-6.9695,-6.9695,-6.9695,-6.9695,-6.9695,-6.9695,-6.9695,-6.9695,-6.9695,-6.9695,-6.9695,-6.9695,-6.9695,-6.9695,-6.9695,-6.9695,-6.9695,-6.9695,-6.9695,-6.9695,-6.9815,-6.9935,-6.9935,-7.0368,-7.0729,-7.0729,-7.1162,-7.1498,-7.1498,-7.1955,-7.2292,-7.2292,-7.2292,-7.2292,-7.2292,-7.2605,-7.2821,-7.2821,-7.2821,-7.2821,-7.2821,-7.2821,-7.2653,-7.2292,-7.2292,-7.21,-7.1715,-7.1715,-7.1715,-7.1715,-7.1715,-7.1715,-5.9883,-6.0171,-6.0171,-6.0171,-5.9786,-5.9522,0.0,0.0,0.0,-6.0075,-6.0171,-6.0171,-6.0171,-6.1061,-6.1807,-6.1807,-6.2239,0.0,-6.2576,0.0,0.0,0.0,0.0,0.0,0.0,0.0,0.0,0.0,0.0,0.0,-6.4885,-6.539,-6.5438,-6.4933,-6.5414,-6.5702,-6.5702,-6.6232,-6.6472,-6.6496,-6.6496,-6.6496,-6.6496,-6.6496,-6.6208,-6.5702,-6.5702,-6.5414,0.0,-6.4909,-6.5221,-6.5702,-6.5702,-6.6688,-6.8107,-6.8107,-6.8781,-6.9671,-6.9671,-6.9695,-6.9695,-6.9695,-6.9695,-6.9695,-6.9695,-6.9695,-6.9695,-6.9695,-6.9695,-6.9695,-6.9695,-6.9695,-6.9695,-6.9695,-6.9695,-6.9695,-6.9695,-6.9695,-6.9695,-6.9695,-7.0128,-7.0464,-7.0464,-7.0921,-7.1258,-7.1258,-7.1715,-7.2051,-7.2051,-7.2484,-7.2797,-7.2797,-7.2797,-7.2797,-7.2797,-7.2821,-7.2821,-7.2821,-7.2821,-7.2821,-7.2821,-7.2821,-7.2821,-7.2797,-7.2797,-7.2797,-7.2797,-7.2797,-7.2797,-7.2797,-7.2797,-7.2797,-5.9883,-6.0171,-6.0075,-5.9714,-5.9786,-5.9883,-5.969,0.0,0.0,-6.0075,-5.9883,-5.9738,-6.0099,-6.1061,-6.1807,-6.1807,-6.1951,0.0,0.0,0.0,0.0,0.0,0.0,0.0,0.0,0.0,0.0,0.0,0.0,0.0,-6.5438,-6.5967,-6.5991,-6.5462,-6.5967,-6.6232,-6.6232,-6.64,-6.6496,-6.6496,-6.6496,-6.6496,-6.6472,-6.6111,-6.5871,-6.5678,-6.5318,-6.527,-6.5462,-6.5462,-6.5991,-6.6833,-6.7194,-6.7891,-6.8709,-6.9069,-6.9406,-6.9695,-6.9695,-6.9695,-6.9695,-6.9695,-6.9695,-6.9695,-6.9695,-6.9695,-6.9695,-6.9695,-6.9695,-6.9695,-6.9695,-6.9695,-6.9695,-6.9695,-6.9695,-6.9695,-6.9695,-6.9983,-7.0224,-7.0224,-7.0657,-7.1017,-7.1017,-7.145,-7.1811,-7.1811,-7.2244,-7.2581,-7.2581,-7.2701,-7.2821,-7.2821,-7.2821,-7.2821,-7.2821,-7.2821,-7.2821,-7.2821,-7.2821,-7.2821,-7.2821,-7.2821,-7.2821,-7.2821,-7.2821,-7.2821,-7.2821,-7.2821,-7.2821,-7.2821,-7.2821,-7.2821,-5.9594,-6.0027,-6.0099,-5.9762,-5.9786,-5.9834,0.0,0.0,0.0,0.0,0.0,-5.9618,-6.0339,-6.1181,-6.1855,-6.2071,-6.2263,0.0,0.0,0.0,0.0,0.0,0.0,0.0,0.0,0.0,0.0,0.0,0.0,0.0,-6.5991,-6.6304,-6.6352,-6.6015,-6.6328,-6.6496,-6.6496,-6.6496,-6.6496,-6.6496,-6.6496,-6.6376,-6.6183,-6.5847,-6.5582,-6.539,-6.527,-6.539,0.0,-6.6135,-6.6809,-6.765,-6.8204,-6.8733,-6.9238,-6.9574,-6.9695,-6.9695,-6.9695,-6.9695,-6.9695,-6.9695,-6.9695,-6.9695,-6.9695,-6.9695,-6.9695,-6.9695,-6.9695,-6.9695,-6.9695,-6.9695,-6.9695,-6.9695,-6.9839,-6.9983,-6.9983,-7.0392,-7.0777,-7.0777,-7.121,-7.157,-7.157,-7.2003,-7.234,-7.234,-7.2605,-7.2821,-7.2821,-7.2821,-7.2821,-7.2821,-7.2821,-7.2821,-7.2821,-7.2821,-7.2821,-7.2821,-7.2821,-7.2821,-7.2821,-7.2821,-7.2821,-7.2821,-7.2821,-7.2821,-7.2821,-7.2821,-7.2821,-7.2821,-7.2821,-7.2821,0.0,-5.9666,-6.0171,-6.0123,-5.9786,-5.957,-6.0027,0.0,0.0,0.0,0.0,0.0,-6.0772,-6.1422,-6.1975,-6.2504,-6.2985,0.0,0.0,0.0,0.0,0.0,0.0,0.0,0.0,0.0,0.0,0.0,0.0,0.0,-6.6472,-6.6496,-6.6496,-6.6496,-6.6496,-6.6496,-6.6496,-6.6496,-6.6496,-6.6496,-6.6448,-6.6183,-6.5702,-6.5654,-6.539,0.0,-6.5534,-6.5799,0.0,-6.6977,-6.7723,-6.8276,-6.8781,-6.9262,-6.9695,-6.9695,-6.9695,-6.9695,-6.9695,-6.9695,-6.9695,-6.9695,-6.9695,-6.9695,-6.9695,-6.9695,-6.9695,-6.9695,-6.9695,-6.9695,-6.9695,-6.9695,-6.9695,-6.9743,-7.0128,-7.0488,-7.0536,-7.0945,-7.133,-7.133,-7.1763,-7.2124,-7.2124,-7.2508,-7.2797,-7.2773,-7.2749,-7.2749,-7.2749,-7.2725,-7.2725,-7.2797,-7.2773,-7.2773,-7.2821,-7.2821,-7.2821,-7.2821,-7.2821,-7.2821,-7.2821,-7.2821,-7.2821,-7.2821,-7.2821,-7.2821,-7.2821,-7.2821,-7.2821,-7.2821,-7.2821,-7.2821,-5.7021,0.0,-6.0075,-5.9666,-5.9786,-5.9907,0.0,0.0,0.0,0.0,0.0,0.0,0.0,-6.1734,-6.2432,-6.2576,-6.2696,0.0,0.0,0.0,0.0,0.0,0.0,0.0,0.0,0.0,0.0,0.0,0.0,-6.6352,-6.6472,-6.6496,-6.6496,-6.6496,-6.6496,-6.6496,-6.6496,-6.6496,-6.6496,-6.6496,-6.6087,-6.5823,-6.5678,-6.5294,-6.5246,-6.5534,-6.6087,-6.6785,-6.7602,-6.8252,-6.8829,-6.9334,-6.9454,-6.9574,-6.9695,-6.9695,-6.9695,-6.9695,-6.9695,-6.9695,-6.9695,-6.9695,-6.9695,-6.9695,-6.9695,-6.9695,-6.9695,-6.9695,-6.9695,-6.9695,-6.9695,-6.9695,-6.9791,-7.02,-7.0392,-7.0584,-7.0993,-7.1498,-7.1859,-7.1859,-7.2292,-7.2629,-7.2629,-7.2725,-7.2677,-7.2292,-7.2244,-7.2244,-7.2244,-7.1883,-7.1931,-7.2725,-7.246,-7.2388,-7.2773,-7.2821,-7.2821,-7.2821,-7.2821,-7.2821,-7.2821,-7.2821,-7.2821,-7.2821,-7.2821,-7.2821,-7.2821,-7.2821,-7.2821,-7.2821,-7.2821,-7.2821,-5.6251,-5.7814,-5.9378,-5.9089,-5.9426,-5.9738,-5.945,0.0,0.0,0.0,0.0,0.0,0.0,0.0,0.0,0.0,-6.2744,0.0,0.0,0.0,0.0,0.0,0.0,0.0,0.0,0.0,0.0,0.0,0.0,-6.6496,-6.6496,-6.6496,-6.6496,-6.6496,-6.6496,-6.6496,-6.6496,-6.6496,-6.6376,-6.6135,-6.5847,-6.5582,-6.5342,-6.5294,-6.5558,-6.6111,-6.6905,-6.7699,-6.8516,-6.9045,-6.943,-6.9695,-6.9695,-6.9695,-6.9695,-6.9695,-6.9695,-6.9695,-6.9695,-6.9695,-6.9695,-6.9695,-6.9695,-6.9695,-6.9695,-6.9695,-6.9695,-6.9695,-6.9695,-6.9743,-6.9983,-7.0055,-7.02,-7.0729,-7.1041,-7.1282,-7.157,-7.2027,-7.2412,-7.2412,-7.2629,-7.2725,-7.2508,-7.2653,-7.2629,-7.2124,-7.2051,-7.2051,-7.2051,-7.1595,-7.1474,-7.2051,-7.2076,-7.2076,-7.21,-7.2532,-7.2821,-7.2821,-7.2821,-7.2821,-7.2821,-7.2821,-7.2821,-7.2821,-7.2821,-7.2821,-7.2821,-7.2821,-7.2821,-7.2821,-7.2821,-7.2821,-5.5746,-5.7093,-5.8367,-5.8464,-5.8872,-5.9281,-5.9378,0.0,0.0,0.0,0.0,0.0,0.0,0.0,0.0,0.0,0.0,0.0,0.0,0.0,0.0,0.0,0.0,0.0,0.0,0.0,0.0,0.0,0.0,-6.6496,-6.6496,-6.6496,-6.6496,-6.6496,-6.6496,-6.6496,-6.6496,-6.6424,-6.6135,-6.5702,-6.563,-6.539,-6.5053,-6.5582,-6.6159,-6.6785,0.0,0.0,-6.9069,-6.9502,-6.9695,-6.9695,-6.9695,-6.9695,-6.9695,-6.9695,-6.9695,-6.9695,-6.9695,-6.9695,-6.9695,-6.9695,-6.9695,-6.9695,-6.9695,-6.9695,-6.9719,-6.9791,-6.9815,-6.9911,-7.0368,-7.0536,-7.0729,-7.1258,-7.1739,-7.2076,-7.2148,-7.2508,-7.2821,-7.2821,-7.2749,-7.2557,-7.2124,-7.234,-7.2412,-7.1907,-7.1883,-7.1931,-7.1931,-7.1474,-7.1234,-7.1474,-7.1763,-7.1811,-7.1522,-7.2316,-7.2821,-7.2821,-7.2821,-7.2821,-7.2821,-7.2821,-7.2821,-7.2821,-7.2821,-7.2773,-7.2701,-7.2773,-7.2821,-7.2821,-7.2893,-7.2989,-5.4279,-5.5698,-5.7357,-5.7814,-5.8319,-5.8824,0.0,0.0,0.0,0.0,0.0,0.0,0.0,0.0,0.0,0.0,0.0,0.0,0.0,0.0,0.0,0.0,0.0,0.0,0.0,0.0,0.0,0.0,0.0,-6.6496,-6.6496,-6.6496,-6.6496,-6.6496,-6.6496,-6.6496,-6.6496,-6.6039,-6.5775,-6.5702,-6.5246,-6.5221,-6.5606,-6.6135,-6.6929,-6.7891,0.0,-6.9093,-6.9574,-6.9671,-6.9695,-6.9695,-6.9695,-6.9695,-6.9695,-6.9695,-6.9695,-6.9695,-6.9695,-6.9695,-6.9695,-6.9695,-6.9695,-6.9695,-6.9695,-6.9695,-6.9791,-7.0248,-7.0368,-7.0392,-7.0464,-7.0825,-7.1282,-7.1811,-7.2003,-7.2172,-7.2605,-7.2749,-7.2821,-7.2821,-7.246,-7.2148,-7.2076,-7.1739,-7.133,-7.0801,-7.1114,-7.1378,-7.1378,-7.0921,-7.1114,-7.2436,-7.1859,-7.1715,-7.2508,-7.2725,-7.2821,-7.2821,-7.2821,-7.2821,-7.2821,-7.2821,-7.2821,-7.2821,-7.2821,-7.2605,-7.2172,-7.2605,-7.2821,-7.2821,-7.3302,-7.3759,-5.3894,-5.5169,-5.6732,-5.7237,-5.8223,0.0,0.0,0.0,0.0,0.0,0.0,0.0,0.0,0.0,0.0,0.0,0.0,0.0,0.0,0.0,0.0,0.0,0.0,0.0,0.0,0.0,0.0,0.0,0.0,0.0,-6.6496,-6.6496,-6.6496,-6.6496,-6.6496,-6.6352,-6.6063,-6.5823,-6.5702,-6.5702,-6.5462,-6.5606,-6.6159,-6.7001,-6.7795,-6.8564,0.0,-6.9478,-6.9695,-6.9695,-6.9695,-6.9695,-6.9695,-6.9695,-6.9695,-6.9695,-6.9695,-6.9695,-6.9695,-6.9695,-6.9695,-6.9695,-6.9695,-6.9695,-6.9695,-6.9887,-7.0176,-7.0416,-7.0488,-7.0609,-7.1186,-7.1522,-7.1835,-7.234,-7.246,-7.2532,-7.2749,-7.2605,-7.2412,-7.2412,-7.1979,-7.1546,-7.1258,-7.1474,-7.1522,-7.0993,-7.1114,-7.1282,-7.1282,-7.056,-7.032,-7.1041,-7.0945,-7.0921,-7.1114,-7.1907,-7.2508,-7.2797,-7.2821,-7.2821,-7.2821,-7.2821,-7.2821,-7.2821,-7.311,-7.2989,-7.246,-7.3278,-7.3543,-7.3278,-7.3807,-7.4192,-5.3942,-5.5193,-5.6612,-5.7381,0.0,0.0,0.0,0.0,0.0,0.0,0.0,0.0,0.0,0.0,0.0,0.0,0.0,0.0,0.0,0.0,0.0,0.0,0.0,0.0,0.0,0.0,0.0,0.0,0.0,0.0,-6.6496,-6.6496,-6.6496,-6.6496,-6.6376,-6.6111,-6.5702,-6.5702,-6.5702,-6.5702,-6.5823,-6.6232,-6.6905,-6.7867,-6.8588,-6.9117,-6.9526,-6.9695,-6.9695,-6.9695,-6.9695,-6.9695,-6.9695,-6.9695,-6.9695,-6.9695,-6.9695,-6.9695,-6.9695,-6.9695,-6.9695,-6.9695,-6.9695,-6.9719,-6.9839,-7.0152,-7.0536,-7.0777,-7.0849,-7.1041,-7.1859,-7.2148,-7.234,-7.2725,-7.2725,-7.2629,-7.2629,-7.234,-7.2027,-7.1907,-7.1546,-7.1114,-7.0584,-7.1041,-7.1378,-7.0969,-7.1017,-7.109,-7.109,-7.0392,-6.9935,-7.0055,-7.032,-7.0368,-7.0079,-7.1282,-7.222,-7.2605,-7.2749,-7.2821,-7.2821,-7.2821,-7.2869,-7.2989,-7.3422,-7.3446,-7.3013,-7.3975,-7.424,-7.3855,-7.4384,-7.4697,-5.4279,-5.5746,-5.7333,-5.8848,0.0,0.0,0.0,0.0,0.0,0.0,0.0,0.0,0.0,0.0,0.0,0.0,0.0,0.0,0.0,0.0,0.0,0.0,0.0,0.0,0.0,0.0,0.0,0.0,0.0,0.0,-6.6496,-6.6496,-6.6496,-6.6496,-6.6015,-6.5751,-6.5702,-6.5702,-6.5702,-6.5702,-6.6208,-6.6977,-6.8011,-6.8588,-6.9142,-6.9647,-6.9671,-6.9695,-6.9695,-6.9695,-6.9695,-6.9695,-6.9695,-6.9695,-6.9695,-6.9695,-6.9695,-6.9695,-6.9695,-6.9695,-6.9695,-6.9695,-6.9695,-6.9791,-7.0272,-7.044,-7.0681,-7.1667,-7.1955,-7.1955,-7.2027,-7.2412,-7.2773,-7.2797,-7.246,-7.2124,-7.2124,-7.2076,-7.1907,-7.1426,-7.1306,-7.1114,-7.0584,-7.0128,-6.9863,-6.9815,-7.0224,-7.0536,-7.0536,-7.0464,-7.0609,-7.1114,-7.0753,-7.0657,-7.1114,-7.1715,-7.2076,-7.2124,-7.2557,-7.2821,-7.2821,-7.2821,-7.3062,-7.3567,-7.3615,-7.3615,-7.3591,-7.4168,-7.4408,-7.4384,-7.4913,-7.5418,-5.4808,-5.6275,0.0,0.0,0.0,0.0,0.0,0.0,0.0,0.0,0.0,0.0,0.0,0.0,0.0,0.0,0.0,0.0,0.0,0.0,0.0,0.0,0.0,0.0,0.0,0.0,0.0,0.0,0.0,0.0,-6.6496,-6.6496,-6.6496,-6.6496,-6.5991,-6.5871,-6.6183,-6.6183,-6.6544,-6.7194,-6.741,-6.7891,-6.8636,-6.9166,-6.9502,-6.9695,-6.9695,-6.9695,-6.9695,-6.9695,-6.9695,-6.9695,-6.9695,-6.9695,-6.9695,-6.9695,-6.9695,-6.9695,-6.9695,-6.9911,-7.0176,-7.0176,-7.0392,-7.0705,-7.0921,-7.121,-7.1546,-7.1955,-7.2292,-7.2532,-7.2532,-7.2677,-7.2725,-7.2412,-7.2196,-7.1979,-7.1643,-7.1306,-7.1017,-7.0825,-7.0512,-7.0224,-7.0031,-7.0103,-7.0176,-7.0176,-7.0344,-7.0609,-7.0921,-7.0392,-7.02,-7.0729,-7.0296,-7.0344,-7.121,-7.145,-7.1835,-7.2484,-7.2701,-7.2821,-7.2821,-7.3134,-7.3422,-7.3639,-7.4288,-7.4456,-7.4144,-7.4985,-7.525,-7.4937,-7.5466,-7.5827,-5.5337,-5.6828,0.0,0.0,0.0,0.0,0.0,0.0,0.0,0.0,0.0,0.0,0.0,0.0,0.0,0.0,0.0,0.0,0.0,0.0,0.0,0.0,0.0,0.0,0.0,0.0,0.0,0.0,0.0,0.0,0.0,-6.6496,-6.6496,-6.6496,-6.5991,-6.5967,-6.6472,-6.6664,-6.7218,-6.8131,-6.8444,-6.8805,-6.9166,-6.9526,-6.9695,-6.9695,-6.9695,-6.9695,-6.9695,-6.9695,-6.9695,-6.9695,-6.9695,-6.9695,-6.9695,-6.9695,-6.9695,-6.9695,-6.9695,-7.0031,-7.0488,-7.0488,-7.0849,-7.1306,-7.1474,-7.1763,-7.21,-7.2244,-7.2557,-7.2773,-7.2605,-7.2581,-7.2484,-7.2148,-7.1811,-7.145,-7.109,-7.0729,-7.044,-7.0272,-7.0079,-6.9887,-6.9719,-7.0128,-7.0488,-7.0488,-7.0633,-7.0801,-7.0993,-7.0392,-7.0079,-7.044,-7.0152,-7.0296,-7.1186,-7.1426,-7.1883,-7.2749,-7.2965,-7.3086,-7.3086,-7.3615,-7.3975,-7.4144,-7.4865,-7.513,-7.4937,-7.5659,-7.5827,-7.5491,-7.5851,-7.602,-5.5818,0.0,0.0,0.0,0.0,0.0,0.0,0.0,0.0,0.0,0.0,0.0,0.0,0.0,0.0,0.0,0.0,0.0,0.0,0.0,0.0,0.0,0.0,0.0,0.0,0.0,0.0,0.0,0.0,0.0,0.0,-6.6496,-6.6496,-6.6496,-6.5991,-6.5967,-6.6496,-6.7025,-6.7578,-6.8155,-6.919,-6.9695,-6.9695,-6.9695,-6.9695,-6.9695,-6.9695,-6.9695,-6.9695,-6.9695,-6.9695,-6.9695,-6.9695,-6.9695,-6.9695,-6.9695,-6.9695,-6.9695,-6.9695,-7.0055,-7.0488,-7.0488,-7.0849,-7.1378,-7.1907,-7.2076,-7.2172,-7.2677,-7.2821,-7.2701,-7.2196,-7.2051,-7.2051,-7.2051,-7.1234,-7.0488,-7.0488,-7.0488,-7.032,-6.9815,-7.0128,-7.032,-6.9791,-7.0128,-7.0488,-7.0488,-7.0945,-7.109,-7.056,-7.0488,-7.0488,-7.0488,-7.0488,-7.0705,-7.1234,-7.1763,-7.2292,-7.2797,-7.335,-7.3663,-7.3663,-7.4168,-7.4697,-7.5226,-7.5226,-7.5491,-7.602,-7.602,-7.602,-7.602,-7.602,-7.602,-5.6804,0.0,0.0,0.0,0.0,0.0,0.0,0.0,0.0,0.0,0.0,0.0,0.0,0.0,0.0,0.0,0.0,0.0,0.0,0.0,0.0,0.0,0.0,0.0,0.0,0.0,0.0,0.0,0.0,0.0,0.0,-6.6496,-6.6496,-6.6496,-6.5991,-6.6328,-6.7626,-6.741,-6.7939,-6.9238,-6.955,-6.9695,-6.9695,-6.9695,-6.9695,-6.9695,-6.9695,-6.9695,-6.9695,-6.9695,-6.9695,-6.9695,-6.9695,-6.9695,-6.9695,-6.9695,-6.9695,-6.9743,-7.0128,-7.0584,-7.109,-7.1474,-7.1931,-7.2388,-7.2532,-7.2581,-7.2605,-7.2773,-7.2821,-7.2773,-7.2629,-7.2316,-7.1859,-7.1138,-7.0705,-7.0488,-7.0488,-7.0488,-7.0536,-7.0753,-7.0633,-7.056,-7.0777,-7.0633,-7.0609,-7.0993,-7.1162,-7.109,-7.056,-7.0801,-7.1041,-7.1041,-7.1378,-7.1787,-7.2316,-7.2869,-7.323,-7.3398,-7.424,-7.4601,-7.4216,-7.4721,-7.5058,-7.5226,-7.5587,-7.5851,-7.602,-7.602,-7.602,-7.602,-7.602,-7.602,0.0,0.0,0.0,0.0,0.0,0.0,0.0,0.0,0.0,0.0,0.0,0.0,0.0,0.0,0.0,0.0,0.0,0.0,0.0,0.0,0.0,0.0,0.0,0.0,0.0,0.0,0.0,0.0,0.0,0.0,0.0,-6.6496,-6.6496,-6.6496,-6.6376,-6.6905,-6.8107,-6.7987,-6.8516,-6.9695,-6.9695,-6.9695,-6.9695,-6.9695,-6.9695,-6.9695,-6.9695,-6.9695,-6.9695,-6.9695,-6.9695,-6.9695,-6.9695,-6.9695,-6.9695,-6.9695,-6.9815,-7.0055,-7.0368,-7.0969,-7.1643,-7.1955,-7.2388,-7.2821,-7.2821,-7.2821,-7.2821,-7.2821,-7.2821,-7.2773,-7.2557,-7.2292,-7.1835,-7.0993,-7.0801,-7.0729,-7.0536,-7.0488,-7.0584,-7.0897,-7.0705,-7.0584,-7.0897,-7.1041,-7.121,-7.1546,-7.1595,-7.1474,-7.1162,-7.1378,-7.1739,-7.2172,-7.2508,-7.2893,-7.3422,-7.3759,-7.4048,-7.4264,-7.4865,-7.5178,-7.5058,-7.537,-7.5539,-7.5539,-7.5851,-7.602,-7.602,-7.602,-7.602,-7.602,-7.602,-7.602,0.0,0.0,0.0,0.0,0.0,0.0,0.0,0.0,0.0,0.0,0.0,0.0,0.0,0.0,0.0,0.0,0.0,0.0,0.0,0.0,0.0,0.0,0.0,0.0,0.0,0.0,0.0,0.0,0.0,0.0,0.0,-6.6496,-6.6496,-6.6496,-6.7001,-6.7554,-6.8107,-6.8636,-6.9166,-6.9695,-6.9695,-6.9695,-6.9695,-6.9695,-6.9695,-6.9695,-6.9695,-6.9695,-6.9695,-6.9695,-6.9695,-6.9695,-6.9695,-6.9695,-6.9695,-6.9695,-7.0031,-7.0488,-7.0536,-7.121,-7.2076,-7.2124,-7.2436,-7.2821,-7.2821,-7.2821,-7.2821,-7.2821,-7.2821,-7.2701,-7.2244,-7.2124,-7.2003,-7.1474,-7.1306,-7.1138,-7.0657,-7.056,-7.056,-7.0609,-7.0584,-7.0584,-7.0681,-7.145,-7.21,-7.2196,-7.2172,-7.2148,-7.2196,-7.2196,-7.2581,-7.3615,-7.3759,-7.3975,-7.4456,-7.4553,-7.4769,-7.5202,-7.5274,-7.5515,-7.5996,-7.602,-7.602,-7.602,-7.602,-7.602,-7.602,-7.602,-7.602,-7.602,-7.602,-7.602,0.0,0.0,0.0,0.0,0.0,0.0,0.0,0.0,0.0,0.0,0.0,0.0,0.0,0.0,0.0,0.0,0.0,0.0,0.0,0.0,0.0,0.0,0.0,0.0,0.0,0.0,0.0,0.0,0.0,0.0,-6.6496,-6.6496,-6.6496,-6.6496,-6.7001,-6.7554,-6.8107,-6.8636,-6.9166,0.0,-6.9695,-6.9695,-6.9695,-6.9695,-6.9695,-6.9695,-6.9695,-6.9695,-6.9695,-6.9695,-6.9695,-6.9695,-6.9695,-6.9695,-6.9695,-6.9695,-7.0031,-7.0536,-7.0945,-7.1522,-7.2124,-7.2508,-7.2725,-7.2821,-7.2821,-7.2821,-7.2821,-7.2821,-7.2821,-7.2797,-7.2677,-7.2653,-7.2532,-7.2003,-7.157,-7.1234,-7.1138,-7.109,-7.1234,-7.1643,-7.1378,-7.1354,-7.2172,-7.2172,-7.234,-7.3182,-7.2941,-7.2797,-7.3254,-7.3302,-7.3543,-7.4192,-7.4649,-7.4937,-7.5034,-7.5442,-7.5539,-7.525,-7.5611,-7.5899,-7.5996,-7.602,-7.602,-7.602,-7.602,-7.602,-7.602,-7.602,-7.602,-7.602,-7.602,-7.602,0.0,0.0,0.0,0.0,0.0,0.0,0.0,0.0,0.0,0.0,0.0,0.0,0.0,0.0,0.0,0.0,0.0,0.0,0.0,0.0,0.0,0.0,0.0,0.0,0.0,0.0,0.0,0.0,0.0,-6.6496,-6.6496,-6.6496,-6.6496,-6.6496,-6.7266,-6.7819,-6.8107,-6.8901,-6.943,-6.9695,-6.9695,-6.9695,-6.9695,-6.9695,-6.9695,-6.9695,-6.9695,-6.9695,-6.9695,-6.9695,-6.9695,-6.9695,-6.9695,-6.9695,-6.9719,-6.9983,-7.0392,-7.0945,-7.1474,-7.1979,-7.246,-7.2725,-7.2821,-7.2821,-7.2821,-7.2821,-7.2821,-7.2821,-7.2821,-7.2821,-7.2821,-7.2821,-7.2749,-7.2484,-7.2196,-7.1931,-7.1691,-7.1643,-7.1739,-7.2003,-7.1835,-7.1811,-7.2364,-7.2653,-7.2917,-7.3206,-7.3446,-7.3687,-7.3999,-7.424,-7.4601,-7.513,-7.5442,-7.5611,-7.5611,-7.5851,-7.5899,-7.5611,-7.5851,-7.602,-7.602,-7.602,-7.602,-7.602,-7.602,-7.602,-7.602,-7.602,-7.602,-7.602,-7.602,-7.602,0.0,0.0,0.0,0.0,0.0,0.0,0.0,0.0,0.0,0.0,0.0,0.0,0.0,0.0,0.0,0.0,0.0,0.0,0.0,0.0,0.0,0.0,0.0,0.0,0.0,0.0,0.0,0.0,0.0,-6.6496,-6.6496,-6.6496,-6.6496,-6.6496,-6.7554,-6.8107,-6.8107,-6.9166,-6.9695,-6.9695,-6.9695,-6.9695,-6.9695,-6.9695,-6.9695,-6.9695,-6.9695,-6.9695,-6.9695,-6.9695,-6.9695,-6.9695,-6.9695,-6.9695,-6.9767,-7.0296,-7.0825,-7.1354,-7.1883,-7.2388,-7.2821,-7.2821,-7.2821,-7.2821,-7.2821,-7.2821,-7.2821,-7.2821,-7.2821,-7.2821,-7.2821,-7.2821,-7.2821,-7.2821,-7.2821,-7.2677,-7.2172,-7.2051,-7.2051,-7.2051,-7.2124,-7.222,-7.2316,-7.3062,-7.3543,-7.3278,-7.3999,-7.4601,-7.4697,-7.5082,-7.5539,-7.5971,-7.602,-7.602,-7.602,-7.602,-7.602,-7.602,-7.602,-7.602,-7.602,-7.602,-7.602,-7.602,-7.602,-7.602,-7.602,-7.602,-7.602,-7.602,-7.602,-7.6068,0.0,0.0,0.0,0.0,0.0,0.0,0.0,0.0,0.0,0.0,0.0,0.0,0.0,0.0,0.0,0.0,0.0,0.0,0.0,0.0,0.0,0.0,0.0,0.0,0.0,0.0,0.0,0.0,-6.6496,-6.6496,-6.6496,-6.6496,-6.6496,-6.6496,-6.7554,-6.8107,-6.8107,-6.9166,-6.9695,-6.9695,-6.9695,-6.9695,-6.9695,-6.9695,-6.9695,-6.9695,-6.9695,-6.9695,-6.9695,-6.9695,-6.9695,-6.9695,-6.9695,-6.9695,-6.9767,-7.0296,-7.0825,-7.1354,-7.1883,-7.2388,-7.2821,-7.2821,-7.2821,-7.2821,-7.2821,-7.2821,-7.2821,-7.2821,-7.2821,-7.2821,-7.2821,-7.2821,-7.2821,-7.2821,-7.2821,-7.2677,-7.2172,-7.2051,-7.2051,-7.2051,-7.2412,-7.2869,-7.335,-7.3543,-7.3927,-7.4769,-7.5034,-7.5274,-7.5755,-7.5851,-7.5923,-7.5996,-7.602,-7.602,-7.602,-7.602,-7.602,-7.602,-7.602,-7.602,-7.602,-7.602,-7.602,-7.602,-7.602,-7.602,-7.602,-7.602,-7.602,-7.602,-7.602,-7.626,0.0,0.0,0.0,0.0,0.0,0.0,0.0,0.0,0.0,0.0,0.0,0.0,0.0,0.0,0.0,0.0,0.0,0.0,0.0,0.0,0.0,0.0,0.0,0.0,0.0,0.0,0.0,0.0,-6.6496,-6.6496,-6.6496,-6.6496,-6.6496,-6.6496,-6.7554,-6.8107,-6.8107,-6.9166,-6.9695,-6.9695,-6.9695,-6.9695,-6.9695,-6.9695,-6.9695,-6.9695,-6.9695,-6.9695,-6.9695,-6.9695,-6.9695,-6.9695,-6.9695,-6.9863,-7.02,-7.0729,-7.1258,-7.1787,-7.2292,-7.2629,-7.2821,-7.2821,-7.2821,-7.2821,-7.2821,-7.2821,-7.2821,-7.2821,-7.2821,-7.2821,-7.2821,-7.2821,-7.2821,-7.2821,-7.2821,-7.2749,-7.2532,-7.2484,-7.2484,-7.2484,-7.2917,-7.335,-7.3591,-7.4144,-7.4697,-7.5154,-7.5466,-7.5755,-7.5971,-7.602,-7.602,-7.602,-7.602,-7.602,-7.602,-7.602,-7.602,-7.602,-7.602,-7.602,-7.602,-7.602,-7.602,-7.602,-7.602,-7.602,-7.602,-7.602,-7.602,-7.602,-7.6308,-7.6573,0.0,0.0,0.0,0.0,0.0,0.0,0.0,0.0,0.0,0.0,0.0,0.0,0.0,0.0,0.0,0.0,0.0,0.0,0.0,0.0,0.0,0.0,0.0,0.0,0.0,0.0,0.0,0.0,-6.6496,-6.6496,-6.6496,-6.6496,-6.6496,-6.6496,-6.7554,-6.8107,-6.8107,-6.9166,-6.9695,-6.9695,-6.9695,-6.9695,-6.9695,-6.9695,-6.9695,-6.9695,-6.9695,-6.9695,-6.9695,-6.9695,-6.9695,-6.9719,-6.9839,-7.0128,-7.056,-7.1234,-7.1715,-7.2124,-7.2629,-7.2821,-7.2821,-7.2821,-7.2821,-7.2821,-7.2821,-7.2821,-7.2821,-7.2821,-7.2821,-7.2821,-7.2821,-7.2821,-7.2821,-7.2821,-7.2821,-7.2821,-7.2821,-7.2821,-7.2845,-7.2989,-7.335,-7.3735,-7.3999,-7.4697,-7.5274,-7.5394,-7.5755,-7.602,-7.602,-7.602,-7.602,-7.602,-7.602,-7.602,-7.602,-7.602,-7.602,-7.602,-7.602,-7.602,-7.602,-7.602,-7.602,-7.602,-7.602,-7.602,-7.602,-7.602,-7.602,-7.602,-7.6549,-7.6861,0.0,0.0,0.0,0.0,0.0,0.0,0.0,0.0,0.0,0.0,0.0,0.0,0.0,0.0,0.0,0.0,0.0,0.0,0.0,0.0,0.0,0.0,0.0,0.0,0.0,0.0,0.0,0.0,-6.6496,-6.6496,-6.6496,-6.6496,-6.6496,-6.6496,-6.7554,-6.8107,-6.8107,-6.9166,-6.9695,-6.9695,-6.9695,-6.9695,-6.9695,-6.9695,-6.9695,-6.9695,-6.9695,-6.9695,-6.9695,-6.9695,-6.9695,-6.9743,-7.0248,-7.0464,-7.0609,-7.1643,-7.2027,-7.2124,-7.2629,-7.2821,-7.2821,-7.2821,-7.2821,-7.2821,-7.2821,-7.2821,-7.2821,-7.2821,-7.2821,-7.2821,-7.2821,-7.2821,-7.2821,-7.2821,-7.2821,-7.2821,-7.2821,-7.2821,-7.2965,-7.3494,-7.3615,-7.3951,-7.4961,-7.5178,-7.5394,-7.5899,-7.5996,-7.602,-7.602,-7.602,-7.602,-7.602,-7.602,-7.602,-7.602,-7.602,-7.602,-7.602,-7.602,-7.602,-7.602,-7.602,-7.602,-7.602,-7.602,-7.602,-7.602,-7.602,-7.602,-7.602,-7.6549,-7.7078,0.0,0.0,0.0,-4.8516,-4.9855,0.0,0.0,0.0,0.0,0.0,0.0,0.0,0.0,0.0,0.0,0.0,0.0,0.0,0.0,0.0,0.0,0.0,0.0,0.0,0.0,0.0,0.0,0.0,0.0,-6.6496,-6.6496,-6.6496,-6.6496,-6.6496,-6.7554,-6.8444,-6.9117,-6.9502,-6.9695,-6.9695,-6.9695,-6.9695,-6.9695,-6.9695,-6.9695,-6.9695,-6.9695,-6.9695,-6.9695,-6.9695,-6.9887,-7.0224,-7.0416,-7.0897,-7.1546,-7.1907,-7.2268,-7.2557,-7.2749,-7.2821,-7.2821,-7.2821,-7.2821,-7.2821,-7.2821,-7.2821,-7.2821,-7.2821,-7.2821,-7.2821,-7.2821,-7.2821,-7.2821,-7.2821,-7.2821,-7.2917,-7.3278,-7.335,-7.3398,-7.3615,-7.4192,-7.4793,-7.5154,-7.5515,-7.5803,-7.5971,-7.602,-7.602,-7.602,-7.602,-7.602,-7.602,-7.602,-7.602,-7.602,-7.602,-7.602,-7.602,-7.602,-7.602,-7.602,-7.602,-7.602,-7.602,-7.602,-7.602,-7.602,-7.602,-7.602,-7.6044,-7.6909,-7.7414,-4.5039,0.0,0.0,0.0,0.0,-4.9492,0.0,0.0,0.0,0.0,0.0,0.0,0.0,0.0,0.0,0.0,0.0,0.0,0.0,0.0,0.0,0.0,0.0,0.0,0.0,0.0,0.0,0.0,0.0,0.0,-6.6496,-6.5914,-6.587,-6.7025,-6.713,-6.782,-6.9671,-6.9695,-6.9695,-6.9695,-6.9695,-6.9695,-6.9695,-6.9695,-6.9695,-6.9695,-6.9695,-6.9695,-6.9719,-6.9887,-7.0176,-7.0512,-7.0873,-7.145,-7.2076,-7.2244,-7.2532,-7.2821,-7.2821,-7.2821,-7.2821,-7.2821,-7.2821,-7.2821,-7.2821,-7.2821,-7.2821,-7.2821,-7.2821,-7.2821,-7.2821,-7.2821,-7.2821,-7.2821,-7.2821,-7.2965,-7.3518,-7.3639,-7.3759,-7.4096,-7.4745,-7.5274,-7.5466,-7.5779,-7.602,-7.602,-7.602,-7.602,-7.602,-7.602,-7.602,-7.602,-7.602,-7.602,-7.602,-7.602,-7.602,-7.602,-7.602,-7.602,-7.602,-7.602,-7.602,-7.602,-7.602,-7.5923,-7.5755,-7.5923,-7.6116,-7.6308,-7.7174,-7.7775,0.0,0.0,0.0,0.0,0.0,0.0,0.0,0.0,0.0,0.0,0.0,0.0,0.0,0.0,0.0,0.0,0.0,0.0,0.0,0.0,0.0,0.0,0.0,0.0,0.0,0.0,0.0,0.0,-6.4553,-6.4365,-6.631,-6.453,-6.4831,-6.7893,-6.6119,-6.6415,-6.9476,-6.9695,-6.9695,-6.9695,-6.9695,-6.9695,-6.9695,-6.9695,-6.9695,-6.9695,-6.9695,-6.9695,-6.9767,-7.0272,-7.0488,-7.0633,-7.1667,-7.2076,-7.2148,-7.2629,-7.2821,-7.2821,-7.2821,-7.2821,-7.2821,-7.2821,-7.2821,-7.2821,-7.2821,-7.2821,-7.2821,-7.2821,-7.2821,-7.2821,-7.2821,-7.2821,-7.2821,-7.2821,-7.2821,-7.2989,-7.3543,-7.3687,-7.3999,-7.5034,-7.5226,-7.5418,-7.5923,-7.602,-7.602,-7.602,-7.602,-7.602,-7.602,-7.602,-7.602,-7.602,-7.602,-7.602,-7.602,-7.602,-7.602,-7.602,-7.602,-7.602,-7.602,-7.602,-7.602,-7.602,-7.5996,-7.5755,-7.525,-7.5755,-7.6284,-7.6789,-7.7342,-7.816,-4.4277,0.0,0.0,0.0,0.0,0.0,0.0,0.0,0.0,0.0,0.0,0.0,0.0,0.0,0.0,0.0,0.0,0.0,0.0,0.0,0.0,0.0,0.0,0.0,0.0,0.0,0.0,0.0,-6.412,-6.4761,-6.631,-6.453,-6.4044,-6.5663,-6.5321,-6.5806,-6.7219,-6.8866,-6.9695,-6.9695,-6.9695,-6.9695,-6.9695,-6.9695,-6.9695,-6.9695,-6.9695,-6.9911,-7.0272,-7.0416,-7.0945,-7.1643,-7.1955,-7.2292,-7.2629,-7.2749,-7.2821,-7.2821,-7.2821,-7.2821,-7.2821,-7.2821,-7.2821,-7.2821,-7.2821,-7.2821,-7.2821,-7.2821,-7.2821,-7.2821,-7.2821,-7.2821,-7.2821,-7.2821,-7.3134,-7.3567,-7.4096,-7.4504,-7.4865,-7.5178,-7.5539,-7.5851,-7.5996,-7.602,-7.602,-7.602,-7.602,-7.602,-7.602,-7.602,-7.602,-7.602,-7.602,-7.602,-7.602,-7.602,-7.602,-7.602,-7.602,-7.602,-7.602,-7.602,-7.602,-7.602,-7.5635,-7.5563,-7.5803,-7.5947,-7.6092,-7.626,-7.7559,-7.8521,-4.4043,0.0,0.0,0.0,0.0,0.0,0.0,0.0,0.0,0.0,0.0,0.0,0.0,0.0,0.0,0.0,0.0,0.0,0.0,0.0,0.0,0.0,0.0,0.0,0.0,-6.2966,-6.2989,-6.2201,-6.2494,-6.34,-6.5472,-6.2528,-6.2182,-6.4988,-6.3232,-6.3589,-6.6401,-6.7639,-6.8866,-6.9695,-6.9695,-6.9695,-6.9695,-6.9695,-6.9695,-6.9719,-6.9935,-7.032,-7.0825,-7.1041,-7.1498,-7.2076,-7.2292,-7.2557,-7.2821,-7.2821,-7.2821,-7.2821,-7.2821,-7.2821,-7.2821,-7.2821,-7.2821,-7.2821,-7.2821,-7.2821,-7.2821,-7.2821,-7.2821,-7.2821,-7.2821,-7.2821,-7.2821,-7.2821,-7.323,-7.3783,-7.4312,-7.4841,-7.5298,-7.5515,-7.5803,-7.602,-7.602,-7.602,-7.602,-7.602,-7.602,-7.602,-7.602,-7.602,-7.602,-7.602,-7.602,-7.602,-7.602,-7.602,-7.602,-7.602,-7.602,-7.602,-7.602,-7.602,-7.5899,-7.5683,-7.5587,-7.5803,-7.6332,-7.6116,-7.6356,-7.703,-7.816,-7.8857,-4.3711,-4.4004,-4.4433,0.0,0.0,0.0,0.0,0.0,0.0,0.0,0.0,-5.1367,-5.1367,-5.1406,0.0,0.0,0.0,0.0,0.0,0.0,0.0,0.0,0.0,0.0,-6.0439,-6.1816,-6.2009,-6.0439,-6.0244,-6.1265,-6.3742,-5.9567,-5.9514,-6.4626,-6.0698,-6.0933,-6.5488,-6.6179,-6.7219,-6.8866,-6.9281,-6.9281,-6.9062,-6.9209,-6.9233,-6.9305,-6.9783,-7.0531,-7.1306,-7.1634,-7.1874,-7.2196,-7.2629,-7.2821,-7.2821,-7.2821,-7.2821,-7.2821,-7.2821,-7.2821,-7.2821,-7.2821,-7.2821,-7.2821,-7.2821,-7.2821,-7.2821,-7.2821,-7.2821,-7.2821,-7.2821,-7.2821,-7.2821,-7.2893,-7.3326,-7.3879,-7.4408,-7.4937,-7.5442,-7.5923,-7.602,-7.602,-7.602,-7.602,-7.602,-7.602,-7.602,-7.602,-7.602,-7.602,-7.602,-7.602,-7.602,-7.602,-7.602,-7.602,-7.602,-7.602,-7.602,-7.602,-7.602,-7.5947,-7.5731,-7.5322,-7.5827,-7.6356,-7.6885,-7.6404,-7.6933,-7.8376,-7.893,-7.917,0.0,0.0,0.0,0.0,0.0,0.0,0.0,0.0,0.0,0.0,-5.0137,-5.0918,-5.0918,-5.1211,-5.1426,-5.1426,0.0,0.0,0.0,0.0,0.0,0.0,0.0,0.0,-6.0222,-5.9091,-5.8895,-6.0266,-6.0244,-6.068,-6.1577,-5.8776,-5.7843,-5.9275,-5.8781,-5.9177,-6.0521,-6.4371,-6.5779,-6.4347,-6.6202,-6.6202,-6.4347,-6.5767,-6.6627,-6.7021,-6.7137,-6.8738,-7.1107,-6.9922,-7.0572,-7.2677,-7.2773,-7.2821,-7.2821,-7.2821,-7.2821,-7.2821,-7.2821,-7.2821,-7.2821,-7.2821,-7.2821,-7.2821,-7.2821,-7.2821,-7.2821,-7.2821,-7.2821,-7.2821,-7.2821,-7.2821,-7.2917,-7.3374,-7.3903,-7.4432,-7.4961,-7.5491,-7.5875,-7.5996,-7.602,-7.602,-7.602,-7.602,-7.602,-7.602,-7.602,-7.602,-7.602,-7.602,-7.602,-7.602,-7.602,-7.602,-7.602,-7.602,-7.602,-7.602,-7.602,-7.602,-7.602,-7.5611,-7.5539,-7.5851,-7.638,-7.6909,-7.7438,-7.7318,-7.7655,-7.8376,-7.893,-7.917,0.0,0.0,0.0,-4.4336,0.0,0.0,0.0,0.0,0.0,0.0,0.0,0.0,-5.0723,0.0,-5.1191,-5.1406,0.0,0.0,0.0,0.0,0.0,0.0,0.0,0.0,-5.6428,-5.6656,-5.728,-5.8697,-5.7729,-5.8336,-6.0987,-5.7601,-5.6396,-5.8477,-5.7514,-5.7839,-5.9512,-6.1995,-6.3127,-6.3127,-6.4145,-6.4034,-6.2778,-6.5016,-6.5551,-6.4796,-6.6325,-6.7572,-6.833,-6.8812,-6.9801,-7.1318,-7.239,-7.2821,-7.2821,-7.2821,-7.2821,-7.2821,-7.2821,-7.2821,-7.2821,-7.2821,-7.2821,-7.2821,-7.2821,-7.2821,-7.2821,-7.2821,-7.2821,-7.2821,-7.2821,-7.2821,-7.2965,-7.3518,-7.4048,-7.4577,-7.5106,-7.5635,-7.602,-7.602,-7.602,-7.602,-7.602,-7.602,-7.602,-7.602,-7.602,-7.602,-7.602,-7.602,-7.602,-7.602,-7.602,-7.602,-7.602,-7.602,-7.602,-7.602,-7.602,-7.5899,-7.5635,-7.5611,-7.5851,-7.6404,-7.6933,-7.7463,-7.7992,-7.8232,-7.8521,-7.8785,-7.9026,-7.9314,0.0,0.0,0.0,0.0,0.0,-4.5332,0.0,0.0,0.0,0.0,0.0,0.0,0.0,0.0,0.0,0.0,0.0,0.0,0.0,0.0,0.0,0.0,0.0,0.0,0.0,-5.5379,-5.6602,-5.643,-5.512,-5.593,-5.9492,-5.6194,-5.5294,-5.815,-5.6414,-5.6444,-5.899,-5.9573,-6.0469,-6.1897,-6.2308,-6.2114,-6.1362,-6.3789,-6.4034,-6.2687,-6.5215,-6.5906,-6.5312,-6.7695,-6.8969,-6.9617,-7.1957,-7.2821,-7.2821,-7.2821,-7.2821,-7.2821,-7.2821,-7.2821,-7.2821,-7.2821,-7.2821,-7.2821,-7.2821,-7.2821,-7.2821,-7.2821,-7.2821,-7.2821,-7.2821,-7.2821,-7.2965,-7.3639,-7.412,-7.4601,-7.525,-7.5707,-7.602,-7.602,-7.602,-7.602,-7.602,-7.602,-7.602,-7.602,-7.602,-7.602,-7.602,-7.602,-7.602,-7.602,-7.602,-7.602,-7.602,-7.602,-7.602,-7.602,-7.602,-7.5827,-7.5394,-7.5875,-7.6404,-7.6933,-7.7463,-7.7992,-7.8545,-7.893,-7.917,-7.917,-7.9266,-7.9555,0.0,0.0,0.0,0.0,-4.5273,0.0,0.0,0.0,0.0,0.0,0.0,0.0,0.0,0.0,0.0,0.0,0.0,0.0,0.0,0.0,0.0,0.0,0.0,0.0,0.0,-5.6747,-5.6577,-5.4082,-5.4717,-5.5051,-5.4733,-5.4247,-5.4101,-5.4628,-5.5129,-5.556,-5.5848,-5.845,-5.9046,-5.7395,-5.9256,-5.9236,-5.7316,-5.8603,-5.9925,-6.0844,-6.0762,-6.2378,-6.529,-6.6027,-6.7498,-6.9617,-7.1957,-7.2821,-7.2821,-7.2821,-7.2821,-7.2821,-7.2821,-7.2821,-7.2821,-7.2821,-7.2821,-7.2821,-7.2821,-7.2821,-7.2821,-7.2821,-7.2821,-7.2821,-7.2821,-7.2821,-7.3062,-7.4096,-7.4384,-7.4721,-7.5707,-7.5971,-7.602,-7.602,-7.602,-7.602,-7.602,-7.602,-7.602,-7.602,-7.602,-7.602,-7.602,-7.602,-7.602,-7.602,-7.602,-7.602,-7.602,-7.602,-7.602,-7.602,-7.602,-7.5996,-7.5923,-7.6428,-7.6958,-7.7487,-7.8016,-7.8545,-7.9074,-7.9146,-7.917,-7.917,-7.9699,-7.994,0.0,0.0,0.0,0.0,0.0,0.0,0.0,0.0,-4.7148,0.0,0.0,0.0,0.0,0.0,0.0,0.0,0.0,0.0,0.0,0.0,0.0,0.0,0.0,0.0,0.0,0.0,0.0,0.0,-5.4492,-5.4668,-5.4062,-5.4023,-5.4141,-5.4394,-5.5,-5.543,-5.5664,-5.7309,-5.7628,-5.6582,-5.7608,-5.7138,-5.584,-5.8226,-5.8801,-5.8312,-5.9871,-6.1058,-6.1912,-6.3384,-6.453,-6.5797,-6.9386,-7.1729,-7.2821,-7.2821,-7.2821,-7.2821,-7.2821,-7.2821,-7.2821,-7.2821,-7.2821,-7.2821,-7.2821,-7.2821,-7.2821,-7.2821,-7.2821,-7.2821,-7.2821,-7.3062,-7.3494,-7.4264,-7.4673,-7.5106,-7.5851,-7.602,-7.602,-7.602,-7.602,-7.602,-7.602,-7.602,-7.602,-7.602,-7.602,-7.602,-7.602,-7.602,-7.602,-7.602,-7.602,-7.602,-7.602,-7.602,-7.602,-7.602,-7.602,-7.614,-7.6452,-7.6982,-7.7511,-7.804,-7.8545,-7.893,-7.917,-7.9483,-7.9627,-7.9627,-7.9916,-8.0324,-4.7578,0.0,0.0,0.0,0.0,0.0,0.0,0.0,0.0,0.0,0.0,0.0,0.0,0.0,0.0,0.0,0.0,0.0,0.0,0.0,0.0,0.0,0.0,0.0,0.0,0.0,0.0,0.0,0.0,-5.4609,-5.4062,-5.4023,-5.418,-5.4492,-5.4922,-5.5332,-5.5762,-5.6191,-5.6465,-5.6582,-5.6582,-5.6269,-5.5683,-5.7801,-5.8032,-5.7168,-5.9129,-5.9716,-5.9403,-6.174,-6.2617,-6.3033,-6.7686,-7.0033,-7.1113,-7.239,-7.2821,-7.2821,-7.2821,-7.2821,-7.2821,-7.2821,-7.2821,-7.2821,-7.2821,-7.2821,-7.2821,-7.2821,-7.2821,-7.2821,-7.2821,-7.323,-7.3783,-7.4312,-7.4841,-7.537,-7.5899,-7.602,-7.602,-7.602,-7.602,-7.602,-7.602,-7.602,-7.602,-7.602,-7.602,-7.602,-7.602,-7.602,-7.602,-7.602,-7.5875,-7.5803,-7.5803,-7.5803,-7.5923,-7.6212,-7.6236,-7.6525,-7.7198,-7.7607,-7.8064,-7.8593,-7.9002,-7.9242,-7.9386,-7.9795,-8.0156,-8.0421,-8.0421,-8.0853,0.0,0.0,0.0,-4.8144,0.0,0.0,0.0,0.0,-4.8047,0.0,0.0,0.0,0.0,0.0,0.0,0.0,0.0,0.0,0.0,0.0,0.0,0.0,0.0,0.0,0.0,0.0,0.0,0.0,0.0,0.0,-5.4082,-5.4023,-5.4043,-5.4043,-5.4473,-5.4902,-5.5332,-5.5742,-5.6172,-5.6582,-5.6582,-5.6582,-5.6543,-5.6133,-5.664,-5.7812,-5.7402,-5.7988,-5.9403,-6.174,-6.2617,-6.3033,-6.7686,-6.813,-6.665,-7.1113,-7.2821,-7.2821,-7.2821,-7.2821,-7.2821,-7.2821,-7.2821,-7.2821,-7.2821,-7.2821,-7.2821,-7.2821,-7.2821,-7.2821,-7.2821,-7.323,-7.3783,-7.4312,-7.4841,-7.537,-7.5899,-7.602,-7.602,-7.602,-7.602,-7.602,-7.602,-7.602,-7.602,-7.602,-7.602,-7.602,-7.602,-7.602,-7.602,-7.602,-7.5563,-7.525,-7.525,-7.525,-7.5683,-7.6717,-7.6765,-7.7246,-7.8304,-7.8376,-7.8617,-7.9146,-7.917,-7.9459,-7.9988,-7.9988,-8.0541,-8.1503,-8.1503,-8.1575,0.0,0.0,-4.9433,-4.916,0.0,0.0,0.0,0.0,0.0,0.0,0.0,0.0,0.0,0.0,0.0,0.0,0.0,0.0,0.0,0.0,0.0,0.0,0.0,0.0,0.0,0.0,0.0,0.0,0.0,0.0,0.0,-5.4141,-5.4336,-5.4043,-5.4726,-5.5156,-5.5312,-5.5723,-5.6152,-5.6582,-5.6582,-5.6426,-5.6152,-5.6308,-5.6758,-5.7441,-5.7578,-5.8203,-5.9199,-6.0032,-6.0234,-6.0678,-6.3665,-6.453,-6.4314,-6.8969,-6.9617,-6.8573,-7.0033,-7.047,-7.047,-7.047,-7.047,-7.047,-7.047,-7.047,-7.0883,-7.239,-7.2821,-7.2821,-7.2821,-7.3494,-7.4216,-7.4384,-7.5106,-7.5803,-7.5971,-7.602,-7.602,-7.602,-7.602,-7.602,-7.602,-7.602,-7.602,-7.602,-7.602,-7.602,-7.602,-7.602,-7.5875,-7.5539,-7.5322,-7.5082,-7.4745,-7.5346,-7.6044,-7.6741,-7.7463,-7.8016,-7.8376,-7.8689,-7.9002,-7.917,-7.9531,-7.9843,-8.0012,-8.0709,-8.1262,-8.1575,-8.1936,-8.2104,-5.0391,-5.0293,0.0,-5.0019,-4.9863,0.0,-4.9766,0.0,0.0,0.0,0.0,0.0,0.0,0.0,0.0,0.0,0.0,0.0,0.0,0.0,0.0,0.0,0.0,0.0,0.0,0.0,0.0,0.0,0.0,0.0,0.0,0.0,-5.4394,-5.4258,-5.4648,-5.5078,-5.5527,-5.5644,-5.5996,-5.6582,-5.6582,-5.6445,-5.6172,-5.6445,-5.6894,-5.7461,-5.7734,-5.8379,-5.918,-5.918,-5.918,-5.9383,-6.1761,-6.2159,-6.194,-6.6437,-6.7286,-6.6224,-6.7709,-6.813,-6.813,-6.813,-6.813,-6.813,-6.813,-6.813,-6.8805,-7.1118,-7.1689,-7.1776,-7.2833,-7.3759,-7.4432,-7.4432,-7.525,-7.602,-7.602,-7.602,-7.602,-7.602,-7.602,-7.602,-7.602,-7.602,-7.602,-7.602,-7.602,-7.602,-7.602,-7.602,-7.5803,-7.5274,-7.5058,-7.4889,-7.4721,-7.5515,-7.6404,-7.7294,-7.7992,-7.8449,-7.8617,-7.9002,-7.9074,-7.8857,-7.9627,-8.0012,-8.0012,-8.1046,-8.1671,-8.1864,-8.2176,-8.232]}]]